[[[{"header":{"parameterUnit":"kt","parameterCategory":2,"dx":1,"dy":1,"la1":29.285339999999998,"la2":30.599998999999997,"lo1":-89.70041500000002,"lo2":-87.6738589999976,"nx":112,"ny":82,"refTime":"2022-10-08T00:00:00:Z","depth":0,"parameterNumber":1,"parameterNumberName":"U-component_of_WINDS"},"data":[13.3872,13.4163,0.0,13.1457,12.5582,0.0,11.1764,0.0,0.0,0.0,0.0,0.0,0.0,0.0,0.0,0.0,0.0,0.0,0.0,0.0,0.0,0.0,0.0,0.0,0.0,0.0,0.0,0.0,0.0,0.0,0.0,0.0,14.1752,14.481,14.5334,14.5566,14.5566,14.5566,14.5566,14.5566,14.5566,14.5566,14.5566,14.5566,14.5566,14.5566,14.5566,14.5566,14.5566,14.5566,14.5566,14.5566,14.5566,14.5566,14.5566,14.5566,14.5566,14.5566,14.5566,14.5566,14.5566,14.5566,14.5566,14.5741,14.658,14.7453,14.8175,14.8175,14.8175,14.8233,14.8698,14.786,14.7394,14.9454,14.9919,15.0268,15.1641,15.2222,15.2397,15.2315,15.2315,15.2164,15.1873,15.2571,15.1443,14.6323,14.8359,14.993,14.8475,15.1152,15.3188,15.3188,15.3188,15.3188,15.3188,15.1559,14.9057,14.5799,14.5566,14.5566,14.5566,14.5566,14.5566,14.5566,14.5566,14.5566,14.5566,14.5566,14.5566,14.5566,14.5566,14.5566,0.0,0.0,12.6978,12.439,0.0,0.0,0.0,0.0,0.0,0.0,0.0,0.0,0.0,0.0,0.0,0.0,0.0,0.0,0.0,0.0,0.0,0.0,0.0,0.0,0.0,0.0,0.0,0.0,0.0,0.0,13.7506,14.0324,14.2916,14.5508,14.5566,14.5566,14.5566,14.5566,14.5566,14.5566,14.5566,14.5566,14.5566,14.5566,14.5566,14.5566,14.5566,14.5566,14.5566,14.5566,14.5566,14.5566,14.5566,14.5566,14.5566,14.5566,14.5566,14.5566,14.5566,14.5566,14.5566,14.5566,14.5566,14.5741,14.6614,14.7162,14.7569,14.7569,14.7569,14.7569,14.7569,14.722,14.7162,14.8407,14.9023,14.9605,15.0768,15.1699,15.249,15.3072,15.3188,15.3188,15.3188,15.3188,15.2024,14.865,15.1035,15.1326,14.6298,15.0046,15.3188,15.3188,15.3188,15.3188,15.3188,15.3188,15.1035,14.5915,14.5566,14.5566,14.5566,14.5566,14.5566,14.5566,14.5566,14.5566,14.5566,14.5566,14.6439,14.8185,14.8185,14.7254,0.0,0.0,0.0,11.4588,0.0,0.0,0.0,0.0,9.6745,0.0,0.0,0.0,0.0,0.0,0.0,0.0,0.0,0.0,0.0,0.0,0.0,0.0,0.0,0.0,0.0,0.0,0.0,0.0,12.7414,0.0,14.1138,14.1778,14.2974,14.5508,14.5566,14.5566,14.5566,14.5566,14.5566,14.5566,14.5566,14.5566,14.5566,14.5566,14.5566,14.5566,14.5566,14.5566,14.5566,14.5566,14.5566,14.5566,14.5566,14.5566,14.5566,14.5566,14.5566,14.5566,14.5566,14.5566,14.5566,14.5566,14.5566,14.5566,14.5658,14.6555,14.7569,14.7569,14.7569,14.7569,14.7511,14.6555,14.5915,14.7162,14.6555,14.6555,14.9872,15.057,15.1035,15.2839,15.3188,15.3188,15.3188,15.3188,15.3188,15.3188,15.3188,15.1443,14.6439,15.0163,15.3188,15.3188,15.3188,15.3188,15.3188,15.3188,15.1094,14.6148,14.5683,14.5566,14.5566,14.5566,14.5566,14.5566,14.5566,14.5566,14.5566,14.5566,14.8126,15.2955,15.2955,15.0279,10.9702,0.0,0.0,0.0,0.0,0.0,0.0,0.0,0.0,0.0,0.0,0.0,0.0,0.0,0.0,0.0,0.0,0.0,0.0,10.0163,0.0,0.0,0.0,0.0,0.0,12.6222,12.8316,13.6083,0.0,13.4858,14.1371,14.3497,14.4868,14.5566,14.5566,14.5566,14.5566,14.5566,14.5566,14.5566,14.5566,14.5566,14.5566,14.5566,14.5566,14.5566,14.5566,14.5566,14.5566,14.5566,14.5566,14.5566,14.5566,14.5566,14.5566,14.5566,14.5566,14.5566,14.5566,14.5566,14.5566,14.5566,14.5566,14.5741,14.6696,14.7278,14.7569,14.7569,14.7569,14.7336,14.6381,14.5857,14.5683,14.6032,14.6788,14.7835,14.9338,14.8267,14.8185,15.2373,15.3188,15.3188,15.3188,15.3188,15.3188,15.3188,15.3188,15.2664,15.1268,15.2315,15.3188,15.3188,15.3188,15.3188,15.3188,15.3188,15.2606,15.121,14.7603,14.5566,14.5566,14.5566,14.5566,14.5566,14.5566,14.5566,14.5566,14.5566,14.6323,14.7661,14.7661,14.6905,0.0,0.0,0.0,0.0,0.0,0.0,9.4579,0.0,9.2834,0.0,0.0,0.0,0.0,0.0,0.0,0.0,10.0884,0.0,0.0,0.0,11.6186,0.0,0.0,0.0,13.2592,13.3027,13.5412,14.097,13.8844,13.9077,14.3148,14.4752,14.5566,14.5566,14.5566,14.5566,14.5566,14.5566,14.5566,14.5566,14.5566,14.5566,14.5566,14.5566,14.5566,14.5566,14.5566,14.5566,14.5566,14.5566,14.5566,14.5566,14.5566,14.5566,14.5566,14.5566,14.5566,14.5566,14.5566,14.5566,14.5566,14.5566,14.5566,14.5741,14.6464,14.6696,14.6813,14.7394,14.7162,14.6672,14.6497,14.5974,14.5566,14.5566,14.6323,14.7195,14.7627,14.658,14.6439,14.9406,15.1733,15.3188,15.3188,15.3188,15.249,15.0337,15.185,15.3188,15.3188,15.3188,15.3188,15.3188,15.3188,15.3188,15.3188,15.3188,15.3188,15.3188,15.0395,14.8766,14.8766,14.673,14.5566,14.5566,14.5566,14.5566,14.5566,14.5566,14.5566,14.5566,14.5566,14.5566,0.0,0.0,0.0,0.0,9.6324,0.0,0.0,0.0,0.0,9.4579,0.0,0.0,9.6404,0.0,0.0,0.0,0.0,0.0,10.9378,11.738,12.3982,12.5087,13.1312,13.5354,13.5238,13.8352,14.1377,14.3672,14.2799,14.3148,14.545,14.5566,14.5566,14.5566,14.5566,14.5566,14.5566,14.5566,14.5566,14.5566,14.5566,14.5566,14.5566,14.5566,14.5566,14.5566,14.5566,14.5566,14.5566,14.5566,14.5566,14.5566,14.5566,14.5566,14.5566,14.5566,14.5566,14.5566,14.5566,14.5566,14.5566,14.5566,14.5566,14.5566,14.5566,14.5566,14.5799,14.6987,14.6497,14.5857,14.6987,14.6497,14.5566,14.5566,14.5566,14.5566,14.5566,14.5566,14.5566,14.5566,14.9697,15.3072,15.2746,15.2455,15.0977,14.7021,15.0279,15.2955,15.2432,15.2839,15.3188,15.3188,15.3188,15.3188,15.3188,15.3188,15.3188,15.3188,15.3188,15.3188,15.3188,14.8592,14.5857,14.5566,14.6148,14.6148,14.5566,14.5566,14.5566,14.5566,14.5566,14.5566,0.0,0.0,0.0,0.0,0.0,9.4499,0.0,0.0,0.0,0.0,10.8215,10.7541,11.1647,11.0226,10.9644,11.3341,11.8427,12.1364,0.0,13.1894,0.0,14.1145,14.2483,14.3006,14.1927,14.3414,14.4694,14.5159,14.4985,14.5043,14.5566,14.5566,14.5566,14.5566,14.5566,14.5566,14.5566,14.5566,14.5566,14.5566,14.5566,14.5566,14.5566,14.5566,14.5566,14.5566,14.5566,14.5566,14.5566,14.5566,14.5566,14.5566,14.5566,14.5566,14.5566,14.5566,14.5566,14.5566,14.5566,14.5566,14.5566,14.5566,14.5566,14.5566,14.5566,14.5566,14.5658,14.5915,14.5799,14.5625,14.5915,14.5799,14.5566,14.5566,14.5566,14.5566,14.5566,14.5566,14.5566,14.5566,14.9697,15.2513,15.0385,14.8383,14.8126,15.1268,15.2548,15.1675,14.7603,15.0628,15.3188,15.3188,15.3188,15.3188,15.3188,15.3188,15.3188,15.3188,15.3188,15.3188,15.3188,15.0245,14.7627,14.5625,14.9639,14.9697,14.5566,14.5566,14.5566,14.5566,14.5566,14.5566,0.0,0.0,0.0,9.0798,0.0,0.0,0.0,9.9058,10.0919,11.2494,11.188,11.1207,11.7582,11.8195,11.8369,12.0405,12.6047,13.1108,13.3756,14.0214,14.4403,14.373,14.3614,14.3614,14.3614,14.481,14.5566,14.5566,14.5566,14.5566,14.5566,14.5566,14.5566,14.5566,14.5566,14.5566,14.5566,14.5566,14.5566,14.5566,14.5566,14.5566,14.5566,14.5566,14.5566,14.5566,14.5566,14.5566,14.5566,14.5566,14.5566,14.5566,14.5566,14.5566,14.5566,14.5566,14.5566,14.5566,14.5566,14.5566,14.5566,14.5566,14.5566,14.5566,14.5566,14.5566,14.5741,14.6381,14.609,14.5741,14.6381,14.609,14.5566,14.5566,14.5566,14.5566,14.5566,14.5566,14.5566,14.5566,14.7603,14.8999,14.7627,14.7453,14.786,14.9174,15.1559,15.2257,14.9697,14.9406,15.0337,15.2897,15.199,15.1408,15.1908,15.1908,15.2222,15.3095,15.3188,15.3188,15.3188,15.0675,14.8698,14.7453,14.8708,14.9406,14.9406,14.9406,14.8068,14.5566,14.5566,14.5566,0.0,0.0,0.0,0.0,0.0,0.0,10.078,10.057,10.2862,11.5926,11.6418,11.6593,12.3546,12.6222,12.7298,12.6832,13.2969,13.9716,14.5217,14.5101,14.4021,14.2941,14.2625,14.2857,14.3904,14.4985,14.5566,14.5566,14.5566,14.5566,14.5566,14.5566,14.5566,14.5566,14.5566,14.5566,14.5566,14.5566,14.5566,14.5566,14.5566,14.5566,14.5566,14.5566,14.5566,14.5566,14.5566,14.5566,14.5566,14.5566,14.5566,14.5566,14.5566,14.5566,14.5566,14.5566,14.5566,14.5566,14.5566,14.5566,14.5566,14.5566,14.5566,14.5566,14.5566,14.5566,14.5799,14.6871,14.6439,14.5799,14.6871,14.6381,14.5566,14.5566,14.5566,14.5566,14.5566,14.5566,14.5566,14.5566,14.5566,14.5683,14.5915,14.7685,14.8466,14.6846,15.0337,15.3188,15.3188,14.9581,14.8534,15.2315,15.0826,14.9978,15.1094,15.1152,15.1733,15.313,15.3188,15.3072,15.2804,15.0501,14.9246,14.9246,14.7162,14.8417,15.3188,15.2548,14.993,14.5566,14.5566,14.5566,0.0,0.0,0.0,0.0,0.0,0.0,10.8257,11.1222,11.5027,12.9072,13.2592,13.4396,13.858,13.8669,13.8759,14.097,14.3123,14.5159,14.7045,14.722,14.7045,14.6929,14.5824,14.5217,14.5334,14.5508,14.5566,14.5566,14.5566,14.5566,14.5566,14.5566,14.5566,14.5566,14.5566,14.5566,14.5566,14.5566,14.5566,14.5566,14.5566,14.5566,14.5566,14.5566,14.5566,14.5566,14.5566,14.5566,14.5566,14.5566,14.5566,14.5566,14.5566,14.5566,14.5566,14.5566,14.5566,14.5566,14.5566,14.5566,14.5566,14.5566,14.5566,14.5566,14.5566,14.5566,14.5658,14.5741,14.5683,14.5625,14.5741,14.5683,14.5566,14.5566,14.5566,14.5566,14.5566,14.5566,14.5566,14.5566,14.5566,14.5974,14.7104,14.7802,14.865,14.993,15.185,15.3188,15.3188,15.2723,15.1966,15.1035,15.0686,15.1152,15.2781,15.2897,15.3013,15.3188,15.3188,15.2629,15.1524,15.0094,14.9246,14.9246,14.8325,14.9581,15.3188,15.0163,14.7603,14.5566,14.5566,14.5566,0.0,0.0,0.0,0.0,0.0,0.0,10.8306,11.2494,11.811,13.236,13.5063,13.6781,14.2857,14.353,14.353,14.4577,14.6464,14.8209,14.9488,14.9047,14.8582,14.8582,14.7511,14.6439,14.5683,14.5566,14.5566,14.5566,14.5566,14.5566,14.5566,14.5566,14.5566,14.5566,14.5566,14.5566,14.5566,14.5566,14.5566,14.5566,14.5566,14.5566,14.5566,14.5566,14.5566,14.5566,14.5566,14.5566,14.5566,14.5566,14.5566,14.5566,14.5566,14.5566,14.5566,14.5566,14.5566,14.5566,14.5566,14.5566,14.5566,14.5566,14.5566,14.5566,14.5566,14.5566,14.5566,14.5566,14.5566,14.5566,14.5566,14.5566,14.5566,14.5566,14.5566,14.5566,14.5566,14.5566,14.6032,14.7453,14.6614,14.6206,14.8233,14.8698,14.9256,15.0454,15.2083,15.3188,15.3188,15.2315,15.1443,15.0744,14.9547,14.9372,15.0792,15.0908,15.1233,15.199,15.2746,15.292,15.2397,15.1083,15.0094,14.9304,14.8989,14.879,14.8766,14.8301,14.7719,14.7021,14.6032,14.5566,7.6919,0.0,0.0,0.0,0.0,0.0,11.2171,11.6651,12.2034,13.4047,13.6665,13.8553,14.4519,14.5857,14.6032,14.5625,14.7394,14.9105,15.007,14.9687,14.9163,14.8873,14.8059,14.7045,14.5741,14.5566,14.5566,0.0,14.5566,14.5566,14.5566,14.5566,14.5566,14.5566,14.5566,14.5566,14.5566,14.5566,14.5566,14.5566,14.5566,14.5566,14.5566,14.5566,14.5566,14.5566,14.5566,14.5566,14.5566,14.5566,14.5566,14.5566,14.5566,14.5566,14.5566,14.5566,14.5566,14.5566,14.5566,14.5566,14.5566,14.5566,14.5566,14.5566,14.5566,14.5566,14.5566,14.5566,14.5566,14.5566,14.5566,14.5566,14.5566,14.5566,14.5566,14.5683,14.6032,14.6148,14.6755,14.8873,14.786,14.7162,14.8989,14.9571,14.9919,15.0245,15.1931,15.3037,15.2688,15.1908,15.1326,15.1326,15.0012,14.9256,14.9629,15.0094,15.0617,15.1233,15.2455,15.3188,15.3188,15.1582,15.0268,14.9304,14.8989,14.7918,14.6148,14.7021,14.7603,14.7952,14.6323,14.5566,0.0,0.0,0.0,10.171,10.4002,10.7517,12.4011,12.785,12.974,13.6401,14.0763,14.3788,14.5334,14.6638,14.7045,14.5799,14.6696,14.7627,14.7627,14.8582,14.8873,14.771,14.7569,14.7045,14.5741,14.5566,14.5566,14.5566,14.5566,14.5566,14.5566,14.5566,14.5566,14.5566,14.5566,14.5566,14.5566,14.5566,14.5566,14.5566,14.5566,14.5566,14.5566,14.5566,14.5566,14.5566,14.5566,14.5566,14.5566,14.5566,14.5566,14.5566,14.5566,14.5566,14.5566,14.5566,14.5566,14.5566,14.5566,14.5566,14.5566,14.5566,14.5566,14.5566,14.5566,14.5566,14.5566,14.5566,14.5566,14.5566,14.5566,14.5566,14.5566,14.5566,14.5566,14.5915,14.722,14.7511,14.7826,14.9047,14.9222,14.9222,14.9246,15.0327,15.0734,14.9512,15.1524,15.2688,15.1466,15.2339,15.3095,15.3095,15.3072,15.2373,15.0744,15.2141,15.2513,15.135,15.2455,15.3188,15.3188,15.0734,14.9304,14.9246,14.8175,14.7569,14.7511,14.6265,14.6323,14.7511,14.6206,14.5566,8.3488,9.1089,9.9465,10.721,11.3283,11.8835,12.4419,13.0352,13.5238,13.739,14.1578,14.5043,14.5508,14.5974,14.609,14.5683,14.5974,14.6555,14.7394,14.7884,14.7942,14.7569,14.8233,14.7918,14.5799,14.6381,14.6555,14.5625,14.5566,0.0,14.5566,14.5566,14.5566,14.5566,14.5566,14.5566,14.5566,14.5566,14.5566,14.5566,14.5566,14.5566,14.5566,14.5566,14.5566,14.5566,14.5566,14.5566,14.5566,14.5566,14.5566,14.5566,14.5566,14.5566,14.5566,14.5566,14.5566,14.5566,14.5566,14.5566,14.5566,14.5566,14.5566,14.5566,14.5566,14.5566,14.5566,14.5566,14.5566,14.5566,14.5566,14.5566,14.5566,14.5566,14.5566,14.5974,14.7278,14.7569,14.7884,14.9013,14.864,14.864,15.0268,14.9571,14.9163,15.0385,15.0559,15.0734,15.1141,15.1641,15.2222,15.3072,15.2397,15.1524,15.0744,15.0594,15.0385,14.9978,15.1141,15.1873,15.1873,15.1873,15.1024,14.9338,14.8931,14.7884,14.6265,14.5799,14.5799,14.6265,14.5799,14.5566,8.946,9.7335,10.5189,11.5376,12.2238,12.7094,12.9363,13.4396,13.8669,13.9135,14.2218,14.5043,14.5542,14.5566,14.5566,14.5566,14.5566,14.5857,14.6696,14.722,14.7394,14.6871,14.8291,14.8291,14.5799,14.6755,14.6987,14.5683,14.5566,14.5566,14.5566,14.5566,14.5566,14.5566,14.5566,14.5566,14.5566,14.5566,14.5566,14.5566,14.5566,14.5566,14.5566,14.5566,14.5566,14.5566,14.5566,14.5566,14.5566,14.5566,14.5566,14.5566,14.5566,14.5566,14.5566,14.5566,14.5566,14.5566,14.5566,14.5566,14.5566,14.5566,14.5566,14.5566,14.5566,14.5566,14.5566,14.5566,14.5566,14.5566,14.5566,14.5566,14.5566,14.5566,14.5566,14.5974,14.7278,14.7569,14.7884,14.9013,14.8698,14.864,15.0268,14.9222,14.8407,14.9081,14.9023,14.928,15.0385,15.135,15.2222,15.3072,15.2397,15.1582,15.0744,15.0652,15.0268,14.9338,15.0501,15.1024,15.0559,15.0943,15.0361,14.8698,14.8175,14.7162,14.5566,14.5566,14.5799,14.6265,14.5799,14.5857,9.543,10.1478,10.7492,12.596,13.0701,13.2387,13.8294,13.969,14.0156,14.1429,14.2741,14.4054,14.5334,14.5566,14.5566,14.5566,14.5566,14.5566,14.5566,14.6672,14.6987,14.5741,14.7768,14.8349,14.5915,14.6871,14.7104,14.5799,14.5625,14.5566,14.5566,14.5566,14.5566,14.5566,14.5566,14.5566,14.5566,14.5566,14.5566,14.5566,14.5566,14.5566,14.5566,14.5566,14.5566,14.5566,14.5566,14.5566,14.5566,14.5566,14.5566,14.5566,14.5566,14.5566,14.5566,14.5566,14.5566,14.5566,14.5566,14.5566,14.5566,14.5566,14.5566,14.5566,14.5566,14.5566,14.5566,14.5566,14.5566,14.5566,14.5566,14.5566,14.5566,14.5566,14.5566,14.5915,14.7162,14.7453,14.7802,14.8873,14.9187,14.9246,14.9222,14.9187,14.8407,14.6032,14.7079,14.8383,14.9222,15.1524,15.3095,15.3188,15.3095,15.249,15.0919,15.2106,15.1931,14.9454,15.0443,15.0559,14.9338,14.8233,14.7627,14.7569,14.6265,14.5566,14.5566,14.5566,14.6206,14.7394,14.6206,14.6265,10.1175,11.5371,12.6018,13.2883,13.6692,13.8728,13.8379,13.905,14.0156,14.1429,14.2741,14.4054,14.5334,14.5566,14.5566,14.5566,14.5566,14.5566,14.5566,14.5857,14.5974,14.5625,14.7768,14.8698,14.7162,14.8117,14.8349,14.7104,14.6148,14.5566,14.5566,14.5566,14.5566,14.5566,14.5566,14.5566,14.5566,14.5566,14.5566,14.5566,14.5566,14.5566,14.5566,14.5566,14.5566,14.5566,14.5566,14.5566,14.5566,14.5566,14.5566,14.5566,14.5566,14.5566,14.5566,14.5566,14.5566,14.5566,14.5566,14.5566,14.5566,14.5566,14.5566,14.5566,14.5566,14.5566,14.5566,14.5566,14.5566,14.5566,14.5566,14.5566,14.5566,14.5566,14.5566,14.5683,14.6032,14.609,14.6206,14.6464,14.8,14.9047,14.8117,14.7942,14.7802,14.7104,14.7394,14.8092,14.9129,15.0734,15.2106,15.3072,15.228,15.1931,15.249,15.1175,14.9978,14.9304,14.9629,14.9629,14.9304,14.8989,14.8407,14.7569,14.6265,14.5566,14.5566,14.5566,14.5741,14.609,14.5741,14.5741,9.8382,11.6619,13.2883,13.9484,14.1403,14.1313,13.9859,14.0124,14.0822,14.1545,14.2301,14.3381,14.5217,14.5566,14.5566,14.5566,14.5566,14.5566,14.5566,14.5566,14.5566,14.5566,14.7336,14.8059,14.6813,14.7768,14.8,14.6755,14.5974,14.5566,14.5566,14.5566,14.5566,14.5566,14.5566,14.5566,14.5566,14.5566,14.5566,14.5566,14.5566,14.5566,14.5566,14.5566,14.5566,14.5566,14.5566,14.5566,14.5566,14.5566,14.5566,14.5566,14.5566,14.5566,14.5566,14.5566,14.5566,14.5566,14.5566,14.5566,14.5566,14.5566,14.5566,14.5566,14.5566,14.5566,14.5566,14.5566,14.5566,14.5566,14.5566,14.5566,14.5566,14.5566,14.5566,14.5566,14.5566,14.5566,14.5566,14.5566,14.6696,14.7453,14.6813,14.6672,14.6672,14.6672,14.6672,14.7278,14.9013,15.0268,15.1233,15.2024,15.1059,15.0675,15.1408,15.0152,14.9105,14.8524,14.8989,14.8815,14.7743,14.8233,14.7976,14.6696,14.5974,14.5566,14.5566,14.5566,14.5566,14.5566,14.5566,14.5566,9.4812,11.3218,13.3174,14.4253,14.4453,14.1894,14.172,14.1545,14.1578,14.1894,14.1952,14.2683,14.4926,14.545,14.5566,14.5566,14.5566,14.5566,14.5566,14.5566,14.5566,14.5566,14.658,14.6813,14.5683,14.6614,14.6813,14.5683,14.5566,14.5566,14.5566,14.5566,14.5566,14.5566,14.5566,14.5566,14.5566,14.5566,14.5566,14.5566,14.5566,14.5566,14.5566,14.5566,14.5566,14.5566,14.5566,14.5566,14.5566,14.5566,14.5566,14.5566,14.5566,14.5566,14.5566,14.5566,14.5566,14.5566,14.5566,14.5566,14.5566,14.5566,14.5566,14.5566,14.5566,14.5566,14.5566,14.5566,14.5566,14.5566,14.5566,14.5566,14.5566,14.5566,14.5566,14.5566,14.5566,14.5566,14.5566,14.5566,14.5566,14.5625,14.5799,14.5857,14.5799,14.5625,14.5741,14.6638,14.8815,14.9896,15.0512,15.0512,14.9629,14.9047,14.9047,14.9047,14.864,14.7627,14.8524,14.8059,14.5915,14.6788,14.6755,14.5625,14.5566,14.5566,14.5566,14.5566,14.5566,14.5566,14.5566,14.5566,10.8946,12.1364,13.3872,14.2218,14.3788,14.3032,14.1952,14.088,14.0737,14.2857,14.3323,14.3439,14.3937,14.4868,14.5566,14.5566,14.5566,14.5566,14.5566,14.5566,14.5566,14.5566,14.5799,14.5857,14.5625,14.5799,14.5799,14.5625,14.5566,14.5566,14.5566,14.5566,14.5566,14.5566,14.5566,14.5566,14.5566,14.5566,14.5566,14.5566,14.5566,14.5566,14.5566,14.5566,14.5566,14.5566,14.5566,14.5566,14.5566,14.5566,14.5566,14.5566,14.5566,14.5566,14.5566,14.5566,14.5566,14.5566,14.5566,14.5566,14.5566,14.5566,14.5566,14.5566,14.5566,14.5566,14.5566,14.5566,14.5566,14.5566,14.5566,14.5566,14.5566,14.5566,14.5566,14.5566,14.5566,14.5566,14.5566,14.5566,14.5566,14.5915,14.6987,14.722,14.6813,14.5741,14.6497,14.7394,14.7802,14.8815,14.9512,14.9512,14.8524,14.7826,14.7826,14.7826,14.771,14.7569,14.771,14.7685,14.722,14.6381,14.5799,14.5566,14.5566,14.5566,14.5566,14.5566,14.5566,14.5566,14.5566,14.5566,10.932,12.1364,13.2709,13.9018,14.2101,14.3497,14.2857,14.1694,14.0356,13.896,14.0822,14.245,14.1785,14.3239,14.481,14.545,14.5566,14.5566,14.5566,14.5566,14.5566,14.5566,14.4985,14.4577,14.4577,14.4577,14.4577,14.4577,14.5217,14.5566,14.5566,14.5566,14.5566,14.5566,14.5566,14.5566,14.5566,14.5566,14.5566,14.5566,14.5566,14.5566,14.5566,14.5566,14.5566,14.5566,14.5566,14.5566,14.5566,14.5566,14.5566,14.5566,14.5566,14.5566,14.5566,14.5566,14.5566,14.5566,14.5566,14.5566,14.5566,14.5566,14.5566,14.5566,14.5566,14.5566,14.5566,14.5566,14.5566,14.5566,14.5566,14.5566,14.5566,14.5566,14.5566,14.5566,14.5566,14.5566,14.5566,14.5566,14.5566,14.5799,14.6439,14.6555,14.6323,14.5683,14.6148,14.6555,14.6555,14.6987,14.7336,14.7336,14.6871,14.6555,14.6555,14.6555,14.6555,14.6555,14.7162,14.722,14.6555,14.5915,14.5566,14.5566,14.5566,14.5566,14.5566,14.5566,14.5566,14.5566,14.5566,14.5566,10.6203,11.8687,13.0701,13.611,13.9891,14.245,14.2741,14.181,13.9743,13.5761,13.8521,14.1487,14.0737,14.2276,14.4079,14.5392,14.5566,14.5566,14.5566,14.5566,14.5566,14.5566,14.4461,14.373,14.4054,14.3788,14.373,14.4054,14.4985,14.5566,14.5566,14.5566,14.5566,14.5566,14.5566,14.5566,14.5566,14.5566,14.5566,14.5566,14.5566,14.5566,14.5566,14.5566,14.5566,14.5566,14.5566,14.5566,14.5566,14.5566,14.5566,14.5566,14.5566,14.5566,14.5566,14.5566,14.5566,14.5566,14.5566,14.5566,14.5566,14.5566,14.5566,14.5566,14.5566,14.5566,14.5566,14.5566,14.5566,14.5566,14.5566,14.5566,14.5566,14.5566,14.5566,14.5566,14.5566,14.5566,14.5566,14.5566,14.5566,14.5566,14.5566,14.5566,14.5566,14.5566,14.5566,14.5566,14.5566,14.5566,14.5566,14.5566,14.5566,14.5566,14.5566,14.5566,14.5566,14.5566,14.6555,14.6672,14.5625,14.5566,14.5874,14.6575,14.5965,14.5566,14.5566,14.5566,14.5566,14.5566,14.5566,14.5566,10.5432,11.6016,12.8228,13.4509,13.7184,13.8669,13.9865,13.9077,13.803,13.7564,13.9743,14.2011,14.309,14.3497,14.4079,14.5392,14.5566,14.5566,14.5566,14.5566,14.5566,14.5566,14.4461,14.4112,14.5276,14.4345,14.417,14.5334,14.5542,14.5566,14.5566,14.5566,14.5566,14.5566,14.5566,14.5566,14.5566,14.5566,14.5566,14.5566,14.5566,14.5566,14.5566,14.5566,14.5566,14.5566,14.5566,14.5566,14.5566,14.5566,14.5566,14.5566,14.5566,14.5566,14.5566,14.5566,14.5566,14.5566,14.5566,14.5566,14.5566,14.5566,14.5566,14.5566,14.5566,14.5566,14.5566,14.5566,14.5566,14.5566,14.5566,14.5566,14.5566,14.5566,14.5566,14.5566,14.5566,14.5566,14.5566,14.5566,14.5566,14.5566,14.5566,14.5566,14.5566,14.5566,14.5566,14.5566,14.5566,14.5566,14.5566,14.5566,14.5566,14.5566,14.5566,14.5566,14.5566,14.5566,14.5683,14.5683,14.5566,14.5566,14.6969,14.9795,14.7041,14.5566,14.5566,14.5566,14.5566,14.5566,14.5566,14.5566,9.7371,10.8714,12.0029,12.2587,12.9449,13.5703,13.6226,13.5994,13.5587,13.5587,13.8204,14.0473,14.0182,14.0124,14.1054,14.3996,14.373,14.3788,14.5392,14.5566,14.5566,14.5566,14.4461,14.3846,14.4403,14.3963,14.3846,14.4403,14.5159,14.5566,14.5566,14.5566,14.5566,14.5566,14.5566,14.5566,14.5566,14.5566,14.5566,14.5566,14.5566,14.5566,14.5566,14.5566,14.5566,14.5566,14.5566,14.5566,14.5566,14.5566,14.5566,14.5566,14.5566,14.5566,14.5566,14.5566,14.5566,14.5566,14.5566,14.5566,14.5566,14.5566,14.5566,14.5566,14.5566,14.5566,14.5566,14.5566,14.5566,14.5566,14.5566,14.5566,14.5566,14.5566,14.5566,14.5566,14.5566,14.5566,14.5566,14.5566,14.5566,14.5566,14.5566,14.5566,14.5566,14.5566,14.5566,14.5566,14.5566,14.5566,14.5566,14.5566,14.5566,14.5566,14.5566,14.5566,14.5566,14.5566,14.5566,14.6469,14.8351,15.0328,15.102,15.0271,14.906,14.8415,14.8415,14.6509,14.6542,14.8383,14.6443,14.5566,8.9963,10.0745,11.1098,11.1855,12.087,13.0177,13.2446,13.1515,13.1224,13.5005,13.8236,13.9949,13.8611,13.7797,13.8437,14.1959,14.1752,14.2159,14.5159,14.5566,14.5566,14.5566,14.4461,14.3788,14.4228,14.3879,14.3788,14.4195,14.5043,14.5566,14.5566,14.5566,14.5566,14.5566,14.5566,14.5566,14.5566,14.5566,14.5566,14.5566,14.5566,14.5566,14.5566,14.5566,14.5566,14.5566,14.5566,14.5566,14.5566,14.5566,14.5566,14.5566,14.5566,14.5566,14.5566,14.5566,14.5566,14.5566,14.5566,14.5566,14.5566,14.5566,14.5566,14.5566,14.5566,14.5566,14.5566,14.5566,14.5566,14.5566,14.5566,14.5566,14.5566,14.5566,14.5566,14.5566,14.5566,14.5566,14.5566,14.5566,14.5566,14.5566,14.5566,14.5566,14.5566,14.5566,14.5566,14.5566,14.5566,14.5566,14.5566,14.5566,14.5566,14.5566,14.5566,14.5566,14.5566,14.5566,14.6443,14.8832,15.2931,15.4379,15.4468,15.3144,15.2167,15.1735,15.1705,14.9474,14.9538,15.1674,14.9443,14.7893,8.4923,9.2733,10.2199,10.4792,11.2236,12.0901,12.8578,12.5349,12.4419,13.7072,14.0763,14.1287,13.9981,13.7712,13.6898,13.9399,13.9807,14.1145,14.5043,14.5566,14.5566,14.5566,14.4461,14.417,14.545,14.4403,14.4228,14.545,14.5566,14.5566,14.5566,14.5566,14.5566,14.5566,14.5566,14.5566,14.5566,14.5566,14.5566,14.5566,14.5566,14.5566,14.5566,14.5566,14.5566,14.5566,14.5566,14.5566,14.5566,14.5566,14.5566,14.5566,14.5566,14.5566,14.5566,14.5566,14.5566,14.5566,14.5566,14.5566,14.5566,14.5566,14.5566,14.5566,14.5566,14.5566,14.5566,14.5566,14.5566,14.5566,14.5566,14.5566,14.5566,14.5566,14.5566,14.5566,14.5566,14.5566,14.5566,14.5566,14.5566,14.5566,14.5566,14.5566,14.5566,14.5566,14.5566,14.5566,14.5566,14.5566,14.5566,14.5566,14.5566,14.5566,14.5566,14.5566,14.5566,14.5566,14.8511,15.3083,15.9417,15.6732,15.6558,15.9612,15.665,15.5066,15.5066,15.5036,15.5036,15.5066,15.5033,15.3326,7.8489,8.6803,9.644,10.2513,10.9445,11.6365,12.2325,12.8258,13.1573,12.8636,13.329,13.7188,13.4978,13.6025,13.7797,13.9516,13.9748,14.0796,14.3879,14.5043,14.5566,14.5566,14.4461,14.3788,14.4228,14.309,14.2857,14.417,14.4286,14.4636,14.5566,14.5566,14.5566,14.5566,14.5566,14.5566,14.5566,14.5566,14.5566,14.5566,14.5566,14.5566,14.5566,14.5566,14.5566,14.5566,14.5566,14.5566,14.5566,14.5566,14.5566,14.5566,14.5566,14.5566,14.5566,14.5566,14.5566,14.5566,14.5566,14.5566,14.5566,14.5566,14.5566,14.5566,14.5566,14.5566,14.5566,14.5566,14.5566,14.5566,14.5566,14.5566,14.5566,14.5566,14.5566,14.5566,14.5566,14.5566,14.5566,14.5566,14.5566,14.5566,14.5566,14.5566,14.5566,14.5566,14.5566,14.5566,14.5566,14.5566,14.5566,14.5566,14.5566,14.5566,14.5566,14.5566,14.6509,14.8612,15.3839,15.7715,15.9668,16.0863,16.0945,15.9779,15.8829,15.832,15.832,15.6155,15.6213,15.8291,15.6125,15.4558,7.8019,8.5214,9.3648,10.0884,10.4584,10.883,11.7904,12.3255,12.5175,12.1247,12.6076,13.108,13.137,13.454,13.739,13.8236,13.8728,14.0124,14.3206,14.4752,14.5566,14.5566,14.3963,14.2916,14.2916,14.1752,14.152,14.2799,14.3381,14.4228,14.5508,14.5566,14.5566,14.5566,14.5566,14.5566,14.5566,14.5566,14.5566,14.5566,14.5566,14.5566,14.5566,14.5566,14.5566,14.5566,14.5566,14.5566,14.5566,14.5566,14.5566,14.5566,14.5566,14.5566,14.5566,14.5566,14.5566,14.5566,14.5566,14.5566,14.5566,14.5566,14.5566,14.5566,14.5566,14.5566,14.5566,14.5566,14.5566,14.5566,14.5566,14.5566,14.5566,14.5566,14.5566,14.5566,14.5566,14.5566,14.5566,14.5566,14.5566,14.5566,14.5566,14.5566,14.5566,14.5566,14.5566,14.5566,14.5566,14.5566,14.5566,14.5566,14.5566,14.5566,14.5566,14.6673,14.8189,15.0113,15.6267,16.0314,16.1499,16.343,16.3535,16.158,16.1526,16.1009,15.9815,15.7801,15.7858,15.976,15.7772,15.691,8.1373,8.6397,9.2892,9.964,9.8731,10.0034,11.4647,11.2553,10.9029,11.4207,11.8629,12.2934,12.7589,13.1689,13.4683,13.5792,13.7041,13.9309,14.309,0.0,14.5741,14.5741,14.3497,14.1894,14.172,14.0531,14.0272,14.1487,14.2799,14.4079,14.5392,14.545,14.545,14.545,14.545,14.545,14.545,14.5566,14.5566,14.5566,14.5566,14.5566,14.5566,14.5566,14.5566,14.5566,14.5566,14.5566,14.5566,14.5566,14.5566,14.5566,14.5566,14.5566,14.5566,14.5566,14.5566,14.5566,14.5566,14.5566,14.5566,14.5566,14.5566,14.5566,14.5566,14.5566,14.5566,14.5566,14.5566,14.5566,14.5566,14.5566,14.5566,14.5566,14.5566,14.5566,14.5566,14.5566,14.5566,14.5566,14.5566,14.5566,14.5566,14.5566,14.5566,14.5566,14.5566,14.5566,14.5566,14.5799,14.5866,14.56,14.5799,14.5866,14.56,14.8254,15.0208,15.0928,15.6703,16.1417,16.4306,16.4476,16.4476,16.4476,16.4476,16.3021,16.012,16.012,16.012,16.012,16.012,16.012,7.4645,7.9725,8.7115,9.7407,10.0047,10.1873,10.8481,11.0051,10.8331,10.2071,10.612,11.0949,11.1157,11.59,12.3053,13.2969,13.7215,14.033,14.3206,14.5649,14.7104,14.7104,14.5683,14.3937,14.1894,14.0531,13.9923,14.0182,14.1461,14.2741,14.4054,14.4079,14.4079,14.4079,14.4079,14.4079,14.4079,14.5101,14.5566,14.5566,14.5566,14.5566,14.5566,14.5566,14.5566,14.5566,14.5566,14.5566,14.5566,14.5566,14.5566,14.5566,14.5566,14.5566,14.5566,14.5566,14.5566,14.5566,14.5566,14.5566,14.5566,14.5566,14.5566,14.5566,14.5566,14.5566,14.5566,14.5566,14.5566,14.5566,14.5566,14.5566,14.5566,14.5566,14.5566,14.5566,14.5566,14.5566,14.5566,14.5566,14.5566,14.5566,14.5566,14.5566,14.5566,14.5566,14.5566,14.5566,14.5566,14.7699,14.8254,14.5866,14.7731,14.8189,14.5799,14.6271,14.9763,15.7078,16.1227,16.3666,16.4384,16.4476,16.4476,16.4476,16.4476,16.4098,16.3377,16.3377,16.3377,16.3377,16.3377,16.3377,7.5459,8.0114,8.5757,9.2543,9.4346,9.5255,9.8593,9.9465,9.8011,9.2506,9.6579,10.1966,10.4851,11.0084,11.7063,12.6454,13.1108,13.4714,13.7945,14.161,14.4428,14.5591,14.5126,14.417,14.2741,14.088,13.9748,13.9748,14.0414,14.1403,14.2683,14.3323,14.3381,14.2799,14.3904,14.4286,14.3614,14.4926,14.5566,14.5566,14.5566,14.5566,14.5566,14.5566,14.5566,14.5566,14.5566,14.5566,14.5566,14.5566,14.5566,14.5566,14.5566,14.5566,14.5566,14.5566,14.5566,14.5566,14.5566,14.5566,14.5566,14.5566,14.5566,14.5566,14.5566,14.5566,14.5566,14.5566,14.5566,14.5566,14.5566,14.5566,14.5566,14.5566,14.5566,14.5566,14.5566,14.5566,14.5566,14.5566,14.5566,14.5566,14.5566,14.5566,14.5566,14.5566,14.5566,14.5566,14.5566,14.8318,14.9605,14.7926,15.0614,15.1797,15.0108,14.9981,15.281,15.9362,16.1363,16.2942,16.4358,16.4476,16.4476,16.4476,16.4476,16.3719,16.229,16.229,16.229,16.229,16.229,16.3048,7.8601,8.3062,8.6649,8.7774,8.7076,8.6765,8.9129,8.7579,8.5602,8.5776,8.9635,9.5008,10.1478,10.7177,11.2585,11.7788,12.2006,12.6367,13.1459,13.6723,14.0938,14.3381,14.3963,14.4021,14.3381,14.1377,13.9923,13.9516,13.9632,14.0272,14.1345,14.245,14.2625,14.172,14.3846,14.4577,14.3614,14.4926,14.5566,14.5566,14.5566,14.5566,14.5566,14.5566,14.5566,14.5566,0.0,14.5566,14.5566,14.5566,14.5566,14.5566,14.5566,14.5566,14.5566,14.5566,14.5566,14.5566,14.5566,14.5566,14.5566,14.5566,14.5566,14.5566,14.5566,14.5566,14.5566,14.5566,14.5566,14.5566,14.5566,14.5566,14.5566,14.5566,14.5566,14.5566,14.5566,14.5566,14.5566,14.5566,14.5566,14.5566,14.5566,14.5566,14.5566,14.5566,14.5566,14.5566,14.5566,14.8768,15.0835,15.0302,15.3568,15.5627,15.5155,15.5155,15.6645,16.0286,16.0506,16.1661,16.4306,16.4476,16.4476,16.4476,16.4476,16.3127,16.0506,16.0506,16.0506,16.0506,16.0506,16.1941,7.6646,8.2364,8.7774,8.8006,8.7076,8.6474,8.8006,8.5544,8.3275,8.4245,8.6823,8.9286,9.0449,9.6651,10.328,10.8481,11.3425,12.0289,13.0702,13.7506,14.1952,14.3497,14.5591,14.5649,14.2301,14.1636,14.0531,13.8262,13.9167,13.9865,14.0039,14.0272,14.0763,14.1662,14.2069,14.2741,14.3614,14.4926,14.5566,14.5566,14.5566,14.5566,14.5566,14.5566,14.5566,14.5566,14.5566,0.0,14.5566,14.5566,14.5566,14.5566,14.5566,14.5566,14.5566,14.5566,14.5566,14.5566,14.5566,14.5566,14.5566,14.5566,14.5566,14.5566,14.5566,14.5566,14.5566,14.5566,14.5566,14.5566,14.5566,14.5566,14.5566,14.5566,14.5566,14.5566,14.5566,14.5566,14.5566,14.5566,14.5566,14.5566,14.5566,14.5566,14.5566,14.5566,14.5566,14.5566,14.5566,15.0707,15.3327,15.0553,15.5564,15.7972,15.5332,15.5125,15.7572,16.3404,16.3719,16.3968,16.441,16.4476,16.4476,16.4476,16.4476,16.4202,16.3719,16.3719,16.3719,16.3719,16.3719,16.402,7.9183,8.4826,8.9809,8.8434,8.7599,8.7134,8.6997,8.568,8.4342,8.4245,8.5698,8.7405,8.8858,9.3707,9.9197,10.4375,10.947,11.5868,12.4738,13.3842,14.0324,14.2392,14.4893,14.5799,14.3963,14.2567,14.0906,13.9018,13.8786,13.8728,13.8728,13.9399,14.0039,14.0647,14.2043,14.3032,14.3614,14.4228,14.4868,14.5566,14.5566,14.5566,14.5566,14.5566,14.5566,14.5566,14.5566,14.5566,14.5566,14.5566,14.5566,14.5566,14.5566,14.5566,14.5566,14.5566,14.5566,14.5566,14.5566,14.5566,14.5566,14.5566,14.5566,14.5566,14.5566,14.5566,14.5566,14.5566,14.5566,14.5566,14.5566,14.5566,14.5566,14.5566,14.5566,14.5566,14.5566,14.5566,14.5566,14.5566,14.5566,14.5566,14.5566,14.5566,14.5566,14.5566,14.5566,14.6205,14.7926,15.2228,15.5181,15.5417,15.9557,16.1688,16.0286,16.0176,16.139,16.4254,16.4476,16.4476,16.4476,16.4476,16.4476,16.4476,16.4476,16.4476,16.4476,16.4476,16.4476,16.4476,16.4476,16.4476,8.6592,0.0,9.4812,9.3728,9.2311,9.0798,0.0,8.7637,8.6125,8.4516,8.5466,8.7172,8.9187,9.2506,9.6601,10.1641,10.5771,11.1098,11.9125,12.8083,13.5354,13.9394,14.2483,14.3996,14.3356,14.2334,14.1054,13.9458,13.8379,13.7797,13.7797,13.8786,13.9458,13.9748,14.1727,14.2857,14.3206,14.3497,14.417,14.5159,14.545,14.5566,14.5566,14.5566,14.5566,14.5566,14.5566,14.5566,14.5566,14.5566,14.5566,14.5566,14.5566,14.5566,14.5566,14.5566,14.5566,14.5566,14.5566,14.5566,14.5566,14.5566,14.5566,14.5566,14.5566,14.5566,14.5566,14.5566,14.5566,14.5566,14.5566,14.5566,14.5566,14.5566,14.5566,14.5566,14.5566,14.5566,14.5566,14.5566,14.5566,14.5566,14.5566,14.5566,14.5566,14.5566,14.6238,14.7536,14.9924,15.3717,15.7107,15.9501,16.2623,16.4476,16.4476,16.4476,16.4476,16.4476,16.4476,16.4476,16.4476,16.4476,16.4476,16.4476,16.4476,16.4476,16.4476,16.4476,16.4476,16.4476,16.4476,16.4476,0.0,10.4036,10.5199,10.8539,10.4875,9.9849,9.7385,9.2173,0.0,8.471,8.6183,8.7948,8.8123,9.0391,9.386,9.8977,10.0117,10.4676,11.7179,12.0638,12.5117,13.3667,13.7945,13.9193,13.6835,13.9684,14.0673,13.8146,13.7855,13.7797,13.7797,13.7913,13.8495,13.9748,13.9923,14.0589,14.1836,14.3032,14.3672,14.3788,14.4985,14.5566,14.5566,14.5566,14.5566,0.0,14.5566,14.5566,14.5566,14.5566,14.5566,14.5566,14.5566,14.5566,14.5566,14.5566,14.5566,14.5566,14.5566,14.5566,14.5566,14.5566,14.5566,14.5566,14.5566,14.5566,14.5566,14.5566,14.5566,14.5566,14.5566,14.5566,14.5566,14.5566,14.5566,14.5566,14.5566,14.5566,14.5566,14.5566,14.5566,14.5566,14.5566,14.5566,14.5566,14.5566,14.806,14.9987,15.0239,15.5682,15.9529,15.9788,16.2623,16.4476,16.4476,16.4476,16.4476,16.4476,16.4476,16.4476,16.4476,16.4476,16.4476,16.4476,16.4476,16.4476,16.4476,16.4476,16.4476,16.4476,16.4476,16.4476,10.4967,10.883,11.2262,11.1215,10.8622,10.5015,9.9943,9.5742,9.148,8.6416,8.6823,8.8085,8.8085,9.0217,9.3881,9.9814,10.1443,10.6154,11.8311,12.2413,12.724,13.547,13.9135,14.0938,14.0763,13.9833,13.9193,13.9018,13.8262,13.7797,13.7797,13.7797,13.803,13.8553,13.8553,13.9193,14.0473,14.1028,14.1636,14.245,14.373,14.4403,14.4403,14.5217,14.5566,14.5566,14.5566,14.5566,0.0,14.5566,14.5566,14.5566,14.5566,14.5566,14.5566,14.5566,14.5566,14.5566,14.5566,14.5566,14.5566,14.5566,14.5566,14.5566,14.5566,14.5566,14.5566,14.5566,14.5566,14.5566,14.5566,14.5566,14.5566,14.5566,14.5566,14.5566,14.5566,14.5566,14.5566,14.5566,14.5566,14.5566,14.5566,14.5566,14.5566,14.5566,14.8254,15.0991,15.3054,15.7112,16.0506,16.2516,16.3719,16.4476,16.4476,16.4476,16.4476,16.4476,16.4476,16.4476,16.4476,16.4476,16.4476,16.4476,16.4476,16.4476,16.4476,16.4476,16.4476,16.4476,16.4476,16.4476,11.1596,11.5519,11.892,11.7465,11.5255,11.1557,10.4293,9.9721,9.495,8.7637,8.7114,8.8085,8.8085,9.0217,9.3743,9.9326,10.2048,10.7458,11.9067,12.3983,12.8926,13.5819,13.8611,14.0414,14.1694,14.0124,13.9077,13.9135,13.832,13.7797,13.7797,13.7797,13.7797,13.7797,13.7797,13.8262,13.9167,13.9574,14.0182,14.1112,14.2392,14.3032,14.309,14.4403,14.4752,14.4403,14.481,14.4752,14.4403,14.481,14.4985,14.4985,14.545,14.5566,14.5566,14.5566,14.5566,14.5566,14.5566,14.5566,14.5566,14.5566,14.5566,14.5566,14.5566,14.5566,14.5566,14.5566,14.5566,14.5566,14.5566,14.5566,14.5566,14.5566,14.5566,14.5566,14.5566,14.5566,14.5566,14.5566,14.5566,14.5566,14.5566,14.5566,14.5907,14.691,14.9763,15.2962,15.6184,15.9306,16.2076,16.4202,16.4476,16.4476,16.4476,16.4476,16.4476,16.4476,16.4476,16.4476,16.4476,16.4476,16.4476,16.4476,16.4476,16.4476,16.4476,16.4041,16.4041,16.441,16.3976,16.4041,12.2792,12.5379,12.5407,12.9246,12.6425,12.0344,11.1324,10.4235,9.7058,8.8044,8.7192,8.8085,8.8064,9.0217,9.322,9.7014,10.0896,10.7541,11.9067,12.3983,12.8315,13.3551,13.5327,13.6607,13.7739,14.0208,14.0615,13.803,13.7797,0.0,13.7797,13.7797,13.7797,13.7797,13.7797,13.7797,13.7797,13.9077,13.9748,13.9748,14.1054,14.1662,14.172,14.3032,14.2916,14.1778,14.309,14.2916,0.0,14.309,14.3614,14.3763,14.5043,14.5566,14.5566,14.5566,14.5566,14.5566,14.5566,14.5566,14.5566,14.5566,14.5566,14.5566,14.5566,14.5566,14.5566,14.5566,14.5566,14.5566,14.5566,14.5566,14.5566,14.5566,14.5566,14.5566,14.5566,14.5566,14.5566,14.5566,14.56,14.5633,14.5633,14.5666,14.6739,14.9858,15.3083,15.6296,15.9389,16.2478,16.4476,16.4476,16.4476,16.4476,16.4476,16.4476,16.4476,16.4476,16.441,16.441,16.441,16.441,16.441,16.441,16.441,16.441,16.441,16.3015,16.3015,16.441,16.3015,16.3055,11.9358,12.3953,12.8811,12.9944,12.8374,12.3779,11.2934,10.6944,10.0838,9.0873,8.8451,8.8355,8.9265,9.1554,9.4521,9.8315,10.3769,11.0276,11.8226,12.5,13.0701,13.4978,13.8204,13.9833,13.9251,14.152,14.1985,13.9399,13.832,13.7797,13.7797,13.7797,13.7797,13.7797,13.7797,13.7797,13.7797,13.8204,13.8379,13.8379,13.9716,14.0356,14.0356,14.1694,14.2069,14.172,14.2127,14.2069,0.0,14.2127,14.2301,14.2418,14.373,14.4228,14.4345,14.5276,14.5566,14.5566,14.5566,14.5566,14.5566,14.5566,14.5566,14.5566,14.5566,14.5566,14.5566,14.5566,14.5566,14.5566,14.5566,14.5566,14.5566,14.5566,14.5566,14.5566,14.5566,14.5566,14.5566,14.5566,14.74,14.8869,14.8869,15.0801,15.2596,15.3569,15.6417,15.8709,15.964,16.2478,16.4476,16.4476,16.4476,16.4476,16.4476,16.4476,16.4476,16.4476,16.3515,16.2949,16.2949,16.2003,16.1411,16.1411,16.1411,16.1937,16.2924,16.1503,16.1568,16.2949,16.2489,16.2555,12.212,12.6134,13.0149,12.9595,12.9246,12.5756,11.3167,10.8107,10.3071,9.221,8.8975,8.8937,9.1787,9.3997,9.7116,10.2548,10.7492,11.3309,12.0785,12.6687,13.1894,13.6258,13.9251,14.0589,13.9865,14.1636,14.1985,13.9923,13.8553,13.7797,13.7797,13.7797,13.7797,13.7797,13.7797,13.7797,13.7797,13.7797,13.7797,13.7797,13.8611,13.896,13.9018,14.0356,14.0647,14.0208,14.0705,14.0647,0.0,14.0705,14.0938,14.1112,14.2916,14.3614,14.3788,14.5101,14.5566,14.5566,14.5566,14.5566,14.5566,14.5566,14.5566,14.5508,14.4985,14.5159,14.545,14.4985,14.5159,14.5566,14.5566,14.5566,14.5566,14.5566,14.5566,14.5566,14.5566,14.5566,14.594,14.7204,14.8965,15.0678,15.1982,15.3841,15.5538,15.6766,15.8603,16.0231,16.1471,16.3324,16.4476,16.4476,16.3976,16.3581,16.3581,16.3581,16.3581,16.3581,16.2266,16.1437,16.1437,16.0622,16.0162,16.0162,16.0162,16.0622,16.1437,16.0622,16.0648,16.1437,16.1437,16.1437,12.8025,12.9916,12.9944,12.8752,12.9246,12.6483,11.272,10.8389,10.406,9.2675,8.9207,8.9772,9.4877,9.7174,10.0757,10.8331,11.2262,11.7295,12.5699,12.9246,13.262,13.7273,13.8992,13.9748,13.9748,14.0938,14.1171,13.9865,13.8669,13.7913,13.7681,13.7681,13.7681,13.7797,13.7797,13.7797,13.7797,13.7797,13.7797,13.7797,13.7797,13.7797,13.7855,13.905,13.8934,13.7913,13.905,13.8902,0.0,13.9077,13.9574,13.9865,14.2367,14.3297,14.3439,14.4868,14.5392,14.545,14.5566,14.5566,14.5566,14.5566,14.5508,14.5217,14.417,14.4577,14.5159,14.3963,14.4519,14.5392,14.5392,14.5508,14.5566,14.5566,14.5566,14.5566,14.5566,14.5566,14.641,14.9315,15.0271,15.1674,15.462,15.5597,15.6939,15.9815,16.0102,16.1061,16.3901,16.4147,16.4081,16.4213,16.3187,16.2423,16.2292,16.2292,16.2292,16.2292,16.0845,16.0031,16.0162,15.9899,15.9768,15.9768,15.9768,15.9833,15.9965,15.9833,15.9833,15.9965,15.9965,15.9965,12.4447,12.7182,13.0207,12.9886,12.9246,12.5815,11.4679,10.9644,10.4608,9.4986,9.1205,9.0836,9.503,10.0128,10.5548,11.1247,11.9389,12.6396,13.0381,13.3958,13.6575,13.7681,13.8992,13.9748,13.9748,14.0938,14.1171,13.9865,13.9516,13.8527,13.6549,13.6432,13.6898,13.7797,13.7797,13.7797,13.7797,13.7797,13.7797,13.7797,13.7797,13.7797,13.7797,13.8088,13.8088,13.7855,13.8088,13.8088,13.7855,13.8146,13.8204,13.8379,13.9981,14.0621,14.0912,14.3206,14.4021,14.4228,14.5217,14.5566,14.5566,14.5566,14.4868,14.4228,14.4926,14.4636,14.3963,14.373,14.3846,14.4021,14.4021,14.481,14.5566,14.5566,14.5566,14.5566,14.5566,14.5566,14.5799,14.6443,15.0645,15.4321,15.5006,15.9194,16.2703,16.3351,16.2502,16.2016,16.2675,16.1806,16.1543,16.262,16.3515,16.3515,16.2423,16.2292,16.2292,16.2292,15.9859,15.9004,16.0096,15.8017,15.6834,15.6834,15.6834,15.736,15.8503,15.736,15.736,15.8503,15.8503,15.8503,12.5524,12.7269,12.913,12.8519,12.8781,12.6687,11.7005,11.2785,10.8564,10.0186,9.495,9.3067,9.6928,10.2862,10.8913,11.4007,12.2355,12.9421,13.265,13.4772,13.6517,13.7681,13.8437,13.8844,13.8844,14.0007,14.024,13.8902,13.8844,13.7971,13.6141,13.6083,13.6285,13.6835,13.7475,13.7797,13.7797,13.7797,13.7797,13.7797,13.7797,13.7797,13.7797,13.7797,13.7797,13.7797,13.7797,13.7797,13.7797,13.7797,13.7797,13.7971,13.9283,13.9748,13.9981,14.1985,14.2741,14.2799,14.3497,14.373,14.373,14.373,14.3672,14.3705,14.373,14.3672,14.3497,14.2916,14.2741,14.2741,14.2741,14.3206,14.3846,14.4519,14.4694,14.481,14.545,14.5566,14.6006,14.7536,15.1735,15.5597,15.7084,16.1309,16.4476,16.4476,16.3187,16.2292,16.2292,15.9859,15.8412,15.9135,16.0516,16.1042,16.0344,16.0278,16.0278,16.0278,15.824,15.7294,15.8083,15.6702,15.5913,15.5913,15.5913,15.6242,15.699,15.699,15.699,15.7056,15.7713,15.7648,12.7356,12.8112,12.8054,12.692,12.8112,12.7443,11.9327,11.6159,11.296,10.612,10.0186,9.7335,10.0838,10.7051,11.307,11.7756,12.5117,13.134,13.4365,13.4947,13.5761,13.7622,13.7797,13.7797,13.7797,13.8786,13.896,13.7913,13.7622,13.7099,13.6141,13.585,13.5645,13.5556,13.6602,13.7273,13.7506,13.7739,13.7797,13.7797,13.7797,13.7797,13.7797,13.7797,13.7797,13.7797,13.7797,0.0,13.7797,13.7797,13.8143,13.8734,13.9788,14.0576,14.1102,14.1821,14.2124,14.2118,14.1798,14.172,14.1759,14.2048,14.3244,14.4243,14.2902,14.306,14.3631,14.3062,14.2513,14.2124,14.2124,14.23,14.2606,14.3163,14.3323,14.3614,14.4694,14.5101,14.6216,14.9245,15.2503,15.5658,15.852,16.1629,16.3713,16.3713,16.2463,16.1594,16.1594,15.8478,15.6242,15.6242,15.7582,15.8305,15.8042,15.8042,15.8042,15.8042,15.6727,15.5979,15.6242,15.6045,15.5913,15.5913,15.5913,15.5913,15.5913,15.7056,15.7056,15.5913,15.7122,15.7056,12.503,12.7472,12.8228,12.8054,12.7472,12.5728,12.1219,11.7439,11.3949,11.0633,10.7633,10.6353,10.9004,11.572,12.1829,12.4623,13.2504,13.8061,13.739,13.832,13.8701,13.7913,13.7797,13.7797,13.7797,13.7971,13.803,13.7855,13.6898,13.6258,13.6083,13.5005,13.4365,13.4365,13.454,13.5179,13.6258,13.7332,13.7797,13.7797,13.7797,13.7797,13.7797,13.7797,13.7797,13.7797,13.7797,13.7797,13.7797,13.7797,13.9398,14.187,14.193,14.3627,14.5815,14.4426,14.3938,14.3689,14.2226,14.172,14.1914,14.3404,14.5779,14.7709,14.6053,14.4896,14.4666,14.7107,14.5926,14.3938,14.3938,14.4716,14.4989,14.2548,14.1952,14.2011,14.2185,14.309,14.4803,14.7801,15.0912,15.3728,15.5693,15.8705,16.0754,16.0754,15.953,15.8568,15.8568,15.8108,15.7713,15.7713,15.9004,15.9398,15.8108,15.8042,15.8042,15.8042,15.6727,15.6439,15.7713,15.6571,15.5913,15.5913,15.5913,15.5913,15.5913,15.611,15.611,15.5913,15.611,15.6045,12.1599,12.4128,12.5466,12.6833,12.6774,12.5931,12.4274,12.1948,11.93,11.6016,11.3309,11.168,11.2029,11.7846,12.3458,12.596,13.2736,13.7712,13.7797,13.832,13.8437,13.7913,13.7797,0.0,13.7797,13.7797,13.7797,13.7797,13.7332,13.6781,13.6083,13.5559,13.521,13.521,13.4481,13.4714,13.6025,13.6607,13.7157,13.7797,13.7797,13.7797,13.7797,13.7797,13.7797,13.7797,0.0,13.7797,13.7797,13.7797,13.8617,13.9892,13.9802,14.169,14.4323,14.3428,14.4232,14.5673,14.4932,14.4696,14.4785,14.5533,14.7113,14.8596,14.7917,14.7261,14.7001,14.8358,14.7318,14.5754,14.5754,14.4895,14.3912,14.3306,14.1845,14.0822,14.1545,14.2159,14.2931,14.4264,14.8481,15.2597,15.5056,15.812,16.0162,16.0162,15.8938,15.7713,15.6924,15.7516,15.7713,15.6924,15.8083,15.8346,15.699,15.6858,15.6858,15.6858,15.6242,15.6176,15.6793,15.6242,15.5913,15.5913,15.5913,15.5913,15.5913,15.5913,15.5913,15.5913,15.5913,15.5913,11.709,11.9649,12.1422,12.4623,12.5437,12.5437,12.5437,12.4651,12.3139,12.0347,11.8486,11.7031,11.6074,12.0638,12.5203,12.7065,13.2504,13.6692,13.7273,13.7913,13.8204,13.7855,0.0,13.7797,13.7797,13.7797,0.0,13.7797,13.7797,13.7448,13.6549,13.6199,13.6083,13.6083,13.4772,13.4598,13.5559,13.5559,13.5994,13.6866,13.7215,13.739,13.739,13.7681,13.7797,13.7797,13.7797,13.7797,13.7797,13.7797,13.83,13.9116,13.9832,14.202,14.4784,14.4693,14.6091,14.8193,14.8996,14.9268,14.9132,14.8331,14.9215,15.0447,14.9727,14.9504,14.9553,15.0301,14.936,14.8083,14.8083,14.6436,14.4797,14.4923,14.264,14.0635,14.1691,14.1517,14.1229,14.1229,14.5627,14.9999,15.222,15.5559,15.8222,15.8944,15.8149,15.7253,15.6505,15.7689,15.8042,15.6571,15.7713,15.8149,15.7097,15.6636,15.6571,15.6965,15.6308,15.6045,15.6439,15.611,15.5913,15.5913,15.5913,15.5716,15.5387,15.5716,15.5716,15.5387,15.5716,15.5913,11.0931,11.4271,11.6508,12.1596,12.2818,12.2818,12.2818,12.2788,12.2702,12.2469,12.3225,12.3895,12.3837,12.7123,12.9916,13.0032,13.4365,13.7332,13.6316,13.8178,13.9225,0.0,0.0,0.0,0.0,0.0,0.0,13.7797,13.7797,13.7797,13.7739,13.6665,13.6083,13.6083,13.4772,13.4132,13.4249,13.4249,13.4249,13.4307,13.5559,13.6141,13.6199,13.7332,13.7797,13.7797,13.7797,13.7797,13.7797,13.7797,13.9552,14.2497,14.5355,14.8304,15.0968,15.0968,15.1074,15.1574,15.445,15.5453,15.4966,15.2134,15.3168,15.4981,15.2185,15.1307,15.1886,15.4731,15.3423,15.1206,15.1206,15.11,15.0239,14.7452,14.4407,14.22,14.244,14.1105,13.9865,13.9865,14.2464,14.4637,14.4788,14.8724,15.2859,15.5675,15.6045,15.6464,15.7779,15.9201,15.953,15.8042,15.9201,16.0031,15.9965,15.8675,15.8503,15.9833,15.7426,15.6505,15.7845,15.6595,15.5913,15.5913,15.5913,15.5256,15.385,15.5256,15.519,15.3916,15.5256,15.5913,10.6852,10.9644,11.1473,11.7407,11.892,11.9327,12.1014,12.1422,12.1422,12.1422,12.3023,12.4419,12.4419,12.6251,12.8548,13.108,13.2301,13.3376,13.4656,13.6316,13.7188,13.6781,13.7332,13.7797,0.0,0.0,13.7797,13.7797,13.7797,13.7797,13.7797,13.7448,13.7157,13.7157,13.6025,13.5385,13.5385,13.5385,13.4978,13.4132,13.4598,13.483,13.483,13.5238,13.547,13.547,13.6343,13.6692,13.6781,13.7506,13.9645,14.2557,14.3709,14.7083,15.1416,15.1416,15.2665,15.445,15.5527,15.6505,15.7104,15.6022,15.6415,15.6882,15.4927,15.43,15.4501,15.5577,15.5115,15.43,15.43,15.2897,15.1153,15.0078,14.7529,14.478,14.2884,14.1959,14.0912,13.8938,14.0945,14.3637,14.5599,14.9002,15.2742,15.6659,15.8017,15.8872,15.9333,16.0648,16.0977,15.9596,16.0714,16.1174,16.0228,15.9727,15.9661,16.0162,15.9242,15.8083,15.6727,15.6176,15.4993,15.3175,15.3175,15.2912,15.2362,15.2912,15.2912,15.2362,15.2912,15.3175,9.9872,10.3071,10.6096,11.2113,11.4906,11.6767,11.892,12.0084,12.0463,11.9591,12.1771,12.3807,12.3807,12.4884,12.6658,12.9712,13.0265,13.0847,13.2562,13.4338,13.5559,13.6025,13.6781,0.0,0.0,0.0,13.739,13.7797,13.7797,13.7797,13.7797,13.7797,13.7797,13.7797,13.7041,13.649,13.6083,13.6083,13.5443,13.4132,13.3667,13.3667,13.4132,13.4132,13.4132,13.4191,13.5005,13.5443,13.5505,13.7286,13.9261,14.1289,14.3292,14.6457,15.0085,15.1079,15.3352,15.5913,15.5913,15.653,15.7319,15.7319,15.7319,15.7122,15.6176,15.5913,15.5782,15.5321,15.519,15.519,15.519,15.3683,15.2341,15.2794,15.0676,14.789,14.5898,14.3882,14.22,14.1116,14.169,14.3354,14.6436,14.9865,15.3125,15.6062,15.8647,16.0359,16.0845,16.216,16.2489,16.1017,16.216,16.2661,16.1674,16.1148,16.1083,16.1609,16.0253,15.8807,15.7426,15.5979,15.4269,15.2362,15.186,15.14,15.0939,15.14,15.14,15.0939,15.14,15.186,9.0059,9.4536,10.0431,10.5747,11.0749,11.4763,11.6186,11.8455,11.9591,11.7233,11.9793,12.2439,12.2497,12.3458,12.4709,12.599,12.8374,13.0032,13.0149,13.2387,13.4481,13.5792,13.5967,13.649,0.0,13.6665,13.649,13.7681,13.7797,13.7797,13.7797,13.7797,13.7797,13.7797,13.7797,13.7273,13.6141,13.6141,13.5501,13.4191,13.2883,13.2941,13.4132,13.4132,13.4132,13.4074,13.4132,13.4132,13.4261,13.712,13.8405,13.9096,14.4871,14.7215,14.7674,15.0593,15.3438,15.5847,15.5847,15.5913,15.5979,15.5979,15.5979,15.5979,15.5913,15.5913,15.5584,15.4179,15.3785,15.3785,15.3785,15.3785,15.4113,15.5519,15.3613,15.1521,15.1416,14.6858,14.356,14.6408,14.461,14.3592,14.6639,15.0733,15.3637,15.3743,15.7417,16.0688,16.2029,16.345,16.3844,16.2423,16.3581,16.4476,16.4476,16.3121,16.2884,16.4278,16.045,15.87,15.9965,15.602,15.3785,15.3719,15.2296,15.0939,14.9535,15.0939,15.0939,14.96,15.1005,15.2362,9.202,9.202,9.2892,9.9908,10.2757,10.4618,10.7783,10.9819,11.1855,11.4821,11.6275,11.7322,11.828,11.9474,12.1045,12.3313,12.4273,12.5727,12.8432,13.0235,13.1778,13.3058,13.4105,13.4772,13.5121,13.483,13.521,13.649,13.6549,13.6924,13.7797,13.7797,13.7797,13.7797,13.7797,13.7681,13.7332,13.7332,13.6692,13.5559,13.5152,13.4687,13.4132,13.4132,13.364,13.2767,13.3725,13.3551,13.2858,13.4582,13.7765,14.1917,14.4558,14.8181,15.1892,15.1728,15.2757,15.4508,15.5519,15.6595,15.745,15.745,15.745,15.7253,15.6176,15.5913,15.5847,15.5387,15.4574,15.3785,15.3785,15.3785,15.385,15.4245,15.4494,15.4098,15.1926,14.9316,14.7337,14.7008,14.6266,14.7,15.1023,15.3613,15.5843,15.8,15.9378,16.0294,16.0714,16.1083,16.1609,16.2226,16.3581,16.4476,16.4476,16.3121,16.2489,16.2884,16.0845,15.8807,15.7163,15.5913,15.4335,15.2231,15.1794,15.14,15.1005,15.14,15.14,15.1071,15.1465,15.186,8.5176,8.4569,8.5549,9.1809,9.4937,9.8207,10.4725,10.5989,10.7346,11.2711,11.3538,11.3832,11.5662,11.6624,11.7993,0.0,12.1945,12.34,12.564,12.7501,12.9305,13.1138,13.105,13.131,13.2387,13.2504,13.326,13.5121,13.5238,13.5792,13.7041,13.7099,13.7332,13.7797,13.7797,13.7797,13.7797,13.7797,13.7448,13.6781,13.6316,13.5676,13.4889,13.4365,13.3725,13.3058,13.3783,13.3667,13.327,13.6498,13.9811,14.3171,14.646,14.9874,15.2888,15.3283,15.394,15.4795,15.5584,15.6464,15.7122,15.7122,15.7122,15.699,15.611,15.5913,15.5782,15.519,15.4376,15.3785,15.3785,15.3785,15.3916,15.4508,15.5321,15.5429,15.3678,15.1646,15.0272,15.0617,14.9674,15.0063,15.388,15.5705,15.7483,15.9803,16.0162,16.0162,16.0162,16.0162,16.0491,16.1305,16.2135,16.2635,16.2635,16.1872,16.1437,16.1437,16.0056,15.828,15.5979,15.5321,15.394,15.1663,15.1597,15.1597,15.1597,15.1597,15.1597,15.1597,15.1597,15.1597,7.3149,7.4434,7.8656,8.28,8.7074,9.2783,0.0,10.2769,10.3051,10.8927,10.9421,10.972,11.266,11.3529,11.4763,11.7644,12.0405,12.2411,12.2993,12.4826,12.6949,12.916,12.7472,12.7065,12.9363,12.9712,13.0875,13.3493,13.3667,13.4307,13.5792,13.585,13.6285,13.739,13.7564,13.7622,13.7622,13.7739,13.7797,13.7797,13.6781,13.6258,13.6199,13.5063,13.454,13.454,13.4423,13.4365,13.4797,14.0152,14.2564,14.3407,14.9126,15.1686,15.2386,15.4951,15.5913,15.5913,15.5913,15.5913,15.5913,15.5913,15.5913,15.5913,15.5913,15.5913,15.565,15.4376,15.385,15.3785,15.3785,15.3785,15.4113,15.5387,15.5782,15.5913,15.5913,15.3675,15.2523,15.5338,15.3729,15.2794,15.565,15.7319,15.8634,15.957,15.9702,15.9702,15.9702,15.9702,15.9768,15.9899,15.9899,15.9965,16.0162,16.0031,15.9899,15.9899,15.8543,15.7253,15.5913,15.4508,15.3151,15.1926,15.1728,15.1597,15.1597,15.1597,15.1597,15.1597,15.1597,15.1531,0.0,0.0,0.0,0.0,0.0,0.0,0.0,8.5976,8.8261,9.4844,9.5941,9.7121,10.1951,10.5253,10.8689,11.3341,11.7121,12.0959,12.503,12.5146,12.4593,12.4156,12.4535,12.5,12.5466,12.6484,12.817,13.0817,13.1021,13.2038,13.4365,13.4481,13.4598,13.483,13.5819,13.6432,13.6432,13.7332,13.7797,13.7797,13.7564,13.7506,13.7448,13.7215,13.7099,13.7041,13.6141,13.5676,13.5927,13.8391,14.0796,14.3342,14.8082,15.2011,15.5124,15.565,15.5913,15.5913,15.5913,15.5913,15.5913,15.5913,15.5913,15.5913,15.5913,15.5913,15.5847,15.5584,15.4639,15.3785,15.3785,15.3785,15.385,15.4113,15.5058,15.5913,15.5913,15.451,15.383,15.5552,15.5429,15.5583,15.7285,15.8807,15.9044,15.7031,15.6702,15.6702,15.6702,15.6702,15.7163,15.8305,15.8437,15.8872,16.0096,15.9135,15.8437,15.8437,15.7097,15.6176,15.5913,15.4508,15.3653,15.3324,15.2189,15.1597,15.1597,15.1597,15.1597,15.1597,15.1597,15.1005,0.0,0.0,0.0,0.0,0.0,0.0,0.0,0.0,0.0,0.0,0.0,8.9468,0.0,0.0,10.476,10.8522,11.4562,11.968,12.221,12.3139,12.3342,12.273,12.3167,12.3516,12.3516,12.4651,12.5931,12.7211,12.7909,12.9421,13.2038,13.2155,13.2795,13.4074,13.4772,13.5094,13.5094,13.5703,13.6285,13.6924,13.6924,13.7273,13.7797,13.7797,13.7797,13.7797,13.7215,13.6924,13.7023,13.7841,14.0889,14.5296,14.9086,15.1859,15.3767,15.3767,15.3767,15.3767,15.3767,15.3767,15.3767,15.3767,15.4269,15.4861,15.4861,15.5321,15.5913,15.5913,15.5387,15.4861,15.4861,15.4861,15.4861,15.4861,15.5387,15.5913,15.5913,15.5321,15.5058,15.5782,15.5913,15.611,15.6858,15.7557,15.7557,15.611,15.5913,15.5913,15.5913,15.5913,15.5321,15.3899,15.5058,15.5584,15.4902,15.5519,15.6176,15.6924,15.565,15.4532,15.3833,15.3086,15.1968,15.0521,15.0521,15.015,14.9361,14.9361,14.9361,14.9361,14.6444,14.5129,0.0,0.0,0.0,0.0,0.0,0.0,0.0,0.0,0.0,0.0,0.0,0.0,0.0,0.0,0.0,10.3624,11.1393,11.7439,11.8924,12.0754,12.1829,12.1566,12.1945,12.2062,12.1538,12.2848,12.3662,12.3662,12.4914,12.6687,12.8985,12.9363,13.0584,13.2911,13.326,13.3493,13.3756,13.4016,13.4656,13.5676,0.0,0.0,13.7099,13.7099,13.7099,13.7099,13.7099,13.7099,13.7099,13.7099,14.0671,14.6475,14.9537,15.1076,15.1597,15.1597,15.1597,15.1597,15.1597,15.1597,15.1597,15.1597,15.2362,15.3349,15.3349,15.4138,0.0,15.5058,15.5058,15.5124,15.5387,15.5519,15.5519,15.5847,15.5913,15.5913,15.5913,15.5913,15.5913,15.5913,15.5913,15.5913,15.5913,15.5453,15.4729,15.394,15.4006,15.4138,15.3809,15.4532,15.3743,15.0258,15.247,15.3193,15.0916,15.1549,15.3127,15.5716,15.3217,15.1047,14.9558,14.9229,14.7585,14.4274,14.4931,14.5195,14.5063,14.48,14.4931,14.526,13.6618,13.4181,0.0,0.0,0.0,0.0,0.0,0.0,0.0,0.0,0.0,0.0,0.0,0.0,0.0,0.0,0.0,0.0,10.5933,11.272,11.9533,11.9765,11.8776,11.764,11.9502,12.0025,11.7698,11.9734,12.1103,12.1103,12.2353,12.3633,12.5,0.0,0.0,0.0,0.0,13.1254,13.239,13.3581,13.4191,13.4365,13.4365,13.4423,13.454,13.454,13.454,13.454,13.454,13.454,13.454,13.454,13.8009,14.36,14.6519,14.9269,15.1597,15.1597,15.1597,15.1597,15.1597,0.0,0.0,15.1597,15.1728,15.186,15.186,15.1992,15.2123,15.2123,15.2123,15.2386,15.3653,15.3982,15.4311,15.5584,15.5913,15.5913,15.5913,15.5913,15.5913,15.5913,15.5913,15.5913,15.5913,15.3743,15.0742,14.6815,14.7299,14.7693,14.6421,14.9666,15.1926,15.14,0.0,0.0,15.519,14.9511,14.8788,15.5453,14.8506,14.3442,14.2038,14.0701,13.8071,13.3753,13.134,13.2656,13.7654,13.6383,13.7085,13.9079,12.0035,11.5569,0.0,0.0,0.0,0.0,0.0,0.0,0.0,0.0,0.0,0.0,0.0,0.0,0.0,0.0,0.0,0.0,10.0789,10.8356,11.238,11.4005,11.5584,11.7592,11.8219,11.7439,11.4795,11.8256,11.9967,11.8563,12.2361,12.4943,12.5492,12.7494,12.853,12.8315,13.1091,13.2163,13.1157,13.3221,13.5059,13.6598,13.6598,13.744,13.8949,13.8949,13.8949,13.8949,13.8949,13.8949,13.8949,13.8949,14.1488,0.0,0.0,0.0,0.0,0.0,14.6533,14.6533,14.6533,14.6533,14.6533,14.6533,14.7125,14.7759,14.7759,14.8351,14.9229,15.015,15.0389,15.0718,15.2165,15.2494,15.2691,15.3307,15.3438,15.3438,15.3438,15.4072,15.4639,15.4639,15.5321,0.0,15.3702,15.3086,15.2231,15.0366,15.131,15.2296,15.2559,15.4228,15.4359,15.186,15.4228,15.4861,15.2362,15.0126,0.0,0.0,0.0,14.7322,14.5918,14.4405,0.0,0.0,0.0,12.6013,12.5007,12.0272,0.0,0.0,10.9537,10.7484,0.0,0.0,0.0,0.0,0.0,0.0,0.0,0.0,0.0,0.0,0.0,0.0,0.0,0.0,0.0,0.0,0.0,10.0764,10.2403,10.7278,11.1431,11.3337,11.5151,11.4893,11.1605,11.5896,11.8384,11.7227,12.1709,12.4837,12.5778,12.7534,12.8584,12.8795,13.1314,13.1849,13.0338,13.2562,13.4724,13.6684,13.7083,13.8288,14.0239,14.0239,14.0239,14.0239,14.0239,14.0239,14.0239,14.0239,14.2057,14.4385,14.0258,13.9881,14.1732,14.1732,14.1732,14.1732,14.1732,14.1732,14.1732,14.1732,14.2433,14.3265,14.3265,14.4251,14.5589,14.6773,14.7365,14.8022,14.9403,14.9821,15.0018,15.0873,15.1071,15.1137,15.1531,15.2428,15.3193,15.3193,15.3349,15.2823,15.0742,15.0916,15.1352,15.1352,15.2231,0.0,15.4885,15.6135,15.5806,15.311,15.4664,15.4664,15.1507,14.9624,14.9929,15.302,14.9558,14.7848,14.8811,14.5063,14.0854,13.6296,12.7617,12.0469,0.0,0.0,0.0,0.0,0.0,0.0,0.0,0.0,0.0,0.0,0.0,0.0,0.0,0.0,0.0,0.0,0.0,0.0,0.0,0.0,0.0,0.0,0.0,0.0,9.0541,10.0475,10.5834,10.1575,10.9052,11.2594,10.7604,11.1665,11.5606,11.783,11.9321,12.1398,12.4309,12.4337,12.6064,13.0032,12.8978,12.8841,13.0054,13.1532,13.2315,13.2377,13.3794,13.4502,13.4564,13.4564,13.4564,13.4564,13.4564,13.4564,13.4564,13.4564,13.6287,13.8871,13.8711,13.8641,13.8728,13.8728,13.8728,13.8728,13.8728,13.8728,13.8728,13.8728,13.8794,13.8794,13.8794,13.978,14.092,14.0986,14.1995,14.3442,14.4843,14.5237,14.5961,14.8877,14.9535,14.9929,15.1334,15.1663,15.1663,15.1663,14.9361,14.7365,14.7299,14.6181,14.5303,14.5303,14.5303,0.0,14.7299,15.1244,15.4376,15.565,15.5847,15.5847,15.5716,14.6707,14.4099,15.1202,14.2389,14.0022,14.6904,13.7698,13.1714,13.0181,12.1587,11.4946,11.0606,0.0,0.0,0.0,0.0,0.0,0.0,0.0,0.0,0.0,0.0,0.0,0.0,0.0,0.0,0.0,0.0,0.0,0.0,0.0,0.0,0.0,0.0,0.0,0.0,0.0,9.9324,10.0397,10.2212,10.1421,9.6434,10.3271,10.8018,10.793,11.684,12.2336,12.2457,12.5028,12.6313,12.5998,13.0008,13.1573,13.0158,13.4309,13.6451,13.6451,13.6903,13.7161,13.7161,13.7161,13.7161,13.7161,13.7161,13.7161,13.7161,13.7161,13.5421,13.2818,13.2803,13.2811,13.2811,13.2811,13.2811,13.2811,13.2811,13.2811,13.2811,13.2811,13.2811,13.2811,13.2811,13.3797,13.5133,13.6186,13.7501,13.9167,14.1578,14.217,14.2696,14.4625,14.5086,14.5217,14.5678,14.6575,14.7233,14.7233,14.2564,13.8027,13.6033,14.0065,14.2959,14.103,14.5721,15.0916,15.5256,15.7072,15.819,15.865,15.7886,15.6505,15.4639,14.96,14.7102,14.8572,14.4537,14.2367,14.2893,13.8663,13.5244,13.2877,12.7946,11.7642,10.1744,0.0,0.0,0.0,0.0,0.0,0.0,0.0,0.0,0.0,0.0,0.0,0.0,0.0,0.0,0.0,0.0,0.0,0.0,0.0,0.0,0.0,0.0,0.0,0.0,0.0,0.0,9.678,9.7137,0.0,8.9481,9.4868,9.8669,9.8598,10.7785,11.4597,11.741,12.0579,12.2959,12.4401,12.8827,13.0328,12.8578,13.2661,13.4981,13.5507,13.5967,13.6822,13.783,13.783,13.7545,13.715,13.8137,13.7413,13.5441,13.4389,13.051,12.5184,12.4658,12.3212,12.1653,12.3672,12.4441,12.4836,12.742,12.8669,12.8998,12.8472,12.6565,12.4244,12.3212,12.2837,12.3185,12.5204,12.7966,13.1209,13.5068,13.6843,13.8093,14.0087,14.0548,14.0745,14.1249,14.1315,14.1054,14.0673,13.6868,13.26,12.9087,13.3554,13.7279,13.6403,14.2367,14.96,15.6941,15.8807,15.9596,16.0096,15.8412,15.6135,15.3217,15.0324,14.7759,14.5721,14.3814,14.1884,14.0065,13.7545,13.4147,12.9741,12.4724,11.3744,0.0,0.0,0.0,0.0,0.0,0.0,0.0,0.0,0.0,0.0,0.0,0.0,0.0,0.0,0.0,0.0,0.0,0.0,0.0,0.0,0.0,0.0,0.0,0.0,0.0,0.0,0.0,9.0411,9.3256,0.0,0.0,0.0,0.0,8.9844,9.2917,9.8951,10.8699,11.0623,11.549,12.4218,12.4678,12.5007,12.5335,12.6934,12.8381,12.9655,13.1122,13.3226,13.5878,13.601,13.5286,13.4147,13.6887,13.4915,12.9458,12.6125,12.1324,11.5998,11.4336,11.0294,10.6086,11.1658,11.3732,11.4893,12.202,12.5592,12.6619,12.4961,11.9727,11.3547,11.0391,10.7549,0.0,0.0,11.3804,11.9624,12.5566,12.9145,13.2043,13.5352,13.6141,13.6514,13.7874,13.6033,13.3546,0.0,13.1407,12.9799,12.492,0.0,12.7666,13.0239,13.5,14.1885,15.2009,15.6045,15.8568,15.9899,15.7491,15.4598,15.1728,14.8703,14.5744,14.285,14.0065,13.84,13.8202,13.3753,12.79,12.0686,11.1969,0.0,0.0,0.0,0.0,0.0,0.0,0.0,0.0,0.0,0.0,0.0,0.0,0.0,0.0,0.0,0.0,0.0,0.0,0.0,0.0,0.0,0.0,0.0,0.0,0.0,0.0,7.5297,8.1016,8.543,8.2533,7.8499,0.0,0.0,0.0,0.0,0.0,0.0,9.2551,9.5102,10.0479,10.9225,11.2644,11.6918,12.233,12.5947,12.7394,12.6696,12.8118,12.8644,12.836,12.9433,12.9762,12.9433,13.0156,12.963,12.746,11.6966,11.0588,10.6792,10.2041,9.8358,9.6088,9.9098,10.1154,10.3074,10.7838,11.2418,11.5229,10.9599,10.7301,10.5394,9.8127,0.0,0.0,0.0,0.0,10.7635,11.6839,11.9919,12.2574,12.9787,13.1562,13.1628,13.2022,13.1496,12.8261,0.0,11.5451,11.0741,10.0378,0.0,0.0,0.0,0.0,13.661,14.6075,15.3546,15.8174,15.8568,15.6045,15.3127,15.0258,14.627,14.2718,13.9846,13.8027,13.5528,13.2219,12.5862,11.8497,11.0163,0.0,0.0,0.0,0.0,0.0,0.0,0.0,0.0,0.0,0.0,0.0,0.0,0.0,0.0,0.0,0.0,0.0,0.0,0.0,0.0,0.0,0.0,0.0,0.0,0.0,0.0,0.0,6.7196,7.3162,7.8129,7.4339,6.9775,0.0,0.0,0.0,0.0,0.0,0.0,0.0,0.0,0.0,9.5137,9.8375,10.3191,10.9834,11.4832,11.7839,11.8957,12.2311,12.4218,12.4658,12.5467,12.5862,12.5796,12.5158,12.2001,11.674,10.8681,10.1449,9.4874,0.0,0.0,0.0,0.0,8.8139,9.0082,9.5459,10.0242,10.2911,9.6991,0.0,0.0,0.0,0.0,0.0,0.0,0.0,9.8028,0.0,0.0,11.922,12.4809,12.6125,12.6236,12.6894,12.0154,11.1955,0.0,10.2066,9.7325,8.712,0.0,0.0,0.0,0.0,12.7982,13.7214,14.8219,15.5214,15.5214,15.3743,15.1376,14.7825,14.526,14.1775,13.7019,13.5331,13.1385,12.4395,11.7247,10.826,0.0,0.0,0.0,0.0,0.0,0.0,0.0,0.0,0.0,0.0,0.0,0.0,0.0,0.0,0.0,0.0,0.0,0.0,0.0,0.0,0.0,0.0,0.0,0.0,0.0,0.0,0.0,0.0,0.0,6.6908,7.0263,0.0,0.0,0.0,0.0,0.0,0.0,0.0,0.0,0.0,0.0,0.0,0.0,0.0,8.696,9.2902,9.8375,10.3109,10.7055,11.2636,11.6707,11.9323,11.952,11.9915,12.031,11.73,0.0,10.2846,9.9164,0.0,0.0,0.0,0.0,0.0,0.0,0.0,0.0,0.0,0.0,0.0,0.0,0.0,0.0,0.0,0.0,0.0,0.0,0.0,0.0,0.0,0.0,11.6043,11.779,11.9052,11.9581,0.0,10.4889,9.2372,9.1422,9.0174,0.0,0.0,0.0,0.0,0.0,0.0,0.0,12.7733,14.2018,15.14,15.1597,15.1465,14.96,14.5369,14.4514,14.1227,13.4476,13.0925,12.4941,11.5537,10.8238,0.0,0.0,0.0,0.0,0.0,0.0,0.0,0.0,0.0,0.0,0.0,0.0,0.0,0.0,0.0,0.0,0.0,0.0,0.0,0.0,0.0,0.0,0.0,0.0,0.0,0.0,0.0,0.0,0.0,0.0,0.0,0.0,0.0,0.0,0.0,0.0,0.0,0.0,0.0,0.0,0.0,0.0,0.0,0.0,0.0,0.0,0.0,0.0,0.0,0.0,9.3104,9.5986,9.766,9.8887,10.1454,10.4172,9.3024,9.2125,9.7404,8.2816,0.0,0.0,0.0,0.0,0.0,0.0,0.0,0.0,0.0,0.0,0.0,0.0,0.0,0.0,0.0,0.0,0.0,0.0,0.0,0.0,0.0,0.0,0.0,0.0,10.7223,10.8548,9.5829,0.0,0.0,0.0,0.0,0.0,0.0,0.0,0.0,0.0,0.0,0.0,12.2855,13.9137,15.0347,15.1465,15.0545,14.8548,14.5303,14.1753,13.7611,13.27,12.093,11.1789,0.0,0.0,0.0,0.0,0.0,0.0,0.0,0.0,0.0,0.0,0.0,0.0,0.0,0.0,0.0,0.0,0.0,0.0,0.0,0.0,0.0,0.0,0.0,0.0,0.0,0.0,0.0,0.0,0.0,0.0,0.0,0.0,0.0,0.0,0.0,0.0,0.0,0.0,0.0,0.0,0.0,0.0,0.0,0.0,0.0,0.0,0.0,0.0,0.0,0.0,0.0,0.0,0.0,0.0,0.0,0.0,0.0,0.0,0.0,7.5382,0.0,0.0,0.0,0.0,0.0,0.0,0.0,0.0,0.0,0.0,0.0,0.0,0.0,0.0,0.0,0.0,0.0,0.0,0.0,0.0,0.0,0.0,0.0,0.0,0.0,0.0,0.0,0.0,0.0,0.0,0.0,0.0,0.0,0.0,0.0,0.0,0.0,0.0,0.0,0.0,11.6267,13.4103,14.6335,14.6993,14.6467,14.5129,14.2936,14.0241,13.4126,12.3672,11.4402,0.0,0.0,0.0,0.0,0.0,0.0,0.0,0.0,0.0,0.0,0.0,0.0,0.0,0.0,0.0,0.0,0.0,0.0,0.0,0.0,0.0,0.0,0.0,0.0,0.0,0.0,0.0,0.0,0.0,0.0,0.0,0.0,0.0,0.0,0.0,0.0,0.0,0.0,0.0,0.0,0.0,0.0,0.0,0.0,0.0,0.0,0.0,0.0,0.0,0.0,0.0,0.0,0.0,0.0,0.0,0.0,0.0,0.0,0.0,7.3236,0.0,0.0,0.0,0.0,0.0,0.0,0.0,0.0,0.0,0.0,0.0,0.0,0.0,0.0,0.0,0.0,0.0,0.0,0.0,0.0,0.0,0.0,0.0,0.0,0.0,0.0,0.0,0.0,0.0,0.0,0.0,0.0,0.0,0.0,0.0,0.0,0.0,0.0,0.0,0.0,0.0,11.1501,12.9737,14.2192,14.2784,14.285,14.2192,14.0394,13.8926,13.1299,11.5256,10.7876,0.0,0.0,0.0,0.0,0.0,0.0,0.0,0.0,0.0,0.0,0.0,0.0,0.0,0.0,0.0,0.0,0.0,0.0,0.0,0.0,0.0,0.0,0.0,0.0,0.0,0.0,0.0,0.0,0.0,0.0,0.0,0.0,0.0,0.0,0.0,0.0,0.0,0.0,0.0,0.0,0.0,0.0,0.0,0.0,0.0,0.0,0.0,0.0,0.0,0.0,0.0,0.0,0.0,0.0,0.0,0.0,0.0,0.0,0.0,0.0,0.0,0.0,0.0,0.0,0.0,0.0,0.0,0.0,0.0,0.0,0.0,0.0,0.0,0.0,0.0,0.0,0.0,0.0,0.0,0.0,0.0,0.0,0.0,0.0,0.0,0.0,0.0,0.0,0.0,0.0,0.0,0.0,0.0,0.0,0.0,0.0,0.0,0.0,0.0,0.0,0.0,11.2242,12.8424,14.0,14.2587,14.285,14.1797,13.9057,13.7501,12.9827,11.378,0.0,0.0,0.0,0.0,0.0,0.0,0.0,0.0,0.0,0.0,0.0,0.0,0.0,0.0,0.0,0.0,0.0,0.0,0.0,0.0,0.0,0.0,0.0,0.0,0.0,0.0,0.0,0.0,0.0,0.0,0.0,0.0,0.0,0.0,0.0,0.0,0.0,0.0,0.0,0.0,0.0,0.0,0.0,0.0,0.0,0.0,0.0,0.0,0.0,0.0,0.0,0.0,0.0,0.0,0.0,0.0,0.0,0.0,0.0,0.0,0.0,0.0,0.0,0.0,0.0,0.0,0.0,0.0,0.0,0.0,0.0,0.0,0.0,0.0,0.0,0.0,0.0,0.0,0.0,0.0,0.0,0.0,0.0,0.0,0.0,0.0,0.0,0.0,0.0,0.0,0.0,0.0,0.0,0.0,0.0,0.0,0.0,0.0,0.0,0.0,0.0,0.0,10.9902,12.7347,13.9306,14.0198,13.9539,13.8575,13.7435,13.5133,12.5092,10.4704,0.0,0.0,0.0,0.0,0.0,0.0,0.0,0.0,0.0,0.0,0.0,0.0,0.0,0.0,0.0,0.0,0.0,0.0,0.0,0.0,0.0,0.0,0.0,0.0,0.0,0.0,0.0,0.0,0.0,0.0,0.0,0.0,0.0,0.0,0.0,0.0,0.0,0.0,0.0,0.0,0.0,0.0,0.0,0.0,0.0,0.0,0.0,0.0,0.0,0.0,0.0,0.0,0.0,0.0,0.0,0.0,0.0,0.0,0.0,0.0,0.0,0.0,0.0,0.0,0.0,0.0,0.0,0.0,0.0,0.0,0.0,0.0,0.0,0.0,0.0,0.0,0.0,0.0,0.0,0.0,0.0,0.0,0.0,0.0,0.0,0.0,0.0,0.0,0.0,0.0,0.0,0.0,0.0,0.0,0.0,0.0,0.0,0.0,0.0,0.0,0.0,0.0,10.7677,12.6116,13.8276,13.7453,13.6777,13.6076,13.5221,13.2043,12.0535,9.8193,0.0,0.0,0.0,0.0,0.0,0.0,0.0,0.0,0.0,0.0,0.0,0.0,0.0,0.0,0.0,0.0,0.0,0.0,0.0,0.0,0.0,0.0,0.0,0.0,0.0,0.0,0.0,0.0,0.0,0.0,0.0,0.0,0.0,0.0,0.0,0.0,0.0,0.0,0.0,0.0,0.0,0.0,0.0,0.0,0.0,0.0,0.0,0.0,0.0,0.0,0.0,0.0,0.0,0.0,0.0,0.0,0.0,0.0,0.0,0.0,0.0,0.0,0.0,0.0,0.0,0.0,0.0,0.0,0.0,0.0,0.0,0.0,0.0,0.0,0.0,0.0,0.0,0.0,0.0,0.0,0.0,0.0,0.0,0.0,0.0,0.0,0.0,0.0,0.0,0.0,0.0,0.0,0.0,0.0,0.0,0.0,0.0,0.0,0.0,0.0,0.0,0.0,10.6129,12.4633,13.6396,13.4576,13.5594,13.5286,13.2306,12.8097,11.6984,0.0,0.0,0.0,0.0,0.0,0.0,0.0,0.0,0.0,0.0,0.0,0.0,0.0,0.0,0.0,0.0,0.0,0.0,0.0,0.0,0.0,0.0,0.0,0.0,0.0,0.0,0.0,0.0,0.0,0.0,0.0,0.0,0.0,0.0,0.0,0.0,0.0,0.0,0.0,0.0,0.0,0.0,0.0,0.0,0.0,0.0,0.0,0.0,0.0,0.0,0.0,0.0,0.0,0.0,0.0,0.0,0.0,0.0,0.0,0.0,0.0,0.0,0.0,0.0,0.0,0.0,0.0,0.0,0.0,0.0,0.0,0.0,0.0,0.0,0.0,0.0,0.0,0.0,0.0,0.0,0.0,0.0,0.0,0.0,0.0,0.0,0.0,0.0,0.0,0.0,0.0,0.0,0.0,0.0,0.0,0.0,0.0,0.0,0.0,0.0,0.0,0.0,0.0,10.3998,11.8813,13.0097,0.0,13.5661,13.45,13.2167,12.8973,11.7905,9.6584,0.0,0.0,0.0,0.0,0.0,0.0,0.0,0.0,0.0,0.0,0.0,0.0,0.0,0.0,0.0,0.0,0.0,0.0,0.0,0.0,0.0,0.0,0.0,0.0,0.0,0.0,0.0,0.0,0.0,0.0,0.0,0.0,0.0,0.0,0.0,0.0,0.0,0.0,0.0,0.0,0.0,0.0,0.0,0.0,0.0,0.0,0.0,0.0,0.0,0.0,0.0,0.0,0.0,0.0,0.0,0.0,0.0,0.0,0.0,0.0,0.0,0.0,0.0,0.0,0.0,0.0,0.0,0.0,0.0,0.0,0.0,0.0,0.0,0.0,0.0,0.0,0.0,0.0,0.0,0.0,0.0,0.0,0.0,0.0,0.0,0.0,0.0,0.0,0.0,0.0,0.0,0.0,0.0,0.0,0.0,0.0,0.0,0.0,0.0,0.0,0.0,0.0,0.0,11.7984,13.0381,0.0,13.5508,13.4125,13.2377,12.7457,11.6148,9.6518,0.0,0.0,0.0,0.0,0.0,0.0,0.0,0.0,0.0,0.0,0.0,0.0,0.0,0.0,0.0,0.0,0.0,0.0,0.0,0.0,0.0,0.0,0.0,0.0,0.0,0.0,0.0,0.0,0.0,0.0,0.0,0.0,0.0,0.0,0.0,0.0,0.0,0.0,0.0,0.0,0.0,0.0,0.0,0.0,0.0,0.0,0.0,0.0,0.0,0.0,0.0,0.0,0.0,0.0,0.0,0.0,0.0,0.0,0.0,0.0,0.0,0.0,0.0,0.0,0.0,0.0,0.0,0.0,0.0,0.0,0.0,0.0,0.0,0.0,0.0,0.0,0.0,0.0,0.0,0.0,0.0,0.0,0.0,0.0,0.0,0.0,0.0,0.0,0.0,0.0,0.0,0.0,0.0,0.0,0.0,0.0,0.0,0.0,0.0,0.0,0.0,0.0,0.0,12.0721,13.4826,13.5601,13.5366,13.4363,13.2567,12.4471,11.2522,9.6139,8.3053,0.0,0.0,0.0,0.0,0.0,0.0,0.0,0.0,0.0,0.0,0.0,0.0,0.0,0.0,0.0,0.0,0.0,0.0,0.0,0.0,0.0,0.0,0.0,0.0,0.0,0.0,0.0,0.0,0.0,0.0,0.0,0.0,0.0,0.0,0.0,0.0,0.0,0.0,0.0,0.0,0.0,0.0,0.0,0.0,0.0,0.0,0.0,0.0,0.0,0.0,0.0,0.0,0.0,0.0,0.0,0.0,0.0,0.0,0.0,0.0,0.0,0.0,0.0,0.0,0.0,0.0,0.0,0.0,0.0,0.0,0.0,0.0,0.0,0.0,0.0,0.0,0.0,0.0,0.0,0.0,0.0,0.0,0.0,0.0,0.0,0.0,0.0,0.0,0.0,0.0,0.0,0.0,0.0,0.0,0.0,0.0,0.0,0.0,0.0,0.0,0.0,0.0,11.6403,12.7147,13.653,13.7468,13.5688,13.1277,12.5979,11.4475,9.4832,8.3421,0.0,0.0,0.0,0.0,0.0,0.0,0.0,0.0,0.0,0.0,0.0,0.0,0.0,0.0,0.0,0.0,0.0,0.0,0.0,0.0,0.0,0.0,0.0,0.0,0.0,0.0,0.0,0.0,0.0,0.0,0.0,0.0,0.0,0.0,0.0,0.0,0.0,0.0,0.0,0.0,0.0,0.0,0.0,0.0,0.0,0.0,0.0,0.0,0.0,0.0,0.0,0.0,0.0,0.0,0.0,0.0,0.0,0.0,0.0,0.0,0.0,0.0,0.0,0.0,0.0,0.0,0.0,0.0,0.0,0.0,0.0,0.0,0.0,0.0,0.0,0.0,0.0,0.0,0.0,0.0,0.0,0.0,0.0,0.0,0.0,0.0,0.0,0.0,0.0,0.0,0.0,0.0,0.0,0.0,0.0,0.0,0.0,0.0,0.0,0.0,0.0,0.0,10.1259,11.5704,13.62,13.7661,13.5352,13.11,12.5367,11.3437,9.3428,8.1557,0.0,0.0,0.0,0.0,0.0,0.0,0.0,0.0,0.0,0.0,0.0,0.0,0.0,0.0,0.0,0.0,0.0,0.0,0.0,0.0,0.0,0.0,0.0,0.0,0.0,0.0,0.0,0.0,0.0,0.0,0.0,0.0,0.0,0.0,0.0,0.0,0.0,0.0,0.0,0.0,0.0,0.0,0.0,0.0,0.0,0.0,0.0,0.0,0.0,0.0,0.0,0.0,0.0,0.0,0.0,0.0,0.0,0.0,0.0,0.0,0.0,0.0,0.0,0.0,0.0,0.0,0.0,0.0,0.0,0.0,0.0,0.0,0.0,0.0,0.0,0.0,0.0,0.0,0.0,0.0,0.0,0.0,0.0,0.0,0.0,0.0,0.0,0.0,0.0,0.0,0.0,0.0,0.0,0.0,0.0,0.0,0.0,0.0,0.0,0.0,0.0,0.0,0.0,10.4938,13.1832,13.5393,13.4415,13.0665,12.3543,11.0984,9.1549,0.0,0.0,0.0,0.0,0.0,0.0,0.0,0.0,0.0,0.0,0.0,0.0,0.0,0.0,0.0,0.0,0.0,0.0,0.0,0.0,0.0,0.0,0.0,0.0,0.0,0.0,0.0,0.0,0.0,0.0,0.0,0.0,0.0,0.0,0.0,0.0,0.0,0.0,0.0,0.0,0.0,0.0,0.0,0.0,0.0,0.0,0.0,0.0,0.0,0.0,0.0,0.0,0.0,0.0,0.0,0.0,0.0,0.0,0.0,0.0,0.0,0.0,0.0,0.0,0.0,0.0,0.0,0.0,0.0,0.0,0.0,0.0,0.0,0.0,0.0,0.0,0.0,0.0,0.0,0.0,0.0,0.0,0.0,0.0,0.0,0.0,0.0,0.0,0.0,0.0,0.0,0.0,0.0,0.0,0.0,0.0,0.0,0.0,0.0,0.0,0.0,0.0,0.0,0.0,0.0,11.5376,12.8442,13.3794,12.7724,12.1664,10.9424,8.8633,0.0,0.0,0.0,0.0,0.0,0.0,0.0,0.0,0.0,0.0,0.0,0.0,0.0,0.0]}],[{"header":{"parameterUnit":"kt","parameterCategory":2,"dx":1,"dy":1,"la1":29.285339999999998,"la2":30.599998999999997,"lo1":-89.70041500000002,"lo2":-87.6738589999976,"nx":112,"ny":82,"refTime":"2022-10-08T00:00:00:Z","depth":0,"parameterNumber":2,"parameterNumberName":"V-component_of_WINDS"},"data":[11.227,11.2514,0.0,11.0305,10.5376,0.0,9.3729,0.0,0.0,0.0,0.0,0.0,0.0,0.0,0.0,0.0,0.0,0.0,0.0,0.0,0.0,0.0,0.0,0.0,0.0,0.0,0.0,0.0,0.0,0.0,0.0,0.0,11.8944,12.1443,12.1882,12.2077,12.2077,12.2077,12.2077,12.2077,12.2077,12.2077,12.2077,12.2077,12.2077,12.2077,12.2077,12.2077,12.2077,12.2077,12.2077,12.2077,12.2077,12.2077,12.2077,12.2077,12.2077,12.2077,12.2077,12.2077,12.2077,12.2077,12.2077,12.2223,12.2995,12.3727,12.4402,12.4402,12.4402,12.4451,12.4842,12.4069,12.3679,12.5476,12.5867,12.616,12.7242,12.773,12.7876,12.7737,12.7737,12.7681,12.7437,12.8023,12.7005,12.2711,12.4419,12.5736,12.4517,12.6761,12.8469,12.8469,12.8469,12.8469,12.8469,12.7103,12.5005,12.2272,12.2077,12.2077,12.2077,12.2077,12.2077,12.2077,12.2077,12.2077,12.2077,12.2077,12.2077,12.2077,12.2077,12.2077,0.0,0.0,10.6547,10.4434,0.0,0.0,0.0,0.0,0.0,0.0,0.0,0.0,0.0,0.0,0.0,0.0,0.0,0.0,0.0,0.0,0.0,0.0,0.0,0.0,0.0,0.0,0.0,0.0,0.0,0.0,11.5381,11.7811,11.992,12.2028,12.2077,12.2077,12.2077,12.2077,12.2077,12.2077,12.2077,12.2077,12.2077,12.2077,12.2077,12.2077,12.2077,12.2077,12.2077,12.2077,12.2077,12.2077,12.2077,12.2077,12.2077,12.2077,12.2077,12.2077,12.2077,12.2077,12.2077,12.2077,12.2077,12.2223,12.2955,12.3483,12.3825,12.3825,12.3825,12.3825,12.3825,12.3532,12.3483,12.4598,12.5045,12.5533,12.6509,12.729,12.7883,12.8371,12.8469,12.8469,12.8469,12.8469,12.7493,12.4663,12.6664,12.6907,12.2623,12.5834,12.8469,12.8469,12.8469,12.8469,12.8469,12.8469,12.6664,12.237,12.2077,12.2077,12.2077,12.2077,12.2077,12.2077,12.2077,12.2077,12.2077,12.2077,12.2809,12.4273,12.4273,12.3492,0.0,0.0,0.0,9.6151,0.0,0.0,0.0,0.0,8.1269,0.0,0.0,0.0,0.0,0.0,0.0,0.0,0.0,0.0,0.0,0.0,0.0,0.0,0.0,0.0,0.0,0.0,0.0,0.0,10.6972,0.0,11.8495,11.9032,11.9969,12.2028,12.2077,12.2077,12.2077,12.2077,12.2077,12.2077,12.2077,12.2077,12.2077,12.2077,12.2077,12.2077,12.2077,12.2077,12.2077,12.2077,12.2077,12.2077,12.2077,12.2077,12.2077,12.2077,12.2077,12.2077,12.2077,12.2077,12.2077,12.2077,12.2077,12.2077,12.2086,12.2907,12.3825,12.3825,12.3825,12.3825,12.3776,12.2907,12.237,12.3483,12.2907,12.2907,12.5688,12.6273,12.6664,12.8176,12.8469,12.8469,12.8469,12.8469,12.8469,12.8469,12.8469,12.7005,12.2809,12.5932,12.8469,12.8469,12.8469,12.8469,12.8469,12.8469,12.6712,12.2565,12.2175,12.2077,12.2077,12.2077,12.2077,12.2077,12.2077,12.2077,12.2077,12.2077,12.4224,12.8274,12.8274,12.6029,9.2051,0.0,0.0,0.0,0.0,0.0,0.0,0.0,0.0,0.0,0.0,0.0,0.0,0.0,0.0,0.0,0.0,0.0,0.0,8.4047,0.0,0.0,0.0,0.0,0.0,10.5913,10.767,11.4124,0.0,11.3222,11.869,12.0409,12.1492,12.2077,12.2077,12.2077,12.2077,12.2077,12.2077,12.2077,12.2077,12.2077,12.2077,12.2077,12.2077,12.2077,12.2077,12.2077,12.2077,12.2077,12.2077,12.2077,12.2077,12.2077,12.2077,12.2077,12.2077,12.2077,12.2077,12.2077,12.2077,12.2077,12.2077,12.2223,12.3093,12.3581,12.3825,12.3825,12.3825,12.363,12.276,12.2321,12.2175,12.2467,12.3102,12.398,12.5379,12.4411,12.4273,12.7786,12.8469,12.8469,12.8469,12.8469,12.8469,12.8469,12.8469,12.803,12.6859,12.7737,12.8469,12.8469,12.8469,12.8469,12.8469,12.8469,12.7981,12.681,12.3785,12.2077,12.2077,12.2077,12.2077,12.2077,12.2077,12.2077,12.2077,12.2077,12.2711,12.3834,12.3834,12.3199,0.0,0.0,0.0,0.0,0.0,0.0,7.9361,0.0,7.7897,0.0,0.0,0.0,0.0,0.0,0.0,0.0,8.4605,0.0,0.0,0.0,9.7437,0.0,0.0,0.0,11.1197,11.1623,11.3624,11.8223,11.6504,11.6699,12.0116,12.1394,12.2077,12.2077,12.2077,12.2077,12.2077,12.2077,12.2077,12.2077,12.2077,12.2077,12.2077,12.2077,12.2077,12.2077,12.2077,12.2077,12.2077,12.2077,12.2077,12.2077,12.2077,12.2077,12.2077,12.2077,12.2077,12.2077,12.2077,12.2077,12.2077,12.2077,12.2077,12.2223,12.2898,12.3093,12.3191,12.3679,12.3483,12.3004,12.2858,12.2419,12.2077,12.2077,12.2711,12.3443,12.3874,12.2995,12.2809,12.5297,12.7249,12.8469,12.8469,12.8469,12.7883,12.6078,12.7347,12.8469,12.8469,12.8469,12.8469,12.8469,12.8469,12.8469,12.8469,12.8469,12.8469,12.8469,12.6127,12.4761,12.4761,12.3053,12.2077,12.2077,12.2077,12.2077,12.2077,12.2077,12.2077,12.2077,12.2077,12.2077,0.0,0.0,0.0,0.0,8.0826,0.0,0.0,0.0,0.0,7.9361,0.0,0.0,8.0848,0.0,0.0,0.0,0.0,0.0,9.1729,9.8494,10.3975,10.4902,11.0123,11.3575,11.3478,11.6027,11.8564,12.0555,11.9823,12.0116,12.198,12.2077,12.2077,12.2077,12.2077,12.2077,12.2077,12.2077,12.2077,12.2077,12.2077,12.2077,12.2077,12.2077,12.2077,12.2077,12.2077,12.2077,12.2077,12.2077,12.2077,12.2077,12.2077,12.2077,12.2077,12.2077,12.2077,12.2077,12.2077,12.2077,12.2077,12.2077,12.2077,12.2077,12.2077,12.2077,12.2272,12.3337,12.2858,12.2321,12.3337,12.2858,12.2077,12.2077,12.2077,12.2077,12.2077,12.2077,12.2077,12.2077,12.5541,12.8371,12.8169,12.7925,12.6615,12.3297,12.6029,12.8274,12.7835,12.8176,12.8469,12.8469,12.8469,12.8469,12.8469,12.8469,12.8469,12.8469,12.8469,12.8469,12.8469,12.4614,12.2321,12.2077,12.2565,12.2565,12.2077,12.2077,12.2077,12.2077,12.2077,12.2077,0.0,0.0,0.0,0.0,0.0,7.9338,0.0,0.0,0.0,0.0,9.0753,9.0138,9.3631,9.2491,9.2002,9.5157,9.9372,10.178,0.0,11.0611,0.0,11.8369,11.9491,11.993,11.9091,12.0272,12.1345,12.1736,12.1589,12.1638,12.2077,12.2077,12.2077,12.2077,12.2077,12.2077,12.2077,12.2077,12.2077,12.2077,12.2077,12.2077,12.2077,12.2077,12.2077,12.2077,12.2077,12.2077,12.2077,12.2077,12.2077,12.2077,12.2077,12.2077,12.2077,12.2077,12.2077,12.2077,12.2077,12.2077,12.2077,12.2077,12.2077,12.2077,12.2077,12.2077,12.2086,12.237,12.2272,12.2126,12.237,12.2272,12.2077,12.2077,12.2077,12.2077,12.2077,12.2077,12.2077,12.2077,12.5541,12.7974,12.6258,12.4508,12.4224,12.6859,12.7932,12.72,12.3785,12.6322,12.8469,12.8469,12.8469,12.8469,12.8469,12.8469,12.8469,12.8469,12.8469,12.8469,12.8469,12.607,12.3874,12.2126,12.5493,12.5541,12.2077,12.2077,12.2077,12.2077,12.2077,12.2077,0.0,0.0,0.0,7.6189,0.0,0.0,0.0,8.3119,8.4681,9.4394,9.3827,9.3211,9.8608,9.9177,9.9324,10.1032,10.5766,11.0012,11.2172,11.7588,12.1101,12.0604,12.0506,12.0506,12.0506,12.1443,12.2077,12.2077,12.2077,12.2077,12.2077,12.2077,12.2077,12.2077,12.2077,12.2077,12.2077,12.2077,12.2077,12.2077,12.2077,12.2077,12.2077,12.2077,12.2077,12.2077,12.2077,12.2077,12.2077,12.2077,12.2077,12.2077,12.2077,12.2077,12.2077,12.2077,12.2077,12.2077,12.2077,12.2077,12.2077,12.2077,12.2077,12.2077,12.2077,12.2077,12.2223,12.276,12.2516,12.2223,12.276,12.2516,12.2077,12.2077,12.2077,12.2077,12.2077,12.2077,12.2077,12.2077,12.3785,12.4956,12.3874,12.3727,12.4069,12.5102,12.7103,12.7688,12.5541,12.5297,12.6078,12.8225,12.7534,12.7046,12.7395,12.7395,12.773,12.8462,12.8469,12.8469,12.8469,12.6502,12.4842,12.3727,12.4712,12.5297,12.5297,12.5297,12.4175,12.2077,12.2077,12.2077,0.0,0.0,0.0,0.0,0.0,0.0,8.4611,8.4388,8.6264,9.7274,9.7632,9.7779,10.3667,10.5913,10.6756,10.6366,11.1574,11.7236,12.1784,12.1687,12.0848,12.0008,11.9676,11.9872,12.075,12.1589,12.2077,12.2077,12.2077,12.2077,12.2077,12.2077,12.2077,12.2077,12.2077,12.2077,12.2077,12.2077,12.2077,12.2077,12.2077,12.2077,12.2077,12.2077,12.2077,12.2077,12.2077,12.2077,12.2077,12.2077,12.2077,12.2077,12.2077,12.2077,12.2077,12.2077,12.2077,12.2077,12.2077,12.2077,12.2077,12.2077,12.2077,12.2077,12.2077,12.2077,12.2272,12.3239,12.2809,12.2272,12.3239,12.276,12.2077,12.2077,12.2077,12.2077,12.2077,12.2077,12.2077,12.2077,12.2077,12.2175,12.237,12.3923,12.4646,12.3151,12.6078,12.8469,12.8469,12.5444,12.4565,12.7737,12.6558,12.5916,12.6712,12.6761,12.7249,12.842,12.8469,12.8371,12.8218,12.6355,12.5371,12.5371,12.3483,12.4468,12.8469,12.7932,12.5736,12.2077,12.2077,12.2077,0.0,0.0,0.0,0.0,0.0,0.0,9.0939,9.343,9.6573,10.8304,11.1197,11.2709,11.6346,11.6357,11.6368,11.8223,12.0028,12.1736,12.3386,12.3532,12.3386,12.3288,12.2361,12.1784,12.1882,12.2028,12.2077,12.2077,12.2077,12.2077,12.2077,12.2077,12.2077,12.2077,12.2077,12.2077,12.2077,12.2077,12.2077,12.2077,12.2077,12.2077,12.2077,12.2077,12.2077,12.2077,12.2077,12.2077,12.2077,12.2077,12.2077,12.2077,12.2077,12.2077,12.2077,12.2077,12.2077,12.2077,12.2077,12.2077,12.2077,12.2077,12.2077,12.2077,12.2077,12.2077,12.2086,12.2223,12.2175,12.2126,12.2223,12.2175,12.2077,12.2077,12.2077,12.2077,12.2077,12.2077,12.2077,12.2077,12.2077,12.2419,12.3435,12.402,12.4663,12.5736,12.7347,12.8469,12.8469,12.8078,12.7444,12.6664,12.6371,12.6761,12.8127,12.8225,12.8322,12.8469,12.8469,12.8071,12.7144,12.6014,12.5371,12.5371,12.446,12.5444,12.8469,12.5932,12.3785,12.2077,12.2077,12.2077,0.0,0.0,0.0,0.0,0.0,0.0,9.088,9.4394,9.9161,11.1001,11.3331,11.471,11.9872,12.0369,12.0369,12.1248,12.2898,12.4362,12.5436,12.5135,12.4744,12.4744,12.3776,12.2809,12.2175,12.2077,12.2077,12.2077,12.2077,12.2077,12.2077,12.2077,12.2077,12.2077,12.2077,12.2077,12.2077,12.2077,12.2077,12.2077,12.2077,12.2077,12.2077,12.2077,12.2077,12.2077,12.2077,12.2077,12.2077,12.2077,12.2077,12.2077,12.2077,12.2077,12.2077,12.2077,12.2077,12.2077,12.2077,12.2077,12.2077,12.2077,12.2077,12.2077,12.2077,12.2077,12.2077,12.2077,12.2077,12.2077,12.2077,12.2077,12.2077,12.2077,12.2077,12.2077,12.2077,12.2077,12.2467,12.3727,12.2955,12.2614,12.4451,12.4842,12.524,12.6176,12.7542,12.8469,12.8469,12.7737,12.7005,12.642,12.5485,12.5338,12.6599,12.6697,12.69,12.7534,12.8169,12.8315,12.7876,12.6844,12.6014,12.542,12.5086,12.485,12.4761,12.437,12.3882,12.3297,12.2467,12.2077,6.4615,0.0,0.0,0.0,0.0,0.0,9.4071,9.7828,10.2398,11.2416,11.4612,11.626,12.1199,12.2321,12.2467,12.2126,12.3679,12.5184,12.5924,12.5672,12.5232,12.4988,12.4305,12.3386,12.2223,12.2077,12.2077,0.0,12.2077,12.2077,12.2077,12.2077,12.2077,12.2077,12.2077,12.2077,12.2077,12.2077,12.2077,12.2077,12.2077,12.2077,12.2077,12.2077,12.2077,12.2077,12.2077,12.2077,12.2077,12.2077,12.2077,12.2077,12.2077,12.2077,12.2077,12.2077,12.2077,12.2077,12.2077,12.2077,12.2077,12.2077,12.2077,12.2077,12.2077,12.2077,12.2077,12.2077,12.2077,12.2077,12.2077,12.2077,12.2077,12.2077,12.2077,12.2175,12.2467,12.2565,12.3142,12.4988,12.4069,12.3483,12.5086,12.5574,12.5867,12.607,12.7486,12.8413,12.812,12.7395,12.6907,12.6907,12.5875,12.524,12.5623,12.6014,12.6453,12.69,12.7925,12.8469,12.8469,12.7193,12.616,12.542,12.5086,12.4118,12.2565,12.3297,12.3785,12.4078,12.2711,12.2077,0.0,0.0,0.0,8.5392,8.7268,9.0167,10.4058,10.7279,10.8925,11.4454,11.8115,12.0653,12.1882,12.3044,12.3386,12.2272,12.3093,12.3874,12.3874,12.4744,12.4988,12.4012,12.3825,12.3386,12.2223,12.2077,12.2077,12.2077,12.2077,12.2077,12.2077,12.2077,12.2077,12.2077,12.2077,12.2077,12.2077,12.2077,12.2077,12.2077,12.2077,12.2077,12.2077,12.2077,12.2077,12.2077,12.2077,12.2077,12.2077,12.2077,12.2077,12.2077,12.2077,12.2077,12.2077,12.2077,12.2077,12.2077,12.2077,12.2077,12.2077,12.2077,12.2077,12.2077,12.2077,12.2077,12.2077,12.2077,12.2077,12.2077,12.2077,12.2077,12.2077,12.2077,12.2077,12.237,12.3532,12.3776,12.4109,12.5135,12.5281,12.5281,12.5371,12.6209,12.6551,12.5525,12.7144,12.812,12.7095,12.7827,12.8462,12.8462,12.8371,12.7786,12.642,12.7591,12.7974,12.6998,12.7925,12.8469,12.8469,12.6551,12.542,12.5371,12.4402,12.3825,12.3776,12.2663,12.2711,12.3776,12.2614,12.2077,7.0016,7.6433,8.3461,9.006,9.5108,9.9714,10.44,10.9378,11.3478,11.5284,11.8798,12.1638,12.2028,12.2419,12.2516,12.2175,12.2419,12.2907,12.3679,12.4158,12.4207,12.3825,12.4451,12.4118,12.2272,12.276,12.2907,12.2126,12.2077,0.0,12.2077,12.2077,12.2077,12.2077,12.2077,12.2077,12.2077,12.2077,12.2077,12.2077,12.2077,12.2077,12.2077,12.2077,12.2077,12.2077,12.2077,12.2077,12.2077,12.2077,12.2077,12.2077,12.2077,12.2077,12.2077,12.2077,12.2077,12.2077,12.2077,12.2077,12.2077,12.2077,12.2077,12.2077,12.2077,12.2077,12.2077,12.2077,12.2077,12.2077,12.2077,12.2077,12.2077,12.2077,12.2077,12.2419,12.3581,12.3825,12.4158,12.5175,12.4793,12.4793,12.616,12.5574,12.5232,12.6258,12.6404,12.6551,12.6892,12.7242,12.773,12.8371,12.7876,12.7144,12.642,12.6363,12.6258,12.5916,12.6892,12.7437,12.7437,12.7437,12.6795,12.5379,12.5037,12.4158,12.2663,12.2272,12.2272,12.2663,12.2272,12.2077,7.5066,8.1629,8.8216,9.6866,10.2627,10.6645,10.8548,11.2709,11.6357,11.6748,11.9335,12.1638,12.1989,12.2077,12.2077,12.2077,12.2077,12.2321,12.3093,12.3532,12.3679,12.3239,12.45,12.45,12.2272,12.3142,12.3337,12.2175,12.2077,12.2077,12.2077,12.2077,12.2077,12.2077,12.2077,12.2077,12.2077,12.2077,12.2077,12.2077,12.2077,12.2077,12.2077,12.2077,12.2077,12.2077,12.2077,12.2077,12.2077,12.2077,12.2077,12.2077,12.2077,12.2077,12.2077,12.2077,12.2077,12.2077,12.2077,12.2077,12.2077,12.2077,12.2077,12.2077,12.2077,12.2077,12.2077,12.2077,12.2077,12.2077,12.2077,12.2077,12.2077,12.2077,12.2077,12.2419,12.3581,12.3825,12.4158,12.5175,12.4842,12.4793,12.616,12.5281,12.4598,12.5094,12.5045,12.533,12.6258,12.6998,12.773,12.8371,12.7876,12.7193,12.642,12.6412,12.616,12.5379,12.6355,12.6795,12.6404,12.6656,12.6168,12.4842,12.4402,12.3483,12.2077,12.2077,12.2272,12.2663,12.2272,12.2321,8.0119,8.5197,9.0197,10.5634,10.9671,11.1086,11.5978,11.7149,11.7539,11.8739,11.9774,12.0808,12.1882,12.2077,12.2077,12.2077,12.2077,12.2077,12.2077,12.3004,12.3337,12.2223,12.4061,12.4549,12.237,12.3239,12.3435,12.2272,12.2126,12.2077,12.2077,12.2077,12.2077,12.2077,12.2077,12.2077,12.2077,12.2077,12.2077,12.2077,12.2077,12.2077,12.2077,12.2077,12.2077,12.2077,12.2077,12.2077,12.2077,12.2077,12.2077,12.2077,12.2077,12.2077,12.2077,12.2077,12.2077,12.2077,12.2077,12.2077,12.2077,12.2077,12.2077,12.2077,12.2077,12.2077,12.2077,12.2077,12.2077,12.2077,12.2077,12.2077,12.2077,12.2077,12.2077,12.237,12.3483,12.3727,12.402,12.4988,12.5322,12.5371,12.5281,12.5322,12.4598,12.2467,12.3346,12.4508,12.5281,12.7144,12.8462,12.8469,12.8462,12.7883,12.6566,12.7632,12.7486,12.5476,12.6306,12.6404,12.5379,12.4451,12.3874,12.3825,12.2663,12.2077,12.2077,12.2077,12.2614,12.3679,12.2614,12.2663,8.4849,9.6754,10.5683,11.144,11.4698,11.6406,11.6113,11.6612,11.7539,11.8739,11.9774,12.0808,12.1882,12.2077,12.2077,12.2077,12.2077,12.2077,12.2077,12.2321,12.2419,12.2126,12.4061,12.4842,12.3483,12.4354,12.4549,12.3435,12.2565,12.2077,12.2077,12.2077,12.2077,12.2077,12.2077,12.2077,12.2077,12.2077,12.2077,12.2077,12.2077,12.2077,12.2077,12.2077,12.2077,12.2077,12.2077,12.2077,12.2077,12.2077,12.2077,12.2077,12.2077,12.2077,12.2077,12.2077,12.2077,12.2077,12.2077,12.2077,12.2077,12.2077,12.2077,12.2077,12.2077,12.2077,12.2077,12.2077,12.2077,12.2077,12.2077,12.2077,12.2077,12.2077,12.2077,12.2175,12.2467,12.2516,12.2614,12.2898,12.4256,12.5135,12.4354,12.4207,12.402,12.3435,12.3679,12.4264,12.5273,12.6551,12.7632,12.8371,12.7778,12.7486,12.7883,12.6851,12.5916,12.542,12.5623,12.5623,12.542,12.5086,12.4598,12.3825,12.2663,12.2077,12.2077,12.2077,12.2223,12.2516,12.2223,12.2223,8.2507,9.7747,11.144,11.7041,11.8651,11.8641,11.7421,11.7578,11.8163,11.8836,11.9471,12.0311,12.1784,12.2077,12.2077,12.2077,12.2077,12.2077,12.2077,12.2077,12.2077,12.2077,12.363,12.4305,12.3191,12.4061,12.4256,12.3142,12.2419,12.2077,12.2077,12.2077,12.2077,12.2077,12.2077,12.2077,12.2077,12.2077,12.2077,12.2077,12.2077,12.2077,12.2077,12.2077,12.2077,12.2077,12.2077,12.2077,12.2077,12.2077,12.2077,12.2077,12.2077,12.2077,12.2077,12.2077,12.2077,12.2077,12.2077,12.2077,12.2077,12.2077,12.2077,12.2077,12.2077,12.2077,12.2077,12.2077,12.2077,12.2077,12.2077,12.2077,12.2077,12.2077,12.2077,12.2077,12.2077,12.2077,12.2077,12.2077,12.3093,12.3727,12.3191,12.3004,12.3004,12.3004,12.3004,12.3581,12.5175,12.616,12.69,12.7493,12.6754,12.6502,12.7046,12.6062,12.5184,12.4695,12.5086,12.4939,12.3971,12.4451,12.4167,12.3093,12.2419,12.2077,12.2077,12.2077,12.2077,12.2077,12.2077,12.2077,7.9556,9.4949,11.1684,12.1043,12.1278,11.9129,11.8983,11.8836,11.8798,11.9129,11.9178,11.9725,12.154,12.198,12.2077,12.2077,12.2077,12.2077,12.2077,12.2077,12.2077,12.2077,12.2995,12.3191,12.2175,12.2955,12.3191,12.2175,12.2077,12.2077,12.2077,12.2077,12.2077,12.2077,12.2077,12.2077,12.2077,12.2077,12.2077,12.2077,12.2077,12.2077,12.2077,12.2077,12.2077,12.2077,12.2077,12.2077,12.2077,12.2077,12.2077,12.2077,12.2077,12.2077,12.2077,12.2077,12.2077,12.2077,12.2077,12.2077,12.2077,12.2077,12.2077,12.2077,12.2077,12.2077,12.2077,12.2077,12.2077,12.2077,12.2077,12.2077,12.2077,12.2077,12.2077,12.2077,12.2077,12.2077,12.2077,12.2077,12.2077,12.2126,12.2272,12.2321,12.2272,12.2126,12.2223,12.3044,12.4939,12.5777,12.6224,12.6224,12.5623,12.5135,12.5135,12.5135,12.4793,12.3874,12.4695,12.4305,12.237,12.3102,12.3142,12.2126,12.2077,12.2077,12.2077,12.2077,12.2077,12.2077,12.2077,12.2077,9.1417,10.178,11.227,11.9335,12.0653,12.0018,11.9178,11.8212,11.8027,11.9872,12.0262,12.036,12.0711,12.1492,12.2077,12.2077,12.2077,12.2077,12.2077,12.2077,12.2077,12.2077,12.2272,12.2321,12.2126,12.2272,12.2272,12.2126,12.2077,12.2077,12.2077,12.2077,12.2077,12.2077,12.2077,12.2077,12.2077,12.2077,12.2077,12.2077,12.2077,12.2077,12.2077,12.2077,12.2077,12.2077,12.2077,12.2077,12.2077,12.2077,12.2077,12.2077,12.2077,12.2077,12.2077,12.2077,12.2077,12.2077,12.2077,12.2077,12.2077,12.2077,12.2077,12.2077,12.2077,12.2077,12.2077,12.2077,12.2077,12.2077,12.2077,12.2077,12.2077,12.2077,12.2077,12.2077,12.2077,12.2077,12.2077,12.2077,12.2077,12.237,12.3337,12.3532,12.3191,12.2223,12.2858,12.3679,12.402,12.4939,12.5525,12.5525,12.4695,12.4109,12.4109,12.4109,12.4012,12.3825,12.4012,12.3923,12.3532,12.276,12.2272,12.2077,12.2077,12.2077,12.2077,12.2077,12.2077,12.2077,12.2077,12.2077,9.168,10.178,11.1294,11.665,11.9237,12.0409,11.9872,11.8895,11.7773,11.6602,11.8163,11.953,11.8906,12.0125,12.1443,12.198,12.2077,12.2077,12.2077,12.2077,12.2077,12.2077,12.1589,12.1248,12.1248,12.1248,12.1248,12.1248,12.1784,12.2077,12.2077,12.2077,12.2077,12.2077,12.2077,12.2077,12.2077,12.2077,12.2077,12.2077,12.2077,12.2077,12.2077,12.2077,12.2077,12.2077,12.2077,12.2077,12.2077,12.2077,12.2077,12.2077,12.2077,12.2077,12.2077,12.2077,12.2077,12.2077,12.2077,12.2077,12.2077,12.2077,12.2077,12.2077,12.2077,12.2077,12.2077,12.2077,12.2077,12.2077,12.2077,12.2077,12.2077,12.2077,12.2077,12.2077,12.2077,12.2077,12.2077,12.2077,12.2077,12.2272,12.2809,12.2907,12.2711,12.2175,12.2565,12.2907,12.2907,12.3337,12.363,12.363,12.3239,12.2907,12.2907,12.2907,12.2907,12.2907,12.3483,12.3532,12.2907,12.237,12.2077,12.2077,12.2077,12.2077,12.2077,12.2077,12.2077,12.2077,12.2077,12.2077,8.9016,9.9535,10.9671,11.421,11.7382,11.953,11.9774,11.8993,11.7323,11.3917,11.6298,11.8788,11.8027,11.9384,12.0897,12.1931,12.2077,12.2077,12.2077,12.2077,12.2077,12.2077,12.115,12.0604,12.0808,12.0653,12.0604,12.0808,12.1589,12.2077,12.2077,12.2077,12.2077,12.2077,12.2077,12.2077,12.2077,12.2077,12.2077,12.2077,12.2077,12.2077,12.2077,12.2077,12.2077,12.2077,12.2077,12.2077,12.2077,12.2077,12.2077,12.2077,12.2077,12.2077,12.2077,12.2077,12.2077,12.2077,12.2077,12.2077,12.2077,12.2077,12.2077,12.2077,12.2077,12.2077,12.2077,12.2077,12.2077,12.2077,12.2077,12.2077,12.2077,12.2077,12.2077,12.2077,12.2077,12.2077,12.2077,12.2077,12.2077,12.2077,12.2077,12.2077,12.2077,12.2077,12.2077,12.2077,12.2077,12.2077,12.2077,12.2077,12.2077,12.2077,12.2077,12.2077,12.2077,12.2077,12.2907,12.3004,12.2126,12.2077,12.1591,12.0626,12.16,12.2077,12.2077,12.2077,12.2077,12.2077,12.2077,12.2077,8.8517,9.7403,10.7656,11.2929,11.5175,11.6357,11.7295,11.6699,11.5821,11.543,11.7323,11.9227,12.0067,12.0409,12.0897,12.1931,12.2077,12.2077,12.2077,12.2077,12.2077,12.2077,12.115,12.0857,12.1833,12.1052,12.0906,12.1882,12.1989,12.2077,12.2077,12.2077,12.2077,12.2077,12.2077,12.2077,12.2077,12.2077,12.2077,12.2077,12.2077,12.2077,12.2077,12.2077,12.2077,12.2077,12.2077,12.2077,12.2077,12.2077,12.2077,12.2077,12.2077,12.2077,12.2077,12.2077,12.2077,12.2077,12.2077,12.2077,12.2077,12.2077,12.2077,12.2077,12.2077,12.2077,12.2077,12.2077,12.2077,12.2077,12.2077,12.2077,12.2077,12.2077,12.2077,12.2077,12.2077,12.2077,12.2077,12.2077,12.2077,12.2077,12.2077,12.2077,12.2077,12.2077,12.2077,12.2077,12.2077,12.2077,12.2077,12.2077,12.2077,12.2077,12.2077,12.2077,12.2077,12.2077,12.2175,12.2175,12.2077,12.2077,12.0145,11.5984,11.9937,12.2077,12.2077,12.2077,12.2077,12.2077,12.2077,12.2077,8.1704,9.1222,10.0772,10.292,10.8681,11.3868,11.4308,11.4112,11.3771,11.3771,11.5967,11.7871,11.7626,11.7578,11.8359,12.076,12.0604,12.0653,12.1931,12.2077,12.2077,12.2077,12.115,12.0701,12.1101,12.0799,12.0701,12.1101,12.1736,12.2077,12.2077,12.2077,12.2077,12.2077,12.2077,12.2077,12.2077,12.2077,12.2077,12.2077,12.2077,12.2077,12.2077,12.2077,12.2077,12.2077,12.2077,12.2077,12.2077,12.2077,12.2077,12.2077,12.2077,12.2077,12.2077,12.2077,12.2077,12.2077,12.2077,12.2077,12.2077,12.2077,12.2077,12.2077,12.2077,12.2077,12.2077,12.2077,12.2077,12.2077,12.2077,12.2077,12.2077,12.2077,12.2077,12.2077,12.2077,12.2077,12.2077,12.2077,12.2077,12.2077,12.2077,12.2077,12.2077,12.2077,12.2077,12.2077,12.2077,12.2077,12.2077,12.2077,12.2077,12.2077,12.2077,12.2077,12.2077,12.2077,12.2077,12.0874,11.8069,11.5416,11.4384,11.5242,11.7049,11.7989,11.7989,12.0706,12.0666,11.8029,12.0785,12.2077,7.553,8.4535,9.3223,9.3857,10.1422,10.9232,11.1135,11.0354,11.011,11.3283,11.5929,11.7431,11.6309,11.5625,11.6162,11.9052,11.8944,11.9286,12.1736,12.2077,12.2077,12.2077,12.115,12.0653,12.0955,12.0662,12.0653,12.0994,12.1638,12.2077,12.2077,12.2077,12.2077,12.2077,12.2077,12.2077,12.2077,12.2077,12.2077,12.2077,12.2077,12.2077,12.2077,12.2077,12.2077,12.2077,12.2077,12.2077,12.2077,12.2077,12.2077,12.2077,12.2077,12.2077,12.2077,12.2077,12.2077,12.2077,12.2077,12.2077,12.2077,12.2077,12.2077,12.2077,12.2077,12.2077,12.2077,12.2077,12.2077,12.2077,12.2077,12.2077,12.2077,12.2077,12.2077,12.2077,12.2077,12.2077,12.2077,12.2077,12.2077,12.2077,12.2077,12.2077,12.2077,12.2077,12.2077,12.2077,12.2077,12.2077,12.2077,12.2077,12.2077,12.2077,12.2077,12.2077,12.2077,12.2077,12.0785,11.7462,11.1558,10.9547,10.942,11.1266,11.2598,11.3306,11.3348,11.652,11.6438,11.3389,11.6561,11.8763,7.1378,7.7899,8.5755,8.798,9.4229,10.1504,10.783,10.5181,10.44,11.4953,11.8115,11.8554,11.7393,11.549,11.4807,11.6905,11.7247,11.8369,12.1638,12.2077,12.2077,12.2077,12.115,12.0906,12.198,12.1101,12.0955,12.198,12.2077,12.2077,12.2077,12.2077,12.2077,12.2077,12.2077,12.2077,12.2077,12.2077,12.2077,12.2077,12.2077,12.2077,12.2077,12.2077,12.2077,12.2077,12.2077,12.2077,12.2077,12.2077,12.2077,12.2077,12.2077,12.2077,12.2077,12.2077,12.2077,12.2077,12.2077,12.2077,12.2077,12.2077,12.2077,12.2077,12.2077,12.2077,12.2077,12.2077,12.2077,12.2077,12.2077,12.2077,12.2077,12.2077,12.2077,12.2077,12.2077,12.2077,12.2077,12.2077,12.2077,12.2077,12.2077,12.2077,12.2077,12.2077,12.2077,12.2077,12.2077,12.2077,12.2077,12.2077,12.2077,12.2077,12.2077,12.2077,12.2077,12.2077,11.7867,11.1349,10.2356,10.6153,10.6409,10.2052,10.6409,10.8704,10.8704,10.8747,10.8747,10.8704,10.8618,11.1015,6.5933,7.2917,8.0923,8.5971,9.1886,9.7696,10.2643,10.7621,11.0403,10.7879,11.1782,11.5051,11.3197,11.4075,11.5625,11.7003,11.7198,11.8076,12.0662,12.1638,12.2077,12.2077,12.115,12.0653,12.0955,12.0067,11.9872,12.0906,12.1004,12.1296,12.2077,12.2077,12.2077,12.2077,12.2077,12.2077,12.2077,12.2077,12.2077,12.2077,12.2077,12.2077,12.2077,12.2077,12.2077,12.2077,12.2077,12.2077,12.2077,12.2077,12.2077,12.2077,12.2077,12.2077,12.2077,12.2077,12.2077,12.2077,12.2077,12.2077,12.2077,12.2077,12.2077,12.2077,12.2077,12.2077,12.2077,12.2077,12.2077,12.2077,12.2077,12.2077,12.2077,12.2077,12.2077,12.2077,12.2077,12.2077,12.2077,12.2077,12.2077,12.2077,12.2077,12.2077,12.2077,12.2077,12.2077,12.2077,12.2077,12.2077,12.2077,12.2077,12.2077,12.2077,12.2077,12.2077,12.0706,11.7617,11.0303,10.4823,10.1965,10.0213,10.0082,10.1791,10.3268,10.4046,10.4046,10.7134,10.7049,10.4089,10.7177,10.9294,6.543,7.1503,7.858,8.4605,8.7756,9.1319,9.8933,10.3423,10.5034,10.1682,10.5732,10.9928,11.0172,11.2892,11.5284,11.5929,11.6406,11.7578,12.0164,12.1394,12.2077,12.2077,12.0799,11.992,11.992,11.8944,11.8749,11.9823,12.0311,12.0955,12.2028,12.2077,12.2077,12.2077,12.2077,12.2077,12.2077,12.2077,12.2077,12.2077,12.2077,12.2077,12.2077,12.2077,12.2077,12.2077,12.2077,12.2077,12.2077,12.2077,12.2077,12.2077,12.2077,12.2077,12.2077,12.2077,12.2077,12.2077,12.2077,12.2077,12.2077,12.2077,12.2077,12.2077,12.2077,12.2077,12.2077,12.2077,12.2077,12.2077,12.2077,12.2077,12.2077,12.2077,12.2077,12.2077,12.2077,12.2077,12.2077,12.2077,12.2077,12.2077,12.2077,12.2077,12.2077,12.2077,12.2077,12.2077,12.2077,12.2077,12.2077,12.2077,12.2077,12.2077,12.2077,12.0506,11.8272,11.5447,10.6836,10.1089,9.933,9.6568,9.639,9.9198,9.9286,10.0122,10.1875,10.4694,10.4608,10.1962,10.4737,10.6024,6.8167,7.2456,7.7946,8.3608,8.28,8.3846,9.62,9.4443,9.1436,9.5778,9.9486,10.3097,10.7,11.0501,11.3075,11.388,11.4991,11.6894,12.0067,0.0,12.2223,12.2223,12.0409,11.9129,11.8983,11.7919,11.7637,11.8788,11.9823,12.0897,12.1931,12.198,12.198,12.198,12.198,12.198,12.198,12.2077,12.2077,12.2077,12.2077,12.2077,12.2077,12.2077,12.2077,12.2077,12.2077,12.2077,12.2077,12.2077,12.2077,12.2077,12.2077,12.2077,12.2077,12.2077,12.2077,12.2077,12.2077,12.2077,12.2077,12.2077,12.2077,12.2077,12.2077,12.2077,12.2077,12.2077,12.2077,12.2077,12.2077,12.2077,12.2077,12.2077,12.2077,12.2077,12.2077,12.2077,12.2077,12.2077,12.2077,12.2077,12.2077,12.2077,12.2077,12.2077,12.2077,12.2077,12.2077,12.1799,12.1719,12.2037,12.1799,12.1719,12.2037,11.8191,11.5324,11.4379,10.6195,9.9462,9.5221,9.508,9.508,9.508,9.508,9.7108,10.1395,10.1395,10.1395,10.1395,10.1395,10.1395,6.26,6.6823,7.3018,8.1779,8.3949,8.5434,9.1026,9.2344,9.085,8.5553,8.8996,9.3046,9.3271,9.7305,10.3311,11.1574,11.5137,11.7686,12.0164,12.2214,12.3435,12.3435,12.2175,12.0711,11.9129,11.7919,11.7344,11.7626,11.87,11.9774,12.0808,12.0897,12.0897,12.0897,12.0897,12.0897,12.0897,12.1687,12.2077,12.2077,12.2077,12.2077,12.2077,12.2077,12.2077,12.2077,12.2077,12.2077,12.2077,12.2077,12.2077,12.2077,12.2077,12.2077,12.2077,12.2077,12.2077,12.2077,12.2077,12.2077,12.2077,12.2077,12.2077,12.2077,12.2077,12.2077,12.2077,12.2077,12.2077,12.2077,12.2077,12.2077,12.2077,12.2077,12.2077,12.2077,12.2077,12.2077,12.2077,12.2077,12.2077,12.2077,12.2077,12.2077,12.2077,12.2077,12.2077,12.2077,12.2077,11.9005,11.8191,12.1719,11.8965,11.8272,12.1799,12.1113,11.6024,10.5639,9.977,9.6167,9.5087,9.508,9.508,9.508,9.508,9.5579,9.6657,9.6657,9.6657,9.6657,9.6657,9.6657,6.3283,6.7186,7.1919,7.7653,7.9166,7.9973,8.2729,8.3461,8.2241,7.7579,8.0994,8.556,8.8029,9.2423,9.8282,10.6108,11.0012,11.3039,11.5685,11.8759,12.1189,12.2166,12.1775,12.0906,11.9774,11.8212,11.7198,11.7198,11.7822,11.8651,11.9725,12.0262,12.0311,11.9823,12.075,12.1004,12.0506,12.154,12.2077,12.2077,12.2077,12.2077,12.2077,12.2077,12.2077,12.2077,12.2077,12.2077,12.2077,12.2077,12.2077,12.2077,12.2077,12.2077,12.2077,12.2077,12.2077,12.2077,12.2077,12.2077,12.2077,12.2077,12.2077,12.2077,12.2077,12.2077,12.2077,12.2077,12.2077,12.2077,12.2077,12.2077,12.2077,12.2077,12.2077,12.2077,12.2077,12.2077,12.2077,12.2077,12.2077,12.2077,12.2077,12.2077,12.2077,12.2077,12.2077,12.2077,12.2077,11.811,11.6229,11.8723,11.4919,11.3223,11.5703,11.5867,11.1853,10.2443,9.955,9.7241,9.5131,9.508,9.508,9.508,9.508,9.6077,9.8178,9.8178,9.8178,9.8178,9.8178,9.7063,6.5918,6.9697,7.2747,7.3651,7.3065,7.2845,7.4871,7.3528,7.1868,7.2015,7.5213,7.9677,8.5197,8.9982,9.4522,9.8836,10.2432,10.6094,11.0185,11.4661,11.8261,12.0311,12.0799,12.0848,12.0311,11.8564,11.7344,11.7003,11.71,11.7637,11.8603,11.953,11.9676,11.8983,12.0701,12.1248,12.0506,12.154,12.2077,12.2077,12.2077,12.2077,12.2077,12.2077,12.2077,12.2077,0.0,12.2077,12.2077,12.2077,12.2077,12.2077,12.2077,12.2077,12.2077,12.2077,12.2077,12.2077,12.2077,12.2077,12.2077,12.2077,12.2077,12.2077,12.2077,12.2077,12.2077,12.2077,12.2077,12.2077,12.2077,12.2077,12.2077,12.2077,12.2077,12.2077,12.2077,12.2077,12.2077,12.2077,12.2077,12.2077,12.2077,12.2077,12.2077,12.2077,12.2077,12.2077,12.2077,11.7543,11.4503,11.5201,11.068,10.7899,10.8577,10.8577,10.6281,10.1133,10.0783,9.9066,9.5221,9.508,9.508,9.508,9.508,9.693,10.0783,10.0783,10.0783,10.0783,10.0783,9.8753,6.4349,6.9112,7.3651,7.3846,7.3065,7.2601,7.3846,7.1701,6.9798,7.0768,7.2894,7.492,7.5896,8.1145,8.6711,9.1026,9.5175,10.0934,10.9551,11.5381,11.9178,12.0409,12.2166,12.2214,11.9471,11.8847,11.7919,11.6016,11.671,11.7295,11.7442,11.7637,11.8115,11.8934,11.9276,11.9774,12.0506,12.154,12.2077,12.2077,12.2077,12.2077,12.2077,12.2077,12.2077,12.2077,12.2077,0.0,12.2077,12.2077,12.2077,12.2077,12.2077,12.2077,12.2077,12.2077,12.2077,12.2077,12.2077,12.2077,12.2077,12.2077,12.2077,12.2077,12.2077,12.2077,12.2077,12.2077,12.2077,12.2077,12.2077,12.2077,12.2077,12.2077,12.2077,12.2077,12.2077,12.2077,12.2077,12.2077,12.2077,12.2077,12.2077,12.2077,12.2077,12.2077,12.2077,12.2077,12.2077,11.4795,11.1143,11.4873,10.7856,10.4436,10.8323,10.862,10.5038,9.6613,9.6077,9.5803,9.5042,9.508,9.508,9.508,9.508,9.54,9.6077,9.6077,9.6077,9.6077,9.6077,9.5713,6.6406,7.1138,7.5359,7.4164,7.3504,7.3114,7.304,7.1894,7.0771,7.0768,7.1989,7.3382,7.4602,7.8629,8.319,8.7532,9.1856,9.7225,10.461,11.2306,11.7811,11.9481,12.158,12.2272,12.0799,11.9628,11.8299,11.665,11.6455,11.6406,11.6406,11.6905,11.7442,11.8017,11.9188,12.0018,12.0506,12.0955,12.1492,12.2077,12.2077,12.2077,12.2077,12.2077,12.2077,12.2077,12.2077,12.2077,12.2077,12.2077,12.2077,12.2077,12.2077,12.2077,12.2077,12.2077,12.2077,12.2077,12.2077,12.2077,12.2077,12.2077,12.2077,12.2077,12.2077,12.2077,12.2077,12.2077,12.2077,12.2077,12.2077,12.2077,12.2077,12.2077,12.2077,12.2077,12.2077,12.2077,12.2077,12.2077,12.2077,12.2077,12.2077,12.2077,12.2077,12.2077,12.2077,12.1193,11.8723,11.2643,10.8407,10.8068,10.2139,9.9022,10.1133,10.1308,9.9506,9.5311,9.508,9.508,9.508,9.508,9.508,9.508,9.508,9.508,9.508,9.508,9.508,9.508,9.508,9.508,7.2579,0.0,7.9556,7.8604,7.7458,7.6189,0.0,7.3577,7.2308,7.1036,7.1794,7.3186,7.492,7.7579,8.0968,8.5239,8.8703,9.3223,9.9958,10.7474,11.3575,11.703,11.9491,12.076,12.0223,11.9432,11.8359,11.6954,11.6113,11.5625,11.5625,11.6455,11.6954,11.7198,11.8857,11.9872,12.0164,12.0409,12.0906,12.1736,12.198,12.2077,12.2077,12.2077,12.2077,12.2077,12.2077,12.2077,12.2077,12.2077,12.2077,12.2077,12.2077,12.2077,12.2077,12.2077,12.2077,12.2077,12.2077,12.2077,12.2077,12.2077,12.2077,12.2077,12.2077,12.2077,12.2077,12.2077,12.2077,12.2077,12.2077,12.2077,12.2077,12.2077,12.2077,12.2077,12.2077,12.2077,12.2077,12.2077,12.2077,12.2077,12.2077,12.2077,12.2077,12.2077,12.1153,11.9206,11.5692,11.0343,10.5596,10.2226,9.7774,9.508,9.508,9.508,9.508,9.508,9.508,9.508,9.508,9.508,9.508,9.508,9.508,9.508,9.508,9.508,9.508,9.508,9.508,9.508,0.0,8.7345,8.8322,9.1075,8.8,8.383,8.1806,7.7385,0.0,7.1159,7.2356,7.3797,7.3944,7.5847,7.8801,8.3098,8.4101,8.7882,9.8379,10.1227,10.4985,11.216,11.5685,11.6797,11.4882,11.7274,11.8104,11.5918,11.5674,11.5625,11.5625,11.5723,11.6211,11.7198,11.7344,11.7968,11.9081,12.0018,12.0555,12.0653,12.1589,12.2077,12.2077,12.2077,12.2077,0.0,12.2077,12.2077,12.2077,12.2077,12.2077,12.2077,12.2077,12.2077,12.2077,12.2077,12.2077,12.2077,12.2077,12.2077,12.2077,12.2077,12.2077,12.2077,12.2077,12.2077,12.2077,12.2077,12.2077,12.2077,12.2077,12.2077,12.2077,12.2077,12.2077,12.2077,12.2077,12.2077,12.2077,12.2077,12.2077,12.2077,12.2077,12.2077,12.2077,12.2077,11.8433,11.561,11.5283,10.7686,10.2182,10.1919,9.7774,9.508,9.508,9.508,9.508,9.508,9.508,9.508,9.508,9.508,9.508,9.508,9.508,9.508,9.508,9.508,9.508,9.508,9.508,9.508,8.8126,9.1319,9.4199,9.332,9.1094,8.8069,8.3955,8.0337,7.6676,7.2552,7.2894,7.3871,7.3871,7.5701,7.8776,8.3754,8.5121,8.9074,9.9275,10.2774,10.6826,11.3673,11.6748,11.8261,11.8115,11.7334,11.6797,11.665,11.6016,11.5625,11.5625,11.5625,11.5821,11.626,11.626,11.6797,11.7871,11.8271,11.8847,11.953,12.0604,12.1101,12.1101,12.1784,12.2077,12.2077,12.2077,12.2077,0.0,12.2077,12.2077,12.2077,12.2077,12.2077,12.2077,12.2077,12.2077,12.2077,12.2077,12.2077,12.2077,12.2077,12.2077,12.2077,12.2077,12.2077,12.2077,12.2077,12.2077,12.2077,12.2077,12.2077,12.2077,12.2077,12.2077,12.2077,12.2077,12.2077,12.2077,12.2077,12.2077,12.2077,12.2077,12.2077,12.2077,12.2077,11.8191,11.4297,11.1519,10.5724,10.0783,9.7951,9.6077,9.508,9.508,9.508,9.508,9.508,9.508,9.508,9.508,9.508,9.508,9.508,9.508,9.508,9.508,9.508,9.508,9.508,9.508,9.508,9.3692,9.6932,9.973,9.8511,9.6657,9.3503,8.7512,8.3629,7.9628,7.3577,7.3138,7.3871,7.3871,7.5701,7.8704,8.3391,8.5581,9.0118,9.9909,10.4092,10.8242,11.3966,11.6309,11.7822,11.8895,11.7578,11.6699,11.6748,11.6065,11.5625,11.5625,11.5625,11.5625,11.5625,11.5625,11.6016,11.671,11.7052,11.7626,11.8407,11.9481,12.0018,12.0067,12.1101,12.1394,12.1101,12.1443,12.1394,12.1101,12.1443,12.1589,12.1589,12.198,12.2077,12.2077,12.2077,12.2077,12.2077,12.2077,12.2077,12.2077,12.2077,12.2077,12.2077,12.2077,12.2077,12.2077,12.2077,12.2077,12.2077,12.2077,12.2077,12.2077,12.2077,12.2077,12.2077,12.2077,12.2077,12.2077,12.2077,12.2077,12.2077,12.2077,12.2077,12.1551,12.0097,11.6024,11.1516,10.7091,10.253,9.8532,9.54,9.508,9.508,9.508,9.508,9.508,9.508,9.508,9.508,9.508,9.508,9.508,9.508,9.508,9.508,9.508,9.4769,9.4769,9.5042,9.4731,9.4769,10.3149,10.5264,10.5229,10.8451,10.6025,10.0869,9.3308,8.7463,8.1486,7.3919,7.3163,7.3871,7.3895,7.5701,7.8264,8.1539,8.4709,9.0138,9.9909,10.4092,10.7789,11.2062,11.349,11.4563,11.5577,11.7714,11.8055,11.5821,11.5625,0.0,11.5625,11.5625,11.5625,11.5625,11.5625,11.5625,11.5625,11.6699,11.7198,11.7198,11.8359,11.8934,11.8983,12.0018,11.992,11.9032,12.0067,11.992,0.0,12.0067,12.0506,12.0565,12.1638,12.2077,12.2077,12.2077,12.2077,12.2077,12.2077,12.2077,12.2077,12.2077,12.2077,12.2077,12.2077,12.2077,12.2077,12.2077,12.2077,12.2077,12.2077,12.2077,12.2077,12.2077,12.2077,12.2077,12.2077,12.2077,12.2077,12.2077,12.2037,12.1998,12.1998,12.1958,12.0426,11.5902,11.1349,10.6793,10.24,9.7868,9.508,9.508,9.508,9.508,9.508,9.508,9.508,9.508,9.5042,9.5042,9.5042,9.5042,9.5042,9.5042,9.5042,9.5042,9.5042,9.4117,9.4117,9.5042,9.4117,9.4199,10.0153,10.4009,10.8025,10.9036,10.7719,10.3863,9.4815,8.9786,8.466,7.6336,7.4261,7.4139,7.4944,7.6823,7.9312,8.2587,8.7073,9.243,9.9258,10.4888,10.9671,11.3197,11.5967,11.7334,11.6846,11.8749,11.914,11.6905,11.6065,11.5625,11.5625,11.5625,11.5625,11.5625,11.5625,11.5625,11.5625,11.5967,11.6113,11.6113,11.7236,11.7773,11.7773,11.8895,11.9276,11.8983,11.9325,11.9276,0.0,11.9325,11.9471,11.9569,12.0604,12.0955,12.1052,12.1833,12.2077,12.2077,12.2077,12.2077,12.2077,12.2077,12.2077,12.2077,12.2077,12.2077,12.2077,12.2077,12.2077,12.2077,12.2077,12.2077,12.2077,12.2077,12.2077,12.2077,12.2077,12.2077,12.2077,12.2077,11.9495,11.7293,11.7293,11.4672,11.2144,11.0808,10.675,10.3313,10.2008,9.7868,9.508,9.508,9.508,9.508,9.508,9.508,9.508,9.508,9.4465,9.4079,9.4079,9.3591,9.325,9.325,9.325,9.3553,9.4123,9.3244,9.3282,9.4079,9.3813,9.3851,10.2414,10.5781,10.9147,10.8743,10.8451,10.5522,9.5011,9.0763,8.6487,7.7459,7.47,7.4627,7.7019,7.8873,8.1535,8.6048,9.0197,9.5077,10.1406,10.6303,11.0611,11.427,11.6846,11.7968,11.7295,11.8847,11.914,11.7344,11.626,11.5625,11.5625,11.5625,11.5625,11.5625,11.5625,11.5625,11.5625,11.5625,11.5625,11.5625,11.6309,11.6602,11.665,11.7773,11.8017,11.7714,11.8066,11.8017,0.0,11.8066,11.8261,11.8407,11.992,12.0506,12.0653,12.1687,12.2077,12.2077,12.2077,12.2077,12.2077,12.2077,12.2077,12.2028,12.1589,12.1736,12.198,12.1589,12.1736,12.2077,12.2077,12.2077,12.2077,12.2077,12.2077,12.2077,12.2077,12.2077,12.1512,11.9736,11.7171,11.4708,11.2975,11.0431,10.8027,10.6238,10.3614,10.122,9.9374,9.6746,9.508,9.508,9.4731,9.4503,9.4503,9.4503,9.4503,9.4503,9.3743,9.3206,9.3206,9.2794,9.2528,9.2528,9.2528,9.2794,9.3206,9.2794,9.275,9.3206,9.3206,9.3206,10.7426,10.8952,10.9036,10.8095,10.8451,10.6073,9.4479,9.0899,8.7317,7.785,7.4895,7.5286,7.9479,8.1584,8.4639,9.085,9.4199,9.8477,10.5591,10.8451,11.1281,11.5186,11.6564,11.7198,11.7198,11.8261,11.8456,11.7295,11.6357,11.5723,11.5528,11.5528,11.5528,11.5625,11.5625,11.5625,11.5625,11.5625,11.5625,11.5625,11.5625,11.5625,11.5674,11.6612,11.6515,11.5723,11.6612,11.6553,0.0,11.6699,11.7052,11.7295,11.9394,12.0174,12.036,12.1492,12.1931,12.198,12.2077,12.2077,12.2077,12.2077,12.2028,12.1784,12.0906,12.1248,12.1736,12.0799,12.1199,12.1931,12.1931,12.2028,12.2077,12.2077,12.2077,12.2077,12.2077,12.2077,12.0825,11.6724,11.5242,11.3389,10.9338,10.7942,10.5981,10.1875,10.1139,9.9607,9.5465,9.489,9.4852,9.4928,9.4275,9.3775,9.3699,9.3699,9.3699,9.3699,9.2864,9.2452,9.2528,9.2376,9.23,9.23,9.23,9.2338,9.2414,9.2338,9.2338,9.2414,9.2414,9.2414,10.4366,10.6659,10.9196,10.8988,10.8451,10.5571,9.628,9.2002,8.7728,7.9703,7.653,7.6262,7.9651,8.3971,8.8615,9.3399,10.0235,10.6059,10.9342,11.2404,11.46,11.5528,11.6564,11.7198,11.7198,11.8261,11.8456,11.7295,11.7003,11.6173,11.4514,11.4417,11.4807,11.5625,11.5625,11.5625,11.5625,11.5625,11.5625,11.5625,11.5625,11.5625,11.5625,11.5869,11.5869,11.5674,11.5869,11.5869,11.5674,11.5918,11.5967,11.6113,11.7393,11.793,11.8174,12.0164,12.0848,12.0955,12.1784,12.2077,12.2077,12.2077,12.1492,12.0955,12.154,12.1296,12.0799,12.0604,12.0701,12.0848,12.0848,12.1443,12.2077,12.2077,12.2077,12.2077,12.2077,12.2077,12.1799,12.0785,11.4878,10.9759,10.8789,10.2704,9.7641,9.6702,9.59,9.5078,9.4098,9.3478,9.3326,9.3889,9.4465,9.4465,9.3775,9.3699,9.3699,9.3699,9.2294,9.1801,9.249,9.1231,9.0548,9.0548,9.0548,9.0852,9.1454,9.0852,9.0852,9.1454,9.1454,9.1454,10.5327,10.6791,10.8353,10.79,10.806,10.6303,9.8233,9.4638,9.1045,8.4019,7.9628,7.8092,8.1287,8.6264,9.1338,9.5663,10.2725,10.8597,11.1245,11.3087,11.4552,11.5528,11.6162,11.6504,11.6504,11.748,11.7675,11.6553,11.6504,11.5772,11.4173,11.4124,11.4356,11.4882,11.5419,11.5625,11.5625,11.5625,11.5625,11.5625,11.5625,11.5625,11.5625,11.5625,11.5625,11.5625,11.5625,11.5625,11.5625,11.5625,11.5625,11.5772,11.6808,11.7198,11.7393,11.914,11.9774,11.9823,12.0409,12.0604,12.0604,12.0604,12.0555,12.0516,12.0604,12.0555,12.0409,11.992,11.9774,11.9774,11.9774,12.0164,12.0701,12.1199,12.1345,12.1443,12.198,12.2077,12.1432,11.9206,11.3306,10.7942,10.5767,9.9638,9.508,9.508,9.4275,9.3699,9.3699,9.2294,9.1459,9.1877,9.2674,9.2978,9.2516,9.2479,9.2479,9.2479,9.1302,9.0814,9.1269,9.0472,9.0016,9.0016,9.0016,9.0206,9.0581,9.0581,9.0581,9.0619,9.0999,9.0961,10.6924,10.7558,10.7509,10.6616,10.7558,10.6938,10.0072,9.7469,9.4784,8.8996,8.4019,8.1629,8.466,8.9777,9.4772,9.8755,10.4985,11.0208,11.2746,11.3234,11.3917,11.5479,11.5625,11.5625,11.5625,11.6455,11.6602,11.5723,11.5479,11.504,11.4173,11.3929,11.3819,11.3808,11.4686,11.5186,11.5381,11.5577,11.5625,11.5625,11.5625,11.5625,11.5625,11.5625,11.5625,11.5625,11.5625,0.0,11.5625,11.5625,11.5211,11.4618,11.5489,11.5368,11.4965,11.6843,11.7549,11.7675,11.8653,11.8983,11.8818,11.7878,11.7623,11.7721,11.7799,11.8323,11.8466,11.6886,11.6957,11.7549,11.7549,11.7694,11.8276,11.9862,12.0262,12.0506,12.1345,12.1687,12.0464,11.5949,11.1501,10.6918,10.2208,9.7657,9.4579,9.4579,9.3857,9.3237,9.3237,9.1497,9.0206,9.0206,9.0923,9.134,9.1188,9.1188,9.1188,9.1188,9.0429,9.0054,9.0206,9.0092,9.0016,9.0016,9.0016,9.0016,9.0016,9.0619,9.0619,9.0016,9.0657,9.0619,10.4971,10.7021,10.7656,10.7509,10.7021,10.5556,10.1715,9.8543,9.5614,9.2832,9.0265,8.9191,9.1466,9.7047,10.217,10.4629,11.1184,11.5783,11.5284,11.6065,11.632,11.5723,11.5625,11.5625,11.5625,11.5772,11.5821,11.5674,11.4807,11.427,11.4124,11.3283,11.2746,11.2746,11.2892,11.3429,11.427,11.5235,11.5625,11.5625,11.5625,11.5625,11.5625,11.5625,11.5625,11.5625,11.5625,11.5625,11.5625,11.5625,11.345,11.0095,11.0266,10.8046,10.5334,11.0135,11.1889,11.2578,11.7307,11.8983,11.8159,11.3431,10.9479,10.7378,11.2007,11.276,11.132,10.7432,10.903,11.1889,11.1889,11.262,11.4364,11.8227,11.9178,11.9227,11.9374,12.0067,11.9433,11.5085,11.059,10.5839,10.0566,9.589,9.287,9.287,9.2105,9.1492,9.1492,9.1226,9.0999,9.0999,9.1801,9.2029,9.1226,9.1188,9.1188,9.1188,9.0429,9.032,9.0999,9.0396,9.0016,9.0016,9.0016,9.0016,9.0016,9.013,9.013,9.0016,9.013,9.0092,10.209,10.4156,10.5278,10.6484,10.6435,10.5786,10.4336,10.2383,10.0105,9.7403,9.5077,9.3711,9.4004,9.8884,10.3536,10.5752,11.1379,11.549,11.5625,11.6065,11.6162,11.5723,11.5625,0.0,11.5625,11.5625,11.5625,11.5625,11.5235,11.471,11.4124,11.3685,11.3392,11.3392,11.2843,11.3039,11.4075,11.4563,11.5088,11.5625,11.5625,11.5625,11.5625,11.5625,11.5625,11.5625,0.0,11.5625,11.5625,11.5625,11.4521,11.284,11.2831,11.0203,10.6732,10.9065,10.8378,10.669,10.909,10.9905,10.9537,10.7137,10.548,10.4835,10.7222,10.7606,10.6803,10.491,10.5324,10.6322,10.6322,10.8506,11.1303,11.3799,11.6215,11.8163,11.8836,11.9286,11.9073,11.7214,11.1192,10.4938,10.0154,9.5537,9.2528,9.2528,9.1763,9.0999,9.0543,9.0885,9.0999,9.0543,9.1269,9.1421,9.0581,9.0505,9.0505,9.0505,9.0206,9.0168,9.0467,9.0206,9.0016,9.0016,9.0016,9.0016,9.0016,9.0016,9.0016,9.0016,9.0016,9.0016,9.825,10.0397,10.1828,10.4629,10.5312,10.5312,10.5312,10.4595,10.3326,10.0983,9.9421,9.8201,9.7452,10.1227,10.5,10.6679,11.1184,11.4698,11.5186,11.5723,11.5967,11.5674,0.0,11.5625,11.5625,11.5625,0.0,11.5625,11.5625,11.5333,11.4514,11.4222,11.4124,11.4124,11.3087,11.2941,11.3685,11.3685,11.4112,11.4844,11.5137,11.5284,11.5284,11.5528,11.5625,11.5625,11.5625,11.5625,11.5625,11.5625,11.5023,11.3916,11.2793,10.9778,10.5978,10.5972,10.3906,10.102,9.9968,9.9561,9.9765,10.0818,10.1002,10.0941,10.2005,10.2332,10.2126,10.1022,10.0923,10.1181,10.1181,10.3551,10.6473,10.8342,11.207,11.5416,11.6283,11.7568,11.8505,11.8505,11.2312,10.6009,10.2794,9.7381,9.3142,9.2056,9.1307,9.0733,9.0358,9.1042,9.1188,9.0396,9.0999,9.1307,9.07,9.0434,9.0396,9.0624,9.0244,9.0092,9.032,9.013,9.0016,9.0016,9.0016,8.9903,8.9713,8.9903,8.9903,8.9713,8.9903,9.0016,9.3186,9.5938,9.7762,10.1975,10.2999,10.2999,10.2999,10.2917,10.2902,10.2707,10.3341,10.396,10.3912,10.661,10.8952,10.905,11.2746,11.5235,11.4319,11.5881,11.6759,0.0,0.0,0.0,0.0,0.0,0.0,11.5625,11.5625,11.5625,11.5577,11.4612,11.4124,11.4124,11.3087,11.255,11.2648,11.2648,11.2648,11.2697,11.3685,11.4173,11.4222,11.5235,11.5625,11.5625,11.5625,11.5625,11.5625,11.5625,11.326,10.9157,10.5063,10.0858,9.7106,9.7106,9.6941,9.6157,9.206,9.0658,9.1339,9.5411,9.4034,9.1462,9.5616,9.6858,9.5948,9.1884,9.3616,9.6735,9.6735,9.69,9.8091,10.2232,10.649,10.9669,10.9731,11.3755,11.7295,11.7295,11.3638,11.0484,11.0286,10.2395,9.4823,9.073,9.0092,9.0278,9.1037,9.1915,9.2105,9.1188,9.1915,9.2452,9.2414,9.1611,9.1454,9.2338,9.089,9.0358,9.1074,9.0353,9.0016,9.0016,9.0016,8.9637,8.8882,8.9637,8.9599,8.892,8.9637,9.0016,8.966,9.2002,9.3485,9.8462,9.973,10.0072,10.1487,10.1828,10.1828,10.1828,10.3228,10.44,10.44,10.5996,10.7865,10.9928,11.0953,11.1916,11.299,11.4319,11.5051,11.471,11.5235,11.5625,0.0,0.0,11.5625,11.5625,11.5625,11.5625,11.5625,11.5333,11.5088,11.5088,11.4075,11.3539,11.3539,11.3539,11.3197,11.255,11.2941,11.3136,11.3136,11.3478,11.3673,11.3673,11.4405,11.4698,11.471,11.5381,11.3145,10.9079,10.7557,10.263,9.6405,9.6405,9.4703,9.206,9.053,9.0358,9.099,9.2536,9.2021,9.0919,9.2001,9.2312,9.1975,9.0446,9.1085,9.2312,9.2312,9.4328,9.6817,9.8337,10.1987,10.5854,10.8651,11.0723,11.2904,11.5681,11.2742,10.8915,10.6148,10.0503,9.5155,9.1304,9.1231,9.1725,9.1991,9.275,9.294,9.2143,9.2788,9.3054,9.2566,9.2219,9.2181,9.2528,9.1996,9.1269,9.0429,9.0168,8.9485,8.838,8.838,8.8228,8.7966,8.8228,8.8228,8.7966,8.8228,8.838,8.3803,8.6487,8.9025,9.4022,9.6364,9.7925,9.973,10.0706,10.1081,10.0349,10.2121,10.3829,10.3829,10.479,10.6338,10.8841,10.9245,10.9733,11.1233,11.266,11.3685,11.4075,11.471,0.0,0.0,0.0,11.5284,11.5625,11.5625,11.5625,11.5625,11.5625,11.5625,11.5625,11.4991,11.4466,11.4124,11.4124,11.3587,11.255,11.216,11.216,11.255,11.255,11.255,11.2599,11.3283,11.3587,11.3513,11.2793,11.0835,10.7987,10.5186,10.0599,9.5385,9.3947,9.1973,9.0016,9.0016,9.0316,9.0771,9.0771,9.0771,9.0657,9.0168,9.0016,8.9941,8.9675,8.9599,8.9599,8.9599,9.1716,9.3927,9.4206,9.7558,10.1464,10.4308,10.7198,10.9669,11.106,11.0203,10.7903,10.3551,9.9487,9.5974,9.3656,9.2868,9.2642,9.2864,9.3623,9.3813,9.3022,9.3623,9.3971,9.3402,9.3098,9.306,9.3364,9.2522,9.1687,9.089,9.0054,8.9067,8.7966,8.7621,8.7356,8.709,8.7356,8.7356,8.709,8.7356,8.7621,7.5652,7.9413,8.4318,8.8732,9.293,9.6298,9.7437,9.934,10.0349,9.8315,10.0462,10.2625,10.2673,10.3536,10.4644,10.5835,10.7719,10.905,10.9147,11.1086,11.2843,11.388,11.4026,11.4466,0.0,11.4612,11.4466,11.5528,11.5625,11.5625,11.5625,11.5625,11.5625,11.5625,11.5625,11.5186,11.4173,11.4173,11.3636,11.2599,11.144,11.1489,11.255,11.255,11.255,11.2502,11.255,11.255,11.216,10.8157,10.6382,10.5352,9.7258,9.3955,9.3232,8.9038,8.8532,8.9979,8.9979,9.0016,9.0054,9.0054,9.0054,9.0054,9.0016,9.0016,8.9827,8.9071,8.8844,8.8844,8.8844,8.8844,8.9033,8.9789,9.3157,9.624,9.6405,10.2951,10.7629,10.3591,10.6214,10.7714,10.3395,9.9827,9.7583,9.7415,9.4644,9.2832,9.3547,9.4427,9.4655,9.3775,9.4503,9.508,9.508,9.4237,9.4041,9.4966,9.2636,9.1568,9.2414,9.0135,8.8844,8.8806,8.7928,8.709,8.6334,8.709,8.709,8.6372,8.7128,8.7966,7.7214,7.7214,7.7946,8.3879,8.6271,8.7834,9.0441,9.2149,9.3857,9.6346,9.7567,9.8445,9.9194,10.0251,10.1569,10.3472,10.4219,10.5439,10.7767,10.928,11.0513,11.1587,11.2465,11.3087,11.338,11.3136,11.3392,11.4466,11.4514,11.4893,11.5625,11.5625,11.5625,11.5625,11.5625,11.5528,11.5235,11.5235,11.4698,11.3685,11.3343,11.2953,11.255,11.255,11.2075,11.1343,11.2209,11.2062,11.1234,11.0941,10.7211,10.152,9.9875,9.5542,8.9974,8.8153,8.8194,8.9261,8.9789,9.0353,9.0847,9.0847,9.0847,9.0733,9.0168,9.0016,8.9979,8.9713,8.9299,8.8844,8.8844,8.8844,8.8882,8.9109,9.0494,9.2649,9.5742,9.7837,9.9848,10.234,10.379,10.3409,9.9664,9.8748,9.75,9.4409,9.3121,9.2604,9.2788,9.306,9.3364,9.3661,9.4503,9.508,9.508,9.4237,9.3813,9.4041,9.2864,9.1687,9.0738,9.0016,8.9105,8.789,8.7583,8.7356,8.7128,8.7356,8.7356,8.7166,8.7394,8.7621,7.1431,7.0024,6.9547,7.3397,7.5686,7.8161,8.2651,8.5208,8.7754,9.1628,9.3853,9.5517,9.6998,9.7859,9.9063,0.0,10.2268,10.3487,10.5425,10.6986,10.8499,10.9977,10.9964,11.0244,11.1086,11.1184,11.1818,11.338,11.3478,11.388,11.4991,11.504,11.5235,11.5625,11.5625,11.5625,11.5625,11.5625,11.5333,11.471,11.4319,11.3782,11.3185,11.2746,11.2209,11.1587,11.2258,11.216,11.1333,10.8454,10.4402,9.9611,9.6653,9.2576,8.827,8.8498,8.8878,8.9371,8.9827,9.0278,9.0657,9.0657,9.0657,9.0581,9.013,9.0016,8.9941,8.9599,8.9185,8.8844,8.8844,8.8844,8.892,8.9261,8.9675,9.07,9.3197,9.4759,9.608,9.7229,9.895,9.8913,9.505,9.5124,9.4976,9.2844,9.2528,9.2528,9.2528,9.2528,9.2718,9.313,9.3667,9.4016,9.4016,9.3516,9.3206,9.3206,9.2408,9.1383,9.0054,8.9675,8.8878,8.7507,8.7469,8.7469,8.7469,8.7469,8.7469,8.7469,8.7469,8.7469,6.1074,6.0108,6.0765,6.0816,6.359,6.7876,0.0,7.7354,8.0603,8.4055,8.7967,9.1557,9.3959,9.5051,9.6298,9.877,10.1032,10.2658,10.3146,10.4741,10.6582,10.8318,10.7021,10.6679,10.8548,10.8841,10.9817,11.2014,11.216,11.2697,11.388,11.3929,11.4356,11.5284,11.543,11.5479,11.5479,11.5577,11.5625,11.5625,11.471,11.427,11.4222,11.3331,11.2892,11.2892,11.2795,11.2746,11.211,10.3944,10.0346,9.9138,9.1328,8.8073,8.7925,8.9405,9.0016,9.0016,9.0016,9.0016,9.0016,9.0016,9.0016,9.0016,9.0016,9.0016,8.9865,8.9185,8.8882,8.8844,8.8844,8.8844,8.9033,8.9713,8.9941,9.0016,9.0016,9.2909,9.4499,9.0704,9.3113,9.4494,9.0772,9.0771,9.153,9.2186,9.2262,9.2262,9.2262,9.2262,9.23,9.2376,9.2376,9.2414,9.2528,9.2452,9.2376,9.2376,9.1535,9.0733,9.0016,8.9261,8.8422,8.7659,8.7545,8.7469,8.7469,8.7469,8.7469,8.7469,8.7469,8.7431,0.0,0.0,0.0,0.0,0.0,0.0,0.0,6.3546,6.5945,7.0582,7.4285,7.7818,8.1505,8.6475,9.1251,9.5157,9.8331,10.1553,10.4971,10.5068,10.4546,10.4122,10.4497,10.4888,10.5278,10.6191,10.7607,10.9768,10.9879,11.0793,11.2746,11.2843,11.2941,11.3136,11.3966,11.4417,11.4417,11.5235,11.5625,11.5625,11.543,11.5381,11.5333,11.5137,11.504,11.4991,11.4173,11.3782,11.3363,10.7395,10.2941,9.9498,9.5135,9.1846,8.9561,8.9865,9.0016,9.0016,9.0016,9.0016,9.0016,9.0016,9.0016,9.0016,9.0016,9.0016,8.9979,8.9827,8.9337,8.8844,8.8844,8.8844,8.8882,8.9033,8.9523,9.0016,9.0016,9.0164,9.0274,9.0034,9.07,9.1189,9.098,9.1687,9.1882,9.0662,9.0472,9.0472,9.0472,9.0472,9.0738,9.134,9.1416,9.1725,9.249,9.1877,9.1416,9.1416,9.07,9.0168,9.0016,8.9261,8.8768,8.8578,8.7811,8.7469,8.7469,8.7469,8.7469,8.7469,8.7469,8.7128,0.0,0.0,0.0,0.0,0.0,0.0,0.0,0.0,0.0,0.0,0.0,6.9001,0.0,0.0,8.6118,9.0859,9.6182,10.0479,10.266,10.3326,10.3439,10.2868,10.3292,10.3585,10.3585,10.4595,10.5669,10.6742,10.7328,10.8597,11.0793,11.0891,11.1428,11.2502,11.3087,11.3295,11.3295,11.3868,11.4356,11.4893,11.4893,11.5186,11.5625,11.5625,11.5625,11.5625,11.5137,11.4893,11.4658,11.1995,10.7134,10.0678,9.3839,9.0178,8.8722,8.8722,8.8722,8.8722,8.8722,8.8722,8.8722,8.8722,8.9067,8.9409,8.9409,8.9675,9.0016,9.0016,8.9713,8.9409,8.9409,8.9409,8.9409,8.9409,8.9713,9.0016,9.0016,8.9675,8.9523,8.9941,9.0016,9.013,9.0505,9.0966,9.0966,9.013,9.0016,9.0016,9.0016,9.0016,8.9675,8.8798,8.9523,8.9827,8.9489,8.9789,9.0168,9.0543,8.9865,8.9219,8.876,8.8384,8.7739,8.6903,8.6903,8.6635,8.6179,8.6179,8.6179,8.6179,8.4549,8.379,0.0,0.0,0.0,0.0,0.0,0.0,0.0,0.0,0.0,0.0,0.0,0.0,0.0,0.0,0.0,8.5706,9.3108,9.8543,9.9844,10.1325,10.217,10.1893,10.2268,10.2365,10.1926,10.3082,10.3765,10.3765,10.4873,10.6303,10.8171,10.8548,10.9573,11.1526,11.1818,11.2014,11.2172,11.2453,11.299,11.3782,0.0,0.0,11.504,11.504,11.504,11.504,11.504,11.504,11.504,11.504,11.0028,10.1376,9.2255,8.8215,8.7469,8.7469,8.7469,8.7469,8.7469,8.7469,8.7469,8.7469,8.7966,8.8536,8.8536,8.8991,0.0,8.9523,8.9523,8.9561,8.9713,8.9789,8.9789,8.9979,9.0016,9.0016,9.0016,9.0016,9.0016,9.0016,9.0016,9.0016,9.0016,8.9751,8.9333,8.8878,8.8915,8.8991,8.8802,8.9219,8.8764,8.6751,8.8084,8.8502,8.7131,8.7552,8.8464,8.9903,8.846,8.7207,8.6293,8.6103,8.5155,8.3297,8.3676,8.3828,8.3752,8.36,8.3676,8.3866,7.8331,7.6934,0.0,0.0,0.0,0.0,0.0,0.0,0.0,0.0,0.0,0.0,0.0,0.0,0.0,0.0,0.0,0.0,8.7082,9.4479,10.03,10.0495,9.9665,9.8657,10.0218,10.0657,9.8706,10.0414,10.1618,10.1618,10.2609,10.3683,10.4888,0.0,0.0,0.0,0.0,11.0074,11.0965,11.2026,11.2599,11.2746,11.2746,11.2795,11.2892,11.2892,11.2892,11.2892,11.2892,11.2892,11.2892,11.2892,10.7885,9.9793,9.5037,9.0802,8.7469,8.7469,8.7469,8.7469,8.7469,0.0,0.0,8.7469,8.7545,8.7621,8.7621,8.7697,8.7773,8.7773,8.7773,8.7925,8.8768,8.8957,8.9147,8.9827,9.0016,9.0016,9.0016,9.0016,9.0016,9.0016,9.0016,9.0016,9.0016,8.8764,8.6976,8.4817,8.5043,8.5271,8.4589,8.641,8.7659,8.7356,0.0,0.0,8.9599,8.6375,8.5957,8.9751,8.5686,8.2764,8.2006,8.1285,7.9765,7.7222,7.5782,7.654,7.9425,7.8741,7.9196,8.0297,6.6622,6.4185,0.0,0.0,0.0,0.0,0.0,0.0,0.0,0.0,0.0,0.0,0.0,0.0,0.0,0.0,0.0,0.0,8.1254,8.7111,8.7161,9.038,9.3026,9.3799,9.7128,9.8543,9.6378,9.6243,9.7147,9.9211,9.6462,9.636,10.0212,9.8772,9.9294,10.2639,10.1444,10.2044,10.4678,10.3034,10.2759,10.3871,10.3871,10.4394,10.542,10.542,10.542,10.542,10.542,10.542,10.542,10.542,10.1857,0.0,0.0,0.0,0.0,0.0,8.4547,8.4547,8.4547,8.4547,8.4547,8.4547,8.4889,8.5309,8.5309,8.565,8.6103,8.6635,8.6827,8.7017,8.7852,8.8042,8.8156,8.8456,8.8532,8.8532,8.8532,8.8953,8.9337,8.9337,8.9675,0.0,8.8684,8.8384,8.789,8.6868,8.7359,8.7928,8.808,8.8987,8.9063,8.7621,8.8987,8.9409,8.7966,8.6676,0.0,0.0,0.0,8.5003,8.4246,8.3373,0.0,0.0,0.0,7.2708,7.2173,6.9439,0.0,0.0,5.7783,5.6139,0.0,0.0,0.0,0.0,0.0,0.0,0.0,0.0,0.0,0.0,0.0,0.0,0.0,0.0,0.0,0.0,0.0,7.7232,7.44,8.02,8.5407,8.7164,9.2109,9.4238,9.1541,9.1416,9.218,9.3769,9.006,8.9767,9.4512,9.2129,9.262,9.6944,9.4805,9.4972,9.805,9.5541,9.4994,9.6431,9.6656,9.745,9.8768,9.8768,9.8768,9.8768,9.8768,9.8768,9.8768,9.8768,9.627,9.2038,8.7909,8.4465,8.1777,8.1777,8.1777,8.1777,8.1777,8.1777,8.1777,8.1777,8.2234,8.2766,8.2766,8.3336,8.4056,8.4739,8.5081,8.5461,8.6258,8.6445,8.6559,8.7052,8.7166,8.7204,8.7431,8.8004,8.8502,8.8502,8.8536,8.8232,8.6976,8.7131,8.7438,8.7438,8.789,0.0,8.9367,9.0088,8.9898,8.8342,8.9295,8.9295,8.7473,8.6331,8.6562,8.8346,8.6293,8.5306,8.5916,8.3752,8.1322,7.874,7.3726,6.9553,0.0,0.0,0.0,0.0,0.0,0.0,0.0,0.0,0.0,0.0,0.0,0.0,0.0,0.0,0.0,0.0,0.0,0.0,0.0,0.0,0.0,0.0,0.0,0.0,6.6311,7.2791,7.7556,7.8294,8.439,8.6885,8.2661,8.5975,8.7066,8.3902,8.4425,8.5696,8.7497,8.772,8.9093,9.1898,9.1153,9.1214,9.2392,9.3065,9.3403,9.3447,9.4337,9.4782,9.4826,9.4826,9.4826,9.4826,9.4826,9.4826,9.4826,9.4826,9.2468,8.8257,8.2576,8.0297,8.0145,8.0145,8.0145,8.0145,8.0145,8.0145,8.0145,8.0145,8.0183,8.0183,8.0183,8.0753,8.136,8.1398,8.1929,8.2764,8.3678,8.3906,8.4323,8.5954,8.6334,8.6562,8.7318,8.7507,8.7507,8.7507,8.6179,8.5081,8.5043,8.4398,8.3944,8.3944,8.3944,0.0,8.5043,8.7321,8.9185,8.9865,8.9979,8.9979,8.9903,8.4701,8.3143,8.7242,8.2157,8.0791,8.4815,7.95,7.6045,7.5207,7.0198,6.6364,6.3858,0.0,0.0,0.0,0.0,0.0,0.0,0.0,0.0,0.0,0.0,0.0,0.0,0.0,0.0,0.0,0.0,0.0,0.0,0.0,0.0,0.0,0.0,0.0,0.0,0.0,7.1011,6.9486,7.6325,7.8617,7.2133,7.3323,7.5284,7.7252,7.6467,7.7468,8.1053,7.946,7.9987,8.3544,8.2525,8.3318,8.6201,8.5101,8.4542,8.4542,8.4822,8.4981,8.4981,8.4981,8.4981,8.4981,8.4981,8.4981,8.4981,8.4981,8.2884,7.9411,7.7497,7.6727,7.6727,7.6727,7.6727,7.6727,7.6727,7.6727,7.6727,7.6727,7.6727,7.6727,7.6727,7.7297,7.8019,7.8627,7.9386,8.0297,8.174,8.2082,8.2385,8.3447,8.3713,8.3788,8.4054,8.4625,8.5005,8.5005,8.2309,7.969,7.8588,8.0867,8.2537,8.1475,8.4132,8.7131,8.9637,9.0743,9.1388,9.1654,9.1155,9.0358,8.9337,8.6372,8.4929,8.5724,8.3448,8.2196,8.2499,8.0107,7.8132,7.6765,7.3916,6.7921,5.8705,0.0,0.0,0.0,0.0,0.0,0.0,0.0,0.0,0.0,0.0,0.0,0.0,0.0,0.0,0.0,0.0,0.0,0.0,0.0,0.0,0.0,0.0,0.0,0.0,0.0,0.0,6.2325,6.8055,0.0,6.2837,6.3165,6.4575,6.6466,6.5929,6.7713,7.2744,7.147,7.2519,7.6888,7.6169,7.6913,7.9372,7.8338,7.798,7.8284,7.855,7.9044,7.9576,7.9576,7.9462,7.9234,7.9803,7.9386,7.8246,7.7638,7.5397,7.2321,7.2017,7.1181,7.0236,7.1447,7.1937,7.2165,7.3612,7.4334,7.4524,7.422,7.3118,7.1823,7.1181,7.092,7.1076,7.2287,7.3881,7.5706,7.7981,7.9006,7.9728,8.0829,8.1094,8.1208,8.155,8.1588,8.0976,7.9033,7.6503,7.4023,7.2061,7.4651,7.7323,7.8554,8.2196,8.6372,9.0667,9.1687,9.2143,9.249,9.1459,9.0088,8.846,8.6789,8.5309,8.4132,8.3031,8.1969,8.0867,7.9462,7.745,7.4906,7.2055,6.5712,0.0,0.0,0.0,0.0,0.0,0.0,0.0,0.0,0.0,0.0,0.0,0.0,0.0,0.0,0.0,0.0,0.0,0.0,0.0,0.0,0.0,0.0,0.0,0.0,0.0,0.0,0.0,5.6632,5.9661,0.0,0.0,0.0,0.0,5.2133,5.3645,5.7165,6.2757,6.3828,6.6636,7.1717,7.1983,7.2173,7.2362,7.3239,7.4074,7.4904,7.5703,7.6918,7.84,7.8476,7.8058,7.745,7.9082,7.7942,7.479,7.2818,7.0047,6.6971,6.6053,6.3638,6.1056,6.4466,6.5581,6.6,7.036,7.2374,7.2873,7.2101,6.9168,6.5598,6.3774,6.2015,0.0,0.0,6.5456,6.8891,7.2267,7.4421,7.6235,7.8096,7.8552,7.8817,7.9652,7.8588,7.5749,0.0,6.8725,6.7704,6.5073,0.0,6.8328,7.4344,7.7795,8.1814,8.7818,9.0092,9.1492,9.2376,9.0928,8.9257,8.7545,8.58,8.4092,8.2422,8.0867,7.9955,7.9841,7.7222,7.3843,6.9634,6.4686,0.0,0.0,0.0,0.0,0.0,0.0,0.0,0.0,0.0,0.0,0.0,0.0,0.0,0.0,0.0,0.0,0.0,0.0,0.0,0.0,0.0,0.0,0.0,0.0,0.0,0.0,4.6283,5.0747,5.0952,5.2043,5.0462,0.0,0.0,0.0,0.0,0.0,0.0,5.3367,5.4872,5.8011,6.3061,6.5035,6.7503,7.0583,7.267,7.3505,7.3194,7.3922,7.4226,7.4109,7.4681,7.4871,7.4681,7.5098,7.4795,7.3543,6.7573,6.3888,6.1656,5.895,5.5755,5.3126,5.6604,5.589,5.4086,6.0895,6.3441,6.3544,6.2562,6.1989,6.0888,5.6618,0.0,0.0,0.0,0.0,5.9548,6.4557,6.7761,7.0768,7.498,7.6005,7.6043,7.6271,7.5967,7.3214,0.0,5.9581,5.5101,5.0698,0.0,0.0,0.0,0.0,7.6652,8.4124,8.865,9.1264,9.1492,9.0092,8.8464,8.6751,8.4396,8.2346,8.0791,7.969,7.8247,7.6385,7.2666,6.8414,6.3562,0.0,0.0,0.0,0.0,0.0,0.0,0.0,0.0,0.0,0.0,0.0,0.0,0.0,0.0,0.0,0.0,0.0,0.0,0.0,0.0,0.0,0.0,0.0,0.0,0.0,0.0,0.0,4.0901,4.4971,4.5392,4.5083,4.2941,0.0,0.0,0.0,0.0,0.0,0.0,0.0,0.0,0.0,5.4962,5.6797,5.954,6.3373,6.6257,6.8034,6.868,7.0616,7.1717,7.2017,7.2438,7.2666,7.2628,7.2214,7.0393,6.7357,6.2787,5.8609,5.481,0.0,0.0,0.0,0.0,4.7081,4.5313,5.1426,5.4074,5.4395,5.2902,0.0,0.0,0.0,0.0,0.0,0.0,0.0,5.3537,0.0,0.0,6.8832,7.2059,7.2818,7.2928,7.3308,6.7807,6.0668,0.0,4.9162,4.5157,4.0451,0.0,0.0,0.0,0.0,7.1079,7.8971,8.5575,8.9557,8.9557,8.8764,8.7397,8.5347,8.3866,8.1854,7.9158,7.8133,7.5855,7.1865,6.7693,6.215,0.0,0.0,0.0,0.0,0.0,0.0,0.0,0.0,0.0,0.0,0.0,0.0,0.0,0.0,0.0,0.0,0.0,0.0,0.0,0.0,0.0,0.0,0.0,0.0,0.0,0.0,0.0,0.0,0.0,3.8556,4.049,0.0,0.0,0.0,0.0,0.0,0.0,0.0,0.0,0.0,0.0,0.0,0.0,0.0,5.0143,5.3671,5.6797,5.953,6.1808,6.4744,6.6957,6.8501,6.8614,6.8841,6.9068,6.7297,0.0,5.9378,5.7252,0.0,0.0,0.0,0.0,0.0,0.0,0.0,0.0,0.0,0.0,0.0,0.0,0.0,0.0,0.0,0.0,0.0,0.0,0.0,0.0,0.0,0.0,6.5821,6.6897,6.7442,6.7742,0.0,5.6175,4.4617,4.0525,3.8829,0.0,0.0,0.0,0.0,0.0,0.0,0.0,7.2913,8.1736,8.7356,8.7469,8.7394,8.6372,8.3982,8.3488,8.1589,7.764,7.559,7.2135,6.6706,6.2491,0.0,0.0,0.0,0.0,0.0,0.0,0.0,0.0,0.0,0.0,0.0,0.0,0.0,0.0,0.0,0.0,0.0,0.0,0.0,0.0,0.0,0.0,0.0,0.0,0.0,0.0,0.0,0.0,0.0,0.0,0.0,0.0,0.0,0.0,0.0,0.0,0.0,0.0,0.0,0.0,0.0,0.0,0.0,0.0,0.0,0.0,0.0,0.0,0.0,0.0,5.1775,5.2524,5.3578,5.4181,5.566,5.7336,5.1134,5.1659,5.6201,4.7754,0.0,0.0,0.0,0.0,0.0,0.0,0.0,0.0,0.0,0.0,0.0,0.0,0.0,0.0,0.0,0.0,0.0,0.0,0.0,0.0,0.0,0.0,0.0,0.0,5.4155,5.4564,4.9752,0.0,0.0,0.0,0.0,0.0,0.0,0.0,0.0,0.0,0.0,0.0,6.7009,7.882,8.6748,8.7394,8.6862,8.5764,8.3944,8.1893,7.95,7.6615,6.9819,6.4542,0.0,0.0,0.0,0.0,0.0,0.0,0.0,0.0,0.0,0.0,0.0,0.0,0.0,0.0,0.0,0.0,0.0,0.0,0.0,0.0,0.0,0.0,0.0,0.0,0.0,0.0,0.0,0.0,0.0,0.0,0.0,0.0,0.0,0.0,0.0,0.0,0.0,0.0,0.0,0.0,0.0,0.0,0.0,0.0,0.0,0.0,0.0,0.0,0.0,0.0,0.0,0.0,0.0,0.0,0.0,0.0,0.0,0.0,0.0,4.0504,0.0,0.0,0.0,0.0,0.0,0.0,0.0,0.0,0.0,0.0,0.0,0.0,0.0,0.0,0.0,0.0,0.0,0.0,0.0,0.0,0.0,0.0,0.0,0.0,0.0,0.0,0.0,0.0,0.0,0.0,0.0,0.0,0.0,0.0,0.0,0.0,0.0,0.0,0.0,0.0,6.2432,7.5534,8.4434,8.4813,8.451,8.379,8.2576,8.1019,7.7486,7.1447,6.6091,0.0,0.0,0.0,0.0,0.0,0.0,0.0,0.0,0.0,0.0,0.0,0.0,0.0,0.0,0.0,0.0,0.0,0.0,0.0,0.0,0.0,0.0,0.0,0.0,0.0,0.0,0.0,0.0,0.0,0.0,0.0,0.0,0.0,0.0,0.0,0.0,0.0,0.0,0.0,0.0,0.0,0.0,0.0,0.0,0.0,0.0,0.0,0.0,0.0,0.0,0.0,0.0,0.0,0.0,0.0,0.0,0.0,0.0,0.0,3.6389,0.0,0.0,0.0,0.0,0.0,0.0,0.0,0.0,0.0,0.0,0.0,0.0,0.0,0.0,0.0,0.0,0.0,0.0,0.0,0.0,0.0,0.0,0.0,0.0,0.0,0.0,0.0,0.0,0.0,0.0,0.0,0.0,0.0,0.0,0.0,0.0,0.0,0.0,0.0,0.0,0.0,5.878,7.261,8.2043,8.2384,8.2422,8.2043,8.1057,8.0259,7.5853,6.6585,6.236,0.0,0.0,0.0,0.0,0.0,0.0,0.0,0.0,0.0,0.0,0.0,0.0,0.0,0.0,0.0,0.0,0.0,0.0,0.0,0.0,0.0,0.0,0.0,0.0,0.0,0.0,0.0,0.0,0.0,0.0,0.0,0.0,0.0,0.0,0.0,0.0,0.0,0.0,0.0,0.0,0.0,0.0,0.0,0.0,0.0,0.0,0.0,0.0,0.0,0.0,0.0,0.0,0.0,0.0,0.0,0.0,0.0,0.0,0.0,0.0,0.0,0.0,0.0,0.0,0.0,0.0,0.0,0.0,0.0,0.0,0.0,0.0,0.0,0.0,0.0,0.0,0.0,0.0,0.0,0.0,0.0,0.0,0.0,0.0,0.0,0.0,0.0,0.0,0.0,0.0,0.0,0.0,0.0,0.0,0.0,0.0,0.0,0.0,0.0,0.0,0.0,5.6344,7.0593,8.0829,8.2271,8.2422,8.1815,8.0335,7.9386,7.4909,6.565,0.0,0.0,0.0,0.0,0.0,0.0,0.0,0.0,0.0,0.0,0.0,0.0,0.0,0.0,0.0,0.0,0.0,0.0,0.0,0.0,0.0,0.0,0.0,0.0,0.0,0.0,0.0,0.0,0.0,0.0,0.0,0.0,0.0,0.0,0.0,0.0,0.0,0.0,0.0,0.0,0.0,0.0,0.0,0.0,0.0,0.0,0.0,0.0,0.0,0.0,0.0,0.0,0.0,0.0,0.0,0.0,0.0,0.0,0.0,0.0,0.0,0.0,0.0,0.0,0.0,0.0,0.0,0.0,0.0,0.0,0.0,0.0,0.0,0.0,0.0,0.0,0.0,0.0,0.0,0.0,0.0,0.0,0.0,0.0,0.0,0.0,0.0,0.0,0.0,0.0,0.0,0.0,0.0,0.0,0.0,0.0,0.0,0.0,0.0,0.0,0.0,0.0,5.4571,6.7311,7.7119,8.0637,8.0563,7.9956,7.9348,7.8019,7.2177,6.0413,0.0,0.0,0.0,0.0,0.0,0.0,0.0,0.0,0.0,0.0,0.0,0.0,0.0,0.0,0.0,0.0,0.0,0.0,0.0,0.0,0.0,0.0,0.0,0.0,0.0,0.0,0.0,0.0,0.0,0.0,0.0,0.0,0.0,0.0,0.0,0.0,0.0,0.0,0.0,0.0,0.0,0.0,0.0,0.0,0.0,0.0,0.0,0.0,0.0,0.0,0.0,0.0,0.0,0.0,0.0,0.0,0.0,0.0,0.0,0.0,0.0,0.0,0.0,0.0,0.0,0.0,0.0,0.0,0.0,0.0,0.0,0.0,0.0,0.0,0.0,0.0,0.0,0.0,0.0,0.0,0.0,0.0,0.0,0.0,0.0,0.0,0.0,0.0,0.0,0.0,0.0,0.0,0.0,0.0,0.0,0.0,0.0,0.0,0.0,0.0,0.0,0.0,5.3247,6.491,7.425,7.886,7.8969,7.8514,7.802,7.6235,6.9591,5.6656,0.0,0.0,0.0,0.0,0.0,0.0,0.0,0.0,0.0,0.0,0.0,0.0,0.0,0.0,0.0,0.0,0.0,0.0,0.0,0.0,0.0,0.0,0.0,0.0,0.0,0.0,0.0,0.0,0.0,0.0,0.0,0.0,0.0,0.0,0.0,0.0,0.0,0.0,0.0,0.0,0.0,0.0,0.0,0.0,0.0,0.0,0.0,0.0,0.0,0.0,0.0,0.0,0.0,0.0,0.0,0.0,0.0,0.0,0.0,0.0,0.0,0.0,0.0,0.0,0.0,0.0,0.0,0.0,0.0,0.0,0.0,0.0,0.0,0.0,0.0,0.0,0.0,0.0,0.0,0.0,0.0,0.0,0.0,0.0,0.0,0.0,0.0,0.0,0.0,0.0,0.0,0.0,0.0,0.0,0.0,0.0,0.0,0.0,0.0,0.0,0.0,0.0,5.2265,6.3975,7.3096,7.716,7.8285,7.8058,7.6387,7.3957,6.7541,0.0,0.0,0.0,0.0,0.0,0.0,0.0,0.0,0.0,0.0,0.0,0.0,0.0,0.0,0.0,0.0,0.0,0.0,0.0,0.0,0.0,0.0,0.0,0.0,0.0,0.0,0.0,0.0,0.0,0.0,0.0,0.0,0.0,0.0,0.0,0.0,0.0,0.0,0.0,0.0,0.0,0.0,0.0,0.0,0.0,0.0,0.0,0.0,0.0,0.0,0.0,0.0,0.0,0.0,0.0,0.0,0.0,0.0,0.0,0.0,0.0,0.0,0.0,0.0,0.0,0.0,0.0,0.0,0.0,0.0,0.0,0.0,0.0,0.0,0.0,0.0,0.0,0.0,0.0,0.0,0.0,0.0,0.0,0.0,0.0,0.0,0.0,0.0,0.0,0.0,0.0,0.0,0.0,0.0,0.0,0.0,0.0,0.0,0.0,0.0,0.0,0.0,0.0,4.6814,5.4224,6.2358,0.0,7.318,7.3884,7.6019,7.4415,6.8072,5.5798,0.0,0.0,0.0,0.0,0.0,0.0,0.0,0.0,0.0,0.0,0.0,0.0,0.0,0.0,0.0,0.0,0.0,0.0,0.0,0.0,0.0,0.0,0.0,0.0,0.0,0.0,0.0,0.0,0.0,0.0,0.0,0.0,0.0,0.0,0.0,0.0,0.0,0.0,0.0,0.0,0.0,0.0,0.0,0.0,0.0,0.0,0.0,0.0,0.0,0.0,0.0,0.0,0.0,0.0,0.0,0.0,0.0,0.0,0.0,0.0,0.0,0.0,0.0,0.0,0.0,0.0,0.0,0.0,0.0,0.0,0.0,0.0,0.0,0.0,0.0,0.0,0.0,0.0,0.0,0.0,0.0,0.0,0.0,0.0,0.0,0.0,0.0,0.0,0.0,0.0,0.0,0.0,0.0,0.0,0.0,0.0,0.0,0.0,0.0,0.0,0.0,0.0,0.0,5.0271,5.7751,0.0,6.9558,7.1222,7.3331,7.2479,6.7016,5.576,0.0,0.0,0.0,0.0,0.0,0.0,0.0,0.0,0.0,0.0,0.0,0.0,0.0,0.0,0.0,0.0,0.0,0.0,0.0,0.0,0.0,0.0,0.0,0.0,0.0,0.0,0.0,0.0,0.0,0.0,0.0,0.0,0.0,0.0,0.0,0.0,0.0,0.0,0.0,0.0,0.0,0.0,0.0,0.0,0.0,0.0,0.0,0.0,0.0,0.0,0.0,0.0,0.0,0.0,0.0,0.0,0.0,0.0,0.0,0.0,0.0,0.0,0.0,0.0,0.0,0.0,0.0,0.0,0.0,0.0,0.0,0.0,0.0,0.0,0.0,0.0,0.0,0.0,0.0,0.0,0.0,0.0,0.0,0.0,0.0,0.0,0.0,0.0,0.0,0.0,0.0,0.0,0.0,0.0,0.0,0.0,0.0,0.0,0.0,0.0,0.0,0.0,0.0,5.0623,5.7621,6.2244,6.6801,6.9294,6.8964,6.8641,6.4638,5.5506,4.7951,0.0,0.0,0.0,0.0,0.0,0.0,0.0,0.0,0.0,0.0,0.0,0.0,0.0,0.0,0.0,0.0,0.0,0.0,0.0,0.0,0.0,0.0,0.0,0.0,0.0,0.0,0.0,0.0,0.0,0.0,0.0,0.0,0.0,0.0,0.0,0.0,0.0,0.0,0.0,0.0,0.0,0.0,0.0,0.0,0.0,0.0,0.0,0.0,0.0,0.0,0.0,0.0,0.0,0.0,0.0,0.0,0.0,0.0,0.0,0.0,0.0,0.0,0.0,0.0,0.0,0.0,0.0,0.0,0.0,0.0,0.0,0.0,0.0,0.0,0.0,0.0,0.0,0.0,0.0,0.0,0.0,0.0,0.0,0.0,0.0,0.0,0.0,0.0,0.0,0.0,0.0,0.0,0.0,0.0,0.0,0.0,0.0,0.0,0.0,0.0,0.0,0.0,4.4029,4.9724,5.769,5.955,6.2419,6.7657,6.6324,6.2074,5.4579,4.8224,0.0,0.0,0.0,0.0,0.0,0.0,0.0,0.0,0.0,0.0,0.0,0.0,0.0,0.0,0.0,0.0,0.0,0.0,0.0,0.0,0.0,0.0,0.0,0.0,0.0,0.0,0.0,0.0,0.0,0.0,0.0,0.0,0.0,0.0,0.0,0.0,0.0,0.0,0.0,0.0,0.0,0.0,0.0,0.0,0.0,0.0,0.0,0.0,0.0,0.0,0.0,0.0,0.0,0.0,0.0,0.0,0.0,0.0,0.0,0.0,0.0,0.0,0.0,0.0,0.0,0.0,0.0,0.0,0.0,0.0,0.0,0.0,0.0,0.0,0.0,0.0,0.0,0.0,0.0,0.0,0.0,0.0,0.0,0.0,0.0,0.0,0.0,0.0,0.0,0.0,0.0,0.0,0.0,0.0,0.0,0.0,0.0,0.0,0.0,0.0,0.0,0.0,3.6824,4.308,5.3051,5.575,5.8896,6.4119,6.3706,6.0316,5.367,4.6437,0.0,0.0,0.0,0.0,0.0,0.0,0.0,0.0,0.0,0.0,0.0,0.0,0.0,0.0,0.0,0.0,0.0,0.0,0.0,0.0,0.0,0.0,0.0,0.0,0.0,0.0,0.0,0.0,0.0,0.0,0.0,0.0,0.0,0.0,0.0,0.0,0.0,0.0,0.0,0.0,0.0,0.0,0.0,0.0,0.0,0.0,0.0,0.0,0.0,0.0,0.0,0.0,0.0,0.0,0.0,0.0,0.0,0.0,0.0,0.0,0.0,0.0,0.0,0.0,0.0,0.0,0.0,0.0,0.0,0.0,0.0,0.0,0.0,0.0,0.0,0.0,0.0,0.0,0.0,0.0,0.0,0.0,0.0,0.0,0.0,0.0,0.0,0.0,0.0,0.0,0.0,0.0,0.0,0.0,0.0,0.0,0.0,0.0,0.0,0.0,0.0,0.0,0.0,3.8259,4.8064,5.2822,5.6451,5.9161,6.0214,5.7967,5.1598,0.0,0.0,0.0,0.0,0.0,0.0,0.0,0.0,0.0,0.0,0.0,0.0,0.0,0.0,0.0,0.0,0.0,0.0,0.0,0.0,0.0,0.0,0.0,0.0,0.0,0.0,0.0,0.0,0.0,0.0,0.0,0.0,0.0,0.0,0.0,0.0,0.0,0.0,0.0,0.0,0.0,0.0,0.0,0.0,0.0,0.0,0.0,0.0,0.0,0.0,0.0,0.0,0.0,0.0,0.0,0.0,0.0,0.0,0.0,0.0,0.0,0.0,0.0,0.0,0.0,0.0,0.0,0.0,0.0,0.0,0.0,0.0,0.0,0.0,0.0,0.0,0.0,0.0,0.0,0.0,0.0,0.0,0.0,0.0,0.0,0.0,0.0,0.0,0.0,0.0,0.0,0.0,0.0,0.0,0.0,0.0,0.0,0.0,0.0,0.0,0.0,0.0,0.0,0.0,0.0,4.1994,4.7385,5.1484,5.3559,5.4367,5.2083,4.5649,0.0,0.0,0.0,0.0,0.0,0.0,0.0,0.0,0.0,0.0,0.0,0.0,0.0,0.0]}]]]